[[{"header":{"parameterUnit":"m.s-1","parameterCategory":1,"la1":30.6,"la2":29.2853,"lo1":-89.7004,"lo2":-87.6739,"dy":0.0162,"dx":0.0183,"nx":112,"ny":82,"refTime":"2023-09-19T12:00:00:Z","depth":0,"parameterNumber":2,"parameterNumberName":"U-component_of_WINDS"},"data":[0.0,0.0,0.0,0.0,0.0,0.0,0.0,0.0,0.0,0.0,0.0,0.0,0.0,0.0,0.0,0.0,0.0,0.0,0.0,0.0,0.0,0.0,0.0,0.0,0.0,0.0,0.0,0.0,0.0,0.0,0.0,0.0,0.0,0.0,0.0,0.0,0.0,0.0,0.0,0.0,0.0,0.0,0.0,0.0,0.0,0.0,0.0,0.0,0.0,0.0,0.0,0.0,0.0,0.0,0.0,0.0,0.0,0.0,0.0,0.0,0.0,0.0,0.0,0.0,0.0,0.0,0.0,0.0,0.0,0.0,0.0,0.0,0.0,0.0,0.0,0.0,0.0,0.0,0.0,0.0,0.0,0.0,0.0,0.0,0.0,0.0,0.0,0.0,0.0,0.0,0.3058,0.264,0.2645,0.2902,0.3438,0.3866,0.4288,0.4753,0.0,0.0,0.0,0.0,0.0,0.0,0.0,0.0,0.0,0.0,0.0,0.0,0.0,0.0,0.0,0.0,0.0,0.0,0.0,0.0,0.0,0.0,0.0,0.0,0.0,0.0,0.0,0.0,0.0,0.0,0.0,0.0,0.0,0.0,0.0,0.0,0.0,0.0,0.0,0.0,0.0,0.0,0.0,0.0,0.0,0.0,0.0,0.0,0.0,0.0,0.0,0.0,0.0,0.0,0.0,0.0,0.0,0.0,0.0,0.0,0.0,0.0,0.0,0.0,0.0,0.0,0.0,0.0,0.0,0.0,0.0,0.0,0.0,0.0,0.0,0.0,0.0,0.0,0.0,0.0,0.0,0.0,0.0,0.0,0.0,0.0,0.0,0.0,0.0,0.0,0.0,0.0,0.0,0.0,0.0,0.0,0.0,0.0,0.0,0.0,0.0,0.0,0.0,0.0,0.2484,0.2504,0.2567,0.283,0.3375,0.3534,0.3917,0.4661,0.0,0.0,0.0,0.0,0.0,0.0,0.0,0.0,0.0,0.0,0.0,0.0,0.0,0.0,0.0,0.0,0.0,0.0,0.0,0.0,0.0,0.0,0.0,0.0,0.0,0.0,0.0,0.0,0.0,0.0,0.0,0.0,0.0,0.0,0.0,0.0,0.0,0.0,0.0,0.0,0.0,0.0,0.0,0.0,0.0,0.0,0.0,0.0,0.0,0.0,0.0,0.0,0.0,0.0,0.0,0.0,0.0,0.0,0.0,0.0,0.0,0.0,0.0,0.0,0.0,0.0,0.0,0.0,0.0,0.0,0.0,0.0,0.0,0.0,0.0,0.0,0.0,0.0,0.0,0.0,0.0,0.0,0.0,0.0,0.0,0.0,0.0,0.0,0.0,0.0,0.0,0.0,0.0,0.0,0.0,0.0,0.0,0.0,0.0,0.0,0.0,0.0,0.0,0.2132,0.2118,0.236,0.2382,0.2603,0.3144,0.327,0.3632,0.4337,0.4961,0.0,0.0,0.0,0.0,0.0,0.0,0.0,0.0,0.0,0.0,0.0,0.0,0.0,0.0,0.0,0.0,0.0,0.0,0.0,0.0,0.0,0.0,0.0,0.0,0.0,0.0,0.0,0.0,0.0,0.0,0.0,0.0,0.0,0.0,0.0,0.0,0.0,0.0,0.0,0.0,0.0,0.0,0.0,0.0,0.0,0.0,0.0,0.0,0.0,0.0,0.0,0.0,0.0,0.0,0.0,0.0,0.0,0.0,0.0,0.0,0.0,0.0,0.0,0.0,0.0,0.0,0.0,0.0,0.0,0.0,0.0,0.0,0.0,0.0,0.0,0.0,0.0,0.0,0.0,0.0,0.0,0.0,0.0,0.0,0.0,0.0,0.0,0.0,0.0,0.0,0.0,0.0,0.0,0.0,0.0,0.0,0.0,0.0,0.0,0.0,0.0,0.0,0.167,0.1814,0.2123,0.2194,0.2411,0.2868,0.3051,0.3405,0.3988,0.4544,0.0,0.0,0.0,0.0,0.0,0.0,0.0,0.0,0.0,0.0,0.0,0.0,0.0,0.0,0.0,0.0,0.0,0.0,0.0,0.0,0.0,0.0,0.0,0.0,0.0,0.0,0.0,0.0,0.0,0.0,0.0,0.0,0.0,0.0,0.0,0.0,0.0,0.0,0.0,0.0,0.0,0.0,0.0,0.0,0.0,0.0,0.0,0.0,0.0,0.0,0.0,0.0,0.0,0.0,0.0,0.0,0.0,0.0,0.0,0.0,0.0,0.0,0.0,0.0,0.0,0.0,0.0,0.0,0.0,0.0,0.0,0.0,0.0,0.0,0.0,0.0,0.0,0.0,0.0,0.0,0.0,0.0,0.0,0.0,0.0,0.0,0.0,0.0,0.0,0.0,0.0,0.0,0.0,0.0,0.0,0.0,0.0,0.0,0.0,0.0,0.0,0.0,0.1192,0.1446,0.1717,0.2072,0.2391,0.2601,0.2858,0.325,0.3781,0.4381,0.0,0.0,0.0,0.0,0.0,0.0,0.0,0.0,0.0,0.0,0.0,0.0,0.0,0.0,0.0,0.0,0.0,0.0,0.0,0.0,0.0,0.0,0.0,0.0,0.0,0.0,0.0,0.0,0.0,0.0,0.0,0.0,0.0,0.0,0.0,0.0,0.0,0.0,0.0,0.0,0.0,0.0,0.0,0.0,0.0,0.0,0.0,0.0,0.0,0.0,0.0,0.0,0.0,0.0,0.0,0.0,0.0,0.0,0.0,0.0,0.0,0.0,0.0,0.0,0.0,0.0,0.0,0.0,0.0,0.0,0.0,0.0,0.0,0.0,0.0,0.0,0.0,0.0,0.0,0.0,0.0,0.0,0.0,0.0,0.0,0.0,0.0,0.0,0.0,0.0,0.0,0.0,0.0,0.0,0.0,0.0,0.0,0.0,0.0,0.0,0.0,0.0,0.0807,0.0956,0.1171,0.1492,0.1843,0.2252,0.2618,0.3076,0.3701,0.0,0.0,0.0,0.0,0.0,0.0,0.0,0.0,0.0,0.0,0.0,0.0,0.0,0.0,0.0,0.0,0.0,0.0,0.0,0.0,0.0,0.0,0.0,0.0,0.0,0.0,0.0,0.0,0.0,0.0,0.0,0.0,0.0,0.0,0.0,0.0,0.0,0.0,0.0,0.0,0.0,0.0,0.0,0.0,0.0,0.0,0.0,0.0,0.0,0.0,0.0,0.0,0.0,0.0,0.0,0.0,0.0,0.0,0.0,0.0,0.0,0.0,0.0,0.0,0.0,0.0,0.0,0.0,0.0,0.0,0.0,0.0,0.0,0.0,0.0,0.0,0.0,0.0,0.0,0.0,0.0,0.0,0.0,0.0,0.0,0.0,0.0,0.0,0.0,0.0,0.0,0.0,0.0,0.0,0.0,0.0,0.0,0.0,0.0,0.0,0.0,0.0,0.0415,0.0469,0.056,0.0686,0.1053,0.1456,0.1905,0.2412,0.2962,0.3592,0.0,0.0,0.0,0.0,0.0,0.0,0.0,0.0,0.0,0.0,0.0,0.0,0.0,0.0,0.0,0.0,0.0,0.0,0.0,0.0,0.0,0.0,0.0,0.0,0.0,0.0,0.0,0.0,0.0,0.0,0.0,0.0,0.0,0.0,0.0,0.0,0.0,0.0,0.0,0.0,0.0,0.0,0.0,0.0,0.0,0.0,0.0,0.0,0.0,0.0,0.0,0.0,0.0,0.0,0.0,0.0,0.0,0.0,0.0,0.0,0.0,0.0,0.0,0.0,0.0,0.0,0.0,0.0,0.0,0.0,0.0,0.0,0.0,0.0,0.0,0.0,0.0,0.0,0.0,0.0,0.0,0.0,0.0,0.0,0.0,0.0,0.0,0.0,0.0,0.0,0.0,0.0,0.0,0.0,0.0,0.0,0.0,0.0,0.0,0.0,0.0,0.0,0.0018,0.0182,0.0297,0.0293,0.0826,0.1298,0.1566,0.2261,0.2916,0.0,0.0,0.0,0.0,0.0,0.0,0.0,0.0,0.0,0.0,0.0,0.0,0.0,0.0,0.0,0.0,0.0,0.0,0.0,0.0,0.0,0.0,0.0,0.0,0.0,0.0,0.0,0.0,0.0,0.0,0.0,0.0,0.0,0.0,0.0,0.0,0.0,0.0,0.0,0.0,0.0,0.0,0.0,0.0,0.0,0.0,0.0,0.0,0.0,0.0,0.0,0.0,0.0,0.0,0.0,0.0,0.0,0.0,0.0,0.0,0.0,0.0,0.0,0.0,0.0,0.0,0.0,0.0,0.0,0.0,0.0,0.0,0.0,0.0,0.0,0.0,0.0,0.0,0.0,0.0,0.0,0.0,0.0,0.0,0.0,0.0,0.0,0.0,0.0,0.0,0.0,0.0,0.0,0.0,0.0,0.0,0.0,0.0,0.0,0.0,0.0,0.0,0.0,0.0018,0.0056,0.0094,0.0096,0.0374,0.0716,0.1081,0.1691,0.2401,0.3164,0.0,0.0,0.0,0.0,0.0,0.0,0.0,0.0,0.0,0.0,0.0,0.0,0.0,0.0,0.0,0.0,0.0,0.0,0.0,0.0,0.0,0.0,0.0,0.0,0.0,0.0,0.0,0.0,0.0,0.0,0.0,0.0,0.0,0.0,0.0,0.0,0.0,0.0,0.0,0.0,0.0,0.0,0.0,0.0,0.0,0.0,0.0,0.0,0.0,0.0,0.0,0.0,0.0,0.0,0.0,0.0,0.0,0.0,0.0,0.0,0.0,0.0,0.0,0.0,0.0,0.0,0.0,0.0,0.0,0.0,0.0,0.0,0.0,0.0,0.0,0.0,0.0,0.0,0.0,0.0,0.0,0.0,0.0,0.0,0.0,0.0,0.0,0.0,0.0,0.0,0.0,0.0,0.0,0.0,0.0,0.0,0.0,0.0,0.0,0.0,0.0,0.0,0.0018,0.0,0.0,0.0,0.0185,0.0443,0.0791,0.1372,0.2065,0.2888,0.0,0.0,0.0,0.0,0.0,0.0,0.0,0.0,0.0,0.0,0.0,0.0,0.0,0.0,0.0,0.0,0.0,0.0,0.0,0.0,0.0,0.0,0.0,0.0,0.0,0.0,0.0,0.0,0.0,0.0,0.0,0.0,0.0,0.0,0.0,0.0,0.0,0.0,0.0,0.0,0.0,0.0,0.0,0.0,0.0,0.0,0.0,0.0,0.0,0.0,0.0,0.0,0.0,0.0,0.0,0.0,0.0,0.0,0.0,0.0,0.0,0.0,0.0,0.0,0.0,0.0,0.0,0.0,0.0,0.0,0.0,0.0,0.0,0.0,0.0,0.0,0.0,0.0,0.0,0.0,0.0,0.0,0.0,0.0,0.0,0.0,0.0,0.0,0.0,0.0,0.0,0.0,0.0,0.0,0.0,0.0,0.0,0.0,0.0,0.0,0.0,0.0,-0.0054,-0.0055,-0.0055,-0.0038,0.013,0.0357,0.0659,0.123,0.1874,0.2616,0.0,0.0,0.0,0.0,0.0,0.0,0.0,0.0,0.0,0.0,0.0,0.0,0.0,0.0,0.0,0.0,0.0,0.0,0.0,0.0,0.0,0.0,0.0,0.0,0.0,0.0,0.0,0.0,0.0,0.0,0.0,0.0,0.0,0.0,0.0,0.0,0.0,0.0,0.0,0.0,0.0,0.0,0.0,0.0,0.0,0.0,0.0,0.0,0.0,0.0,0.0,0.0,0.0,0.0,0.0,0.0,0.0,0.0,0.0,0.0,0.7066,0.7233,0.0,0.0,0.0,0.0,0.0,0.0,0.0,0.0,0.0,0.0,0.0,0.0,0.0,0.0,0.0,0.0,0.0,0.0,0.0,0.0,0.0,0.0,0.0,0.0,0.0,0.0,0.0,0.0,0.0,0.0,0.0,0.0,0.0,0.0,0.0,0.0,0.0,0.0,0.0,0.0,-0.0472,-0.0464,-0.0414,-0.0246,-0.0204,0.0018,0.0507,0.0994,0.1605,0.2346,0.2946,0.0,0.0,0.0,0.0,0.0,0.0,0.0,0.0,0.0,0.0,0.0,0.0,0.0,0.0,0.0,0.0,0.0,0.0,0.0,0.0,0.0,0.0,0.0,0.0,0.0,0.0,0.0,0.0,0.0,0.0,0.0,0.0,0.0,0.0,0.0,0.0,0.0,0.0,0.0,0.0,0.0,0.0,0.0,0.0,0.0,0.0,0.0,0.0,0.0,0.0,0.0,0.0,0.0,0.0,0.0,0.0,0.0,0.0,0.0,0.7043,0.7371,0.0,0.0,0.0,0.0,0.0,0.0,0.0,0.0,0.0,0.0,0.0,0.0,0.0,0.0,0.0,0.0,0.0,0.0,0.0,0.0,0.0,0.0,0.0,0.0,0.0,0.0,0.0,0.0,0.0,0.0,0.0,0.0,0.0,0.0,0.0,0.0,0.0,0.0,0.0,0.0,-0.0872,-0.0801,-0.07,-0.0606,-0.0412,-0.0127,0.031,0.0819,0.1411,0.2159,0.2711,0.0,0.0,0.0,0.0,0.0,0.0,0.0,0.0,0.0,0.0,0.0,0.0,0.0,0.0,0.0,0.0,0.0,0.0,0.0,0.0,0.0,0.0,0.0,0.0,0.0,0.0,0.0,0.0,0.0,0.0,0.0,0.0,0.0,0.0,0.0,0.0,0.0,0.0,0.0,0.0,0.0,0.0,0.0,0.0,0.0,0.0,0.0,0.0,0.0,0.0,0.0,0.0,0.0,0.5171,0.5212,0.5212,0.5212,0.5403,0.5729,0.6491,0.7078,0.7538,0.7875,0.0,0.0,0.0,0.0,0.0,0.0,0.0,0.0,0.0,0.0,0.0,0.0,0.0,0.0,0.0,0.0,0.0,0.0,0.0,0.0,0.0,0.0,0.0117,-0.0278,-0.06,-0.0357,0.123,0.0,0.0,0.0,0.0,0.0,0.0,0.0,0.0,0.0,0.0,0.0,-0.1409,-0.1257,-0.1105,-0.1085,-0.0721,-0.0298,0.0125,0.0655,0.1275,0.1995,0.2494,0.3048,0.0,0.0,0.0,0.0,0.0,0.0,0.0,0.0,0.0,0.0,0.0,0.0,0.0,0.0,0.0,0.0,0.0,0.0,0.0,0.0,0.0,0.0,0.0,0.0,0.0,0.0,0.0,0.0,0.0,0.0,0.0,0.0,0.4893,0.5362,0.0,0.0,0.0,0.0,0.0,0.0,0.0,0.0,0.0,0.0,0.0,0.0,0.0,0.3786,0.3849,0.3886,0.3952,0.4078,0.4114,0.4119,0.4119,0.4119,0.4222,0.445,0.4793,0.0,0.6754,0.6874,0.0,0.0,0.0,0.0,0.0,0.0,0.0,0.0,0.0,0.0,0.0,0.0,0.0,0.0,0.0,0.0,0.0,0.0,0.0,0.0,0.0,0.0,-0.1409,-0.1821,-0.2152,-0.2274,-0.1791,-0.0618,0.0435,0.0695,0.0711,0.0511,0.0,0.0,0.0,0.0,0.0,0.0,-0.2295,-0.2153,-0.1971,-0.1795,-0.1399,-0.085,-0.0037,0.052,0.1117,0.1799,0.234,0.2824,0.3258,0.3893,0.0,0.0,0.0,0.0,0.0,0.0,0.0,0.0,0.0,0.0,0.0,0.0,0.0,0.0,0.0,0.0,0.0,0.0,0.0,0.0,0.0,0.0,0.0,0.0,0.0,0.0,0.0,0.0,0.0,0.3563,0.3682,0.3888,0.3798,0.3778,0.0,0.0,0.0,0.0,0.0,0.0,0.0,0.0,0.0,0.3303,0.285,0.2601,0.2571,0.2402,0.2337,0.2434,0.2201,0.2115,0.2115,0.2115,0.2259,0.2519,0.2633,0.3099,0.3826,0.4994,0.5156,0.4655,0.0,0.0,0.0,0.0,0.276,0.2616,0.2915,0.3108,0.324,0.3549,0.0,0.0,0.0,0.0,0.0,0.0,0.0,-0.0084,-0.0746,-0.1564,-0.2301,-0.2626,-0.3043,-0.3335,-0.3234,-0.2643,-0.1855,-0.0861,-0.0628,-0.0705,-0.1039,-0.1122,0.0,0.0,0.0,-0.2489,-0.2854,-0.2741,-0.2621,-0.2521,-0.2022,-0.1423,-0.0778,0.0,0.0704,0.1264,0.1863,0.2387,0.2796,0.3414,0.4201,0.0,0.0,0.0,0.0,0.0,0.0,0.0,0.0,0.0,0.0,0.0,0.0,0.0,0.0,0.0,0.0,0.0,0.0,0.0,0.0,0.0,0.0,0.0,0.0,0.0,0.0,0.0,0.0,0.1909,0.2079,0.2158,0.2088,0.2047,0.0,0.0,0.0,0.0,0.0,0.0,0.2541,0.2265,0.2068,0.1969,0.1585,0.1328,0.1209,0.0962,0.081,0.0784,0.047,0.0282,0.0218,0.0218,0.0405,0.0748,0.0748,0.0803,0.1087,0.286,0.324,0.2661,0.2172,0.162,0.11,0.0834,0.0613,0.0478,0.0843,0.1014,0.1195,0.171,0.1912,0.1926,0.1752,0.0,0.0,0.0,0.0,-0.1113,-0.1616,-0.2385,-0.3084,-0.3348,-0.3782,-0.4131,-0.4111,-0.406,-0.365,-0.2332,-0.1974,-0.1932,-0.2134,-0.2024,0.0,-0.2648,-0.2768,-0.2956,-0.3351,-0.3266,-0.3171,-0.3152,-0.256,-0.1959,-0.1495,-0.0575,0.0179,0.0689,0.1348,0.189,0.2281,0.2912,0.3704,0.467,0.0,0.0,0.0,0.0,0.0,0.0,0.0,0.0,0.0,0.0,0.0,0.0,0.0,0.0,0.0,0.0,0.0,0.0,0.0,0.0,0.0,0.0,0.0,0.0,0.0,0.0,0.0,0.0,0.0,0.0118,-0.0072,0.0,0.0,0.0,0.0,-0.0079,0.0,0.0194,0.0523,0.0361,0.0217,0.0224,0.0032,-0.0099,-0.01,-0.0134,-0.0299,-0.0591,-0.0624,-0.0782,-0.1094,-0.1094,-0.0901,-0.0515,-0.0515,-0.0542,-0.0501,0.0616,0.0874,0.0469,-0.0454,-0.0975,-0.1287,-0.1732,-0.1924,-0.1869,-0.1473,-0.0962,-0.0395,0.0077,0.0347,0.0378,-0.0255,-0.0636,0.0,0.0,-0.1913,-0.2407,-0.2886,-0.3471,-0.3983,-0.4184,-0.4514,-0.4725,-0.4669,-0.4651,-0.4472,-0.3807,-0.3382,-0.3174,-0.3369,0.0,-0.3149,-0.3567,-0.3635,-0.3722,-0.3938,-0.3794,-0.3641,-0.3581,-0.2966,-0.2374,-0.1902,-0.1124,-0.04,0.02,0.087,0.1385,0.1721,0.2443,0.315,0.3854,0.4315,0.0,0.0,0.0,0.0,0.0,0.0,0.0,0.0,0.0,0.0,0.0,0.0,0.0,0.0,0.0,0.0,0.0,0.0,0.0,0.0,0.0,0.0,0.0,0.0,0.0,0.0,0.0,0.0,-0.224,-0.2234,0.0,-0.2367,-0.2552,-0.2613,-0.2513,-0.2102,-0.1733,-0.1474,-0.1287,-0.1179,-0.119,-0.1483,-0.1595,-0.1554,-0.1796,-0.2136,-0.2503,-0.2685,-0.2936,-0.3254,-0.3224,-0.3014,-0.265,-0.265,-0.2511,-0.2329,-0.2354,-0.205,-0.1613,-0.2375,-0.2819,-0.3046,-0.3441,-0.3557,-0.3483,-0.3341,-0.3192,-0.2971,-0.2538,-0.2159,-0.1908,-0.2145,-0.2237,-0.2335,-0.2552,-0.2964,-0.3393,-0.3516,-0.3971,-0.4385,-0.4357,-0.4589,-0.4851,-0.4997,-0.5015,-0.4947,-0.4734,-0.4198,-0.3796,-0.3863,-0.3665,-0.3572,-0.3858,-0.3856,-0.3925,-0.4154,-0.4092,-0.3981,-0.3871,-0.353,-0.3129,-0.2716,-0.2055,-0.1445,-0.093,-0.0391,0.0097,0.0523,0.1169,0.1825,0.2496,0.3108,0.3589,0.0,0.0,0.0,0.0,0.0,0.0,0.0,0.0,0.0,0.0,0.0,0.0,0.0,0.0,0.0,0.0,0.0,0.0,0.0,0.0,0.0,0.0,0.0,0.0,0.0,-0.3687,-0.3854,-0.4348,-0.4338,-0.4361,-0.4549,-0.4648,-0.4676,-0.4624,-0.4087,-0.3691,-0.345,-0.3105,-0.2899,-0.2912,-0.3119,-0.3223,-0.3146,-0.3396,-0.3737,-0.4092,-0.4266,-0.4514,-0.48,-0.4756,-0.4555,-0.42,-0.42,-0.4019,-0.3797,-0.4494,-0.4506,-0.4125,-0.4361,-0.4656,-0.4925,-0.5283,-0.5379,-0.5362,-0.5388,-0.5465,-0.5453,-0.5109,-0.4627,-0.4187,-0.4139,-0.3988,-0.3861,-0.3829,-0.4129,-0.4467,-0.4415,-0.4709,-0.4987,-0.49,-0.4985,-0.511,-0.5288,-0.5338,-0.5338,-0.5338,-0.4861,-0.4407,-0.4313,-0.4129,-0.4051,-0.419,-0.4252,-0.4314,-0.4455,-0.4518,-0.4476,-0.4327,-0.4121,-0.386,-0.3526,-0.2989,-0.2491,-0.2027,-0.1594,-0.1144,-0.0724,-0.0191,0.0336,0.0846,0.1442,0.1822,0.1958,0.0,0.0,0.0,0.0,0.0,0.0,0.0,0.0,0.0,0.0,0.0,0.0,0.0,0.0,0.0,0.0,0.0,0.0,0.0,0.0,0.0,0.0,0.0,-0.5311,-0.5382,-0.5671,-0.6219,-0.6412,-0.6535,-0.6594,-0.6604,-0.6512,-0.6307,-0.5952,-0.5642,-0.5389,-0.5092,-0.4931,-0.4954,-0.4955,-0.489,-0.483,-0.4829,-0.4989,-0.5222,-0.5256,-0.5394,-0.5674,-0.567,-0.5456,-0.5079,-0.5113,-0.5006,-0.494,-0.5677,-0.6414,-0.6998,-0.6485,-0.6507,-0.6926,-0.732,-0.7482,-0.7505,-0.763,-0.7744,-0.7754,-0.7486,-0.7013,-0.6468,-0.626,-0.5958,-0.5642,-0.5355,-0.5486,-0.5667,-0.5664,-0.5775,-0.5855,-0.5852,-0.5748,-0.5644,-0.5666,-0.5664,-0.5639,-0.5636,-0.5383,-0.5074,-0.4785,-0.4663,-0.4627,-0.4627,-0.486,0.0,-0.4852,-0.5087,-0.5164,-0.4976,-0.4779,-0.4565,-0.436,-0.3915,-0.3478,-0.3076,-0.2691,-0.2311,-0.1969,-0.1589,-0.1276,-0.1058,-0.0619,-0.0454,-0.0582,0.0,0.0,0.0,0.0,0.0,0.0,0.0,0.0,0.0,0.0,0.0,0.0,0.0,0.0,0.0,0.0,0.0,0.0,0.0,0.0,0.0,-0.7189,-0.7344,-0.6541,-0.6959,-0.7481,-0.784,-0.8345,-0.8639,-0.867,-0.8708,-0.8599,-0.8263,-0.7637,-0.7154,-0.6855,-0.6205,-0.5846,-0.5829,-0.5829,-0.5769,-0.5683,-0.5682,-0.582,-0.6089,-0.6314,-0.6593,-0.6923,-0.7447,-0.7426,-0.6958,-0.7262,-0.7136,-0.6811,-0.7543,-0.8112,-0.8476,-0.8084,-0.8137,-0.8463,-0.8911,-0.9262,-0.9505,-0.9543,-0.9827,-1.0123,-0.9807,-0.942,-0.8996,-0.8502,-0.8051,-0.7647,-0.7319,-0.7294,-0.7326,-0.7271,-0.7303,-0.7307,-0.7267,-0.7035,-0.6857,-0.6947,-0.6822,-0.6644,-0.6509,-0.639,-0.612,-0.5472,-0.5347,-0.5329,-0.5329,-0.5511,-0.5716,-0.5878,-0.6086,-0.6196,-0.6145,-0.5915,-0.5659,-0.5416,-0.5003,-0.4636,-0.4323,-0.4115,-0.3795,-0.3377,-0.3146,-0.2839,-0.238,-0.2343,-0.238,0.0,0.0,0.0,0.0,0.0,0.0,0.0,0.0,0.0,0.0,0.0,0.0,0.0,0.0,0.0,0.0,0.0,0.0,0.0,0.0,0.0,0.0,-0.8689,-0.9072,-0.8733,-0.8931,-0.9282,-0.9801,-1.0137,-1.0337,-1.0337,-1.007,-0.9743,-0.9335,-0.8615,-0.8018,-0.7657,-0.7277,-0.7028,-0.7028,-0.722,-0.7229,-0.7087,-0.7273,-0.7395,-0.745,-0.7826,-0.8136,-0.8451,-0.8877,-0.9032,-0.8934,-0.9174,-0.9103,-0.887,-0.9468,-0.9905,-1.0174,0.0,0.0,0.0,0.0,-1.0953,-1.1427,-1.1326,-1.1683,-1.215,-1.1858,-1.157,-1.1192,-1.0533,-1.0057,-0.9658,-0.9258,-0.913,-0.9109,-0.908,-0.8956,-0.8806,-0.8773,-0.8388,-0.804,-0.8115,-0.7914,-0.7707,-0.7578,-0.749,0.0,-0.6813,-0.6391,-0.6134,-0.6262,-0.6476,-0.6682,-0.6894,-0.7134,-0.7258,-0.7236,-0.7096,-0.6799,-0.6309,-0.6045,0.0,0.0,0.0,-0.5037,-0.4703,-0.4622,0.0,0.0,0.0,-0.4519,-0.4743,-0.5028,0.0,0.0,-0.3756,-0.3831,0.0,0.0,0.0,0.0,0.0,0.0,0.0,0.0,0.0,0.0,0.0,0.0,0.0,0.0,0.0,0.0,-1.0218,-1.0888,-1.1454,-1.1271,-1.1255,-1.1748,-1.1814,-1.1771,-1.1699,-1.0986,-1.0347,-0.9898,-0.9195,-0.86,-0.818,-0.8226,0.0,0.0,0.0,-0.8842,-0.881,-0.9231,-0.9351,-0.921,-0.9603,-0.9902,-1.0188,-1.0314,-1.0551,-1.0903,-1.1007,-1.1036,-1.1083,-1.1424,-1.1824,-1.2153,-1.1362,-1.1285,-1.1629,-1.1964,-1.2545,-1.3127,-1.2936,0.0,0.0,-1.3614,-1.3386,-1.3059,-1.2306,-1.1895,-1.1582,-1.1027,-1.0895,-1.0895,-1.0895,-1.0635,-1.0352,-1.0352,-0.9841,-0.9343,-0.9324,-0.9084,-0.8844,-0.8853,-0.8659,-0.8531,-0.8536,-0.7673,-0.7058,-0.731,-0.758,-0.7832,-0.7973,-0.8246,-0.8374,-0.8307,-0.8265,0.0,-0.7111,-0.6982,-0.664,-0.5876,-0.6022,-0.6067,-0.5954,-0.5969,-0.6108,-0.6364,-0.6408,-0.6637,-0.7084,-0.7302,-0.742,-0.746,-0.6109,-0.5648,0.0,0.0,0.0,0.0,0.0,0.0,0.0,0.0,0.0,0.0,0.0,0.0,0.0,0.0,0.0,-1.1193,-1.1963,-1.2714,-1.3504,-1.4228,-1.4139,-1.2672,-1.3291,-1.3563,-1.2877,-1.2378,-1.1763,-1.1032,-1.0205,-0.956,-0.9133,-0.8847,-0.8817,-0.9168,-0.9246,-0.9537,-1.0145,-1.0219,-1.0556,-1.1064,-1.1323,0.0,-1.2027,-1.2762,-1.3017,-1.2795,-1.3416,-1.3515,-1.3309,-1.3641,-1.4165,-1.4688,-1.3674,-1.3579,-1.3997,-1.3861,-1.3984,-1.4176,-1.397,-1.4311,-1.4783,-1.448,-1.4404,-1.4289,-1.345,-1.3049,0.0,-1.2219,-1.2082,-1.2082,-1.2082,-1.2023,-1.1968,-1.1968,-1.1666,-1.1383,-1.1274,-1.0841,-1.0428,-1.0303,-1.0046,-0.9852,-0.9908,-0.8908,-0.8106,-0.8159,-0.8577,-0.8979,-0.9215,-0.9489,-0.9596,-0.9487,-0.9275,-0.8804,-0.7947,-0.7578,-0.7182,-0.6687,-0.6805,-0.6882,-0.685,-0.6996,-0.7212,-0.7476,-0.7656,-0.7877,-0.8197,-0.8493,-0.8849,-0.9181,-0.7841,-0.7151,0.0,0.0,0.0,0.0,0.0,0.0,0.0,0.0,0.0,0.0,0.0,-0.7438,-0.9065,0.0,-1.1703,-1.3182,-1.3917,-1.4605,-1.5422,-1.6117,-1.5947,-1.4329,-1.4639,-1.4657,-1.3849,-1.2807,-1.1843,-1.1029,-1.0175,-0.9594,-0.9399,-0.9399,-0.9594,-0.998,-1.0408,-1.0919,-1.1507,-1.1884,-1.2412,-1.2996,-1.3325,-1.3678,-1.4054,-1.4535,-1.4741,-1.4719,-1.5094,-1.5137,-1.4959,-1.5122,-1.5513,-1.5936,-1.5416,-1.525,-1.5312,-1.4925,-1.4957,-1.5089,-1.4761,-1.4972,-1.5329,-1.5156,-1.5137,-1.5083,-1.4533,-1.4215,-1.3984,-1.3565,-1.3374,-1.3342,-1.3467,-1.3413,-1.3332,-1.3467,-1.3164,-1.2837,-1.2778,-1.2405,-1.2077,-1.2001,-1.1692,-1.1413,-1.1438,-1.0738,-1.0041,-0.9653,-0.9838,-1.0109,-1.0375,-1.0408,-1.0324,-1.0131,-0.9972,-0.9525,-0.8625,-0.8023,-0.761,-0.7407,-0.7533,-0.7687,-0.7896,-0.8127,-0.8519,-0.9088,-0.9197,-0.941,-0.9756,-1.0014,-1.0222,-1.0345,-0.9792,-0.9282,0.0,0.0,0.0,0.0,0.0,0.0,0.0,-0.5272,-0.5961,-0.7053,-0.8056,-0.9217,-1.0728,-1.2015,-1.3335,-1.4818,-1.5428,-1.5995,-1.6721,-1.7167,-1.7003,-1.5902,-1.5799,-1.5476,-1.4591,-1.3062,-1.1808,-1.0987,-1.018,-0.9726,-0.9747,-1.0097,-1.0486,-1.0949,-1.165,-1.2347,-1.2962,-1.3729,-1.4372,-1.4947,-1.5287,-1.5676,-1.6088,-1.6075,-1.6213,-1.6519,-1.6468,-1.6397,-1.6294,-1.6294,-1.6396,-1.6596,-1.6596,-1.6429,-1.6145,-1.5657,-1.568,-1.5835,-1.5368,-1.5359,-1.5601,-1.5601,-1.5601,-1.5553,-1.5292,-1.5083,-1.4907,-1.4642,-1.4498,-1.4489,-1.4744,-1.4772,-1.4766,-1.5037,-1.4721,-1.4386,-1.4386,-1.4132,-1.3884,-1.383,-1.3421,-1.3043,-1.295,-1.2565,-1.1987,-1.114,-1.0976,-1.1022,-1.1243,-1.1047,-1.0781,-1.0507,-1.0487,-1.0114,-0.9228,-0.854,-0.8143,-0.8147,-0.8298,-0.8555,-0.8916,-0.9243,-0.9781,-1.0571,-1.0681,-1.0924,-1.1292,-1.1444,-1.1453,-1.1347,-1.1528,-1.1174,-0.1953,-0.289,-0.3968,-0.5003,-0.5875,-0.673,0.0,-0.8294,-0.8884,-0.9556,-1.0449,-1.1399,-1.23,-1.3299,-1.4344,-1.5428,-1.5748,-1.6039,-1.6473,-1.7039,-1.7165,-1.6465,-1.6544,-1.6203,-1.5054,-1.3782,-1.2753,-1.2056,-1.1276,-1.091,-1.1062,-1.1146,-1.1495,-1.2269,-1.2385,-1.3155,-1.4695,-1.516,-1.5857,-1.6801,-1.7025,-1.7398,-1.7914,-1.7776,-1.7817,-1.7948,-1.785,-1.7606,-1.7335,-1.7335,-1.7174,-1.6942,-1.6942,-1.691,-1.6818,-1.6359,-1.6219,-1.618,-1.5703,-1.5572,-1.5601,-1.5601,-1.5601,-1.5553,-1.5292,-1.5172,-1.5126,-1.4912,-1.5057,-1.5322,-1.5586,-1.6089,-1.6592,-1.6858,-1.6866,-1.6807,-1.6807,-1.6365,-1.59,-1.5672,-1.5129,-1.4606,-1.4183,-1.3818,-1.3169,-1.1948,-1.1628,-1.1512,-1.1561,-1.1316,-1.1047,-1.0777,-1.0752,-1.048,-0.9776,-0.9313,-0.9061,-0.9064,-0.9299,-0.954,-0.9755,-1.0248,-1.0758,-1.1287,-1.1704,-1.2054,-1.2331,-1.2291,-1.2395,-1.2597,-1.2389,-1.1791,-0.4271,-0.5359,-0.6448,-0.7335,-0.8348,-0.9323,-1.0251,-1.0813,-1.1332,-1.2084,-1.2616,-1.3221,-1.4071,-1.4639,-1.5261,-1.6034,-1.6213,-1.6347,-1.6678,-1.674,-1.6683,-1.6413,-1.6023,-1.5587,-1.506,-1.3909,-1.2895,-1.2142,-1.1324,-1.1084,-1.1526,-1.1533,-1.1955,-1.2807,-1.3347,-1.4268,-1.5688,-1.6194,-1.6978,-1.7918,-1.7885,-1.8165,-1.8674,-1.8639,-1.8643,-1.8619,-1.8426,-1.8018,-1.7502,-1.7502,-1.7303,-1.7001,-1.7001,-1.7001,-1.6947,-1.6484,-1.6312,-1.6217,-1.5763,-1.5601,-1.5626,-1.5839,-1.5903,-1.5911,-1.5948,-1.5728,-1.5508,-1.5645,-1.554,-1.5598,-1.6402,-1.6822,-1.7241,-1.8063,-1.8247,-1.8297,-1.8489,-1.8165,-1.7736,-1.7481,-1.6772,-1.607,-1.5549,-1.496,-1.4324,-1.3628,-1.2798,-1.2196,-1.2093,-1.1829,-1.1561,-1.1292,-1.112,-1.0865,-1.0462,-1.0437,-1.0375,-1.025,-1.0648,-1.1036,-1.1401,-1.1771,-1.2254,-1.285,-1.3051,-1.3144,-1.3133,-1.3228,-1.3194,-1.3021,-1.3026,-1.2822,-0.6515,-0.7708,-0.8873,-0.9802,-1.0891,-1.1968,-1.2893,-1.3285,-1.3615,-1.4119,-1.4269,-1.4451,-1.4898,-1.515,-1.5485,-1.6027,-1.6104,-1.6155,-1.6267,-1.5995,-1.5734,-1.5548,-1.5075,-1.4718,-1.4565,-1.3707,-1.2908,-1.2223,-1.149,-1.1295,-1.1825,-1.1983,-1.2463,-1.3425,-1.4272,-1.5309,-1.6534,-1.7133,-1.7776,-1.8508,-1.8398,-1.8588,-1.9012,-1.9107,-1.9089,-1.8927,-1.8718,-1.8244,-1.7626,-1.7529,-1.7303,-1.7001,-1.7001,-1.7001,-1.6953,-1.6554,-1.6409,-1.6339,-1.586,-1.5723,-1.5742,-1.6014,-1.614,-1.6259,-1.6449,-1.6289,-1.6089,-1.624,-1.6143,-1.6229,-1.7246,-1.7783,-1.8318,-1.9347,-1.9667,-1.9769,-1.9935,-1.9684,-1.9264,-1.8811,-1.8103,-1.7397,-1.6782,-1.6045,-1.5415,-1.51,-1.4032,-1.3095,-1.2692,-1.226,-1.1956,-1.1829,-1.1663,-1.1497,-1.1432,-1.1608,-1.1684,-1.16,-1.196,-1.2412,-1.2876,-1.314,-1.3553,-1.4105,-1.4187,-1.4168,-1.4019,-1.4093,-1.3944,-1.3614,-1.3765,-1.3829,-0.8506,-0.9941,-1.1368,-1.259,-1.3734,-1.4786,-1.5692,-1.5907,-1.5808,-1.5438,-1.5207,-1.4907,-1.4343,-1.4397,-1.4664,-1.5084,-1.515,-1.5044,-1.4728,-1.4648,-1.4362,-1.3581,-1.3805,-1.3882,-1.3504,-1.3238,-1.2981,-1.2717,-1.2115,-1.1932,-1.2274,-1.2661,-1.3333,-1.4341,-1.5122,-1.6123,-1.735,-1.7965,-1.8336,-1.8508,-1.868,-1.8872,-1.9006,-1.9197,-1.9223,-1.909,-1.8731,-1.8372,-1.7975,-1.7626,-1.7303,-1.7001,-1.7001,-1.7001,-1.6974,-1.6769,-1.6683,-1.6613,-1.6133,-1.5996,-1.5988,-1.607,-1.6283,-1.6478,-1.6508,-1.6732,-1.6897,-1.6585,-1.6962,-1.7578,-1.8185,-1.929,-2.0364,-2.0974,-2.1328,-2.1451,-2.1208,-2.0891,-2.0372,-1.9445,-1.9045,-1.8559,-1.7708,-1.7067,-1.6496,-1.6024,-1.5206,-1.4286,-1.3305,-1.2481,-1.2102,-1.2346,-1.237,-1.2467,-1.2729,-1.2754,-1.2862,-1.311,-1.314,-1.3373,-1.3847,-1.4124,-1.4389,-1.4678,-1.4935,-1.5057,-1.5057,-1.4795,-1.4675,-1.4651,-1.4664,-1.4664,-0.9973,-1.1284,-1.2566,-1.3832,-1.5029,-1.6025,-1.6593,-1.6639,-1.6401,-1.5895,-1.5071,-1.4345,-1.4096,-1.3883,-1.3745,-1.3932,-1.3976,-1.3825,-1.3473,-1.3195,-1.2931,-1.2527,-1.2509,-1.2476,-1.2346,-1.2669,-1.2797,-1.2581,-1.1938,-1.1823,-1.253,-1.2698,-1.3382,-1.4764,-1.5578,-1.6573,-1.7802,-1.8227,-1.8592,-1.8883,-1.9162,-1.9236,-1.9208,-1.978,-1.9678,-1.9072,-1.8982,-1.8437,-1.7658,-1.7561,-1.7303,-1.7001,-1.7001,-1.7001,-1.6996,-1.692,-1.6888,-1.6824,-1.6355,-1.6188,-1.6243,-1.6543,-1.6848,-1.7154,-1.7398,-1.7537,-1.7613,-1.7736,-1.7918,-1.8298,-1.9113,-1.9946,-2.078,-2.1596,-2.1854,-2.1969,-2.2089,-2.1681,-2.1103,-2.0365,-1.9833,-1.9205,-1.8347,-1.7706,-1.705,-1.6309,-1.524,-1.4237,-1.3498,-1.3148,-1.3031,-1.3123,-1.3286,-1.3426,-1.3528,-1.3865,-1.41,-1.4201,-1.4361,-1.4603,-1.4948,-1.5038,-1.5214,-1.5419,-1.569,-1.5743,-1.5547,-1.5652,-1.5605,-1.5421,-1.5605,-1.57,-1.0932,-1.2286,-1.3545,-1.4729,-1.5909,-1.6822,-1.6957,-1.6805,-1.6363,-1.5437,-1.4412,-1.3528,-1.3121,-1.284,-1.2681,-1.2704,-1.2872,-1.2863,-1.2414,-1.2249,-1.2087,-1.1749,-1.1745,-1.175,-1.175,-1.2142,-1.2344,-1.2208,-1.1811,-1.1878,-1.2676,-1.3013,-1.3838,-1.519,-1.6267,-1.726,-1.8097,-1.8406,-1.8581,-1.867,-1.9097,-1.9244,-1.9128,-1.9602,-1.9486,-1.8918,-1.8629,-1.8141,-1.7502,-1.7368,-1.7201,-1.7001,-1.7001,-1.7001,-1.7007,-1.7136,-1.7168,-1.7114,-1.6602,-1.6441,-1.6523,-1.6917,-1.7261,-1.7637,-1.8129,-1.8351,-1.8467,-1.8671,-1.8982,-1.9362,-1.9843,-2.0607,-2.1328,-2.1683,-2.195,-2.2061,-2.196,-2.1684,-2.1238,-2.0505,-2.0156,-1.9728,-1.8954,-1.8414,-1.7809,-1.7055,-1.6145,-1.519,-1.4199,-1.3906,-1.3823,-1.3925,-1.4178,-1.4358,-1.443,-1.4849,-1.5142,-1.5231,-1.5404,-1.5618,-1.5872,-1.5896,-1.5944,-1.6086,-1.6265,-1.6312,-1.6234,-1.6393,-1.644,-1.6346,-1.6716,-1.688,-1.1427,-1.2936,-1.4313,-1.5341,-1.6426,-1.7163,-1.6816,-1.6474,-1.5744,-1.4142,-1.3234,-1.2438,-1.1396,-1.1333,-1.1442,-1.1459,-1.1903,-1.2083,-1.1558,-1.1746,-1.1783,-1.1248,-1.1472,-1.1679,-1.1679,-1.1686,-1.1693,-1.17,-1.1758,-1.2075,-1.2687,-1.3597,-1.4558,-1.5582,-1.7107,-1.7993,-1.823,-1.8403,-1.831,-1.7861,-1.8638,-1.894,-1.8804,-1.8832,-1.8728,-1.8539,-1.7825,-1.7502,-1.7432,-1.7136,-1.7001,-1.7001,-1.7001,-1.7001,-1.7039,-1.7368,-1.7502,-1.7437,-1.695,-1.6742,-1.6799,-1.7219,-1.7576,-1.7991,-1.8674,-1.9142,-1.9428,-1.943,-2.0136,-2.0808,-2.0483,-2.1285,-2.2021,-2.1385,-2.1634,-2.1795,-2.0895,-2.0944,-2.0892,-1.9998,-2.0083,-2.0124,-1.9513,-1.9156,-1.8768,-1.8229,-1.7867,-1.7049,-1.5406,-1.474,-1.4527,-1.476,-1.5011,-1.5261,-1.5462,-1.5706,-1.5967,-1.6237,-1.6261,-1.6362,-1.6636,-1.6629,-1.6629,-1.6629,-1.6652,-1.68,-1.705,-1.7073,-1.7183,-1.7396,-1.7916,-1.8156,-1.1979,-1.298,-1.3903,-1.5245,-1.6045,-1.638,-1.5993,-1.5296,-1.4325,-1.2804,-1.151,-1.053,-1.0054,-1.0194,-1.0453,-1.072,-1.1149,-1.1419,-1.1305,-1.134,-1.1344,-1.1234,-1.1265,-1.1334,-1.1334,-1.1406,-1.1519,-1.1636,-1.1645,-1.2081,-1.3092,-1.348,-1.425,-1.5539,-1.6305,-1.6777,-1.695,-1.7294,-1.7479,-1.7485,-1.8498,-1.894,-1.8804,-1.91,-1.8849,-1.8136,-1.769,-1.7368,-1.7104,-1.7039,-1.7001,-1.7001,-1.7001,-1.7001,-1.7039,-1.7368,-1.7658,-1.7835,-1.7708,-1.7499,-1.7369,-1.7808,-1.8336,-1.8914,-1.9683,-2.0474,-2.1135,-2.1395,-2.1846,-2.2127,-2.1809,-2.1927,-2.2023,-2.1594,-2.1221,-2.0927,-2.0665,-2.0676,-2.0621,-2.0191,-2.0197,-2.0174,-1.9773,-1.9626,-1.9361,-1.8769,-1.8454,-1.7803,-1.6523,-1.626,-1.6086,-1.5919,-1.6128,-1.6299,-1.6295,-1.6541,-1.68,-1.7021,-1.7021,-1.7044,-1.7122,-1.7122,-1.7122,-1.7122,-1.7317,-1.7551,-1.7807,-1.8017,-1.8218,-1.8427,-1.875,-1.8912,-1.1627,-1.2505,-1.3423,-1.4672,-1.5144,-1.519,-1.4727,-1.3842,-1.2689,-1.1162,-1.0066,-0.9252,-0.892,-0.9164,-0.9529,-0.9823,-1.0388,-1.0858,-1.0953,-1.1169,-1.1322,-1.1355,-1.1362,-1.1362,-1.1362,-1.144,-1.1552,-1.1665,-1.1775,-1.2209,-1.3083,-1.3437,-1.4022,-1.5041,-1.5536,-1.5851,-1.6019,-1.6473,-1.6755,-1.6815,-1.8112,-1.865,-1.8445,-1.8777,-1.8576,-1.7939,-1.7476,-1.7168,-1.7001,-1.7001,-1.7001,-1.7001,-1.7001,-1.7104,-1.7265,-1.7594,-1.8039,-1.8489,-1.8644,-1.8585,-1.8434,-1.8548,-1.8922,-1.9536,-2.073,-2.1594,-2.2267,-2.2863,-2.3177,-2.3164,-2.2535,-2.2129,-2.1674,-2.093,-2.0338,-1.9916,-1.9785,-1.9979,-2.022,-2.0401,-2.0444,-2.0472,-2.0416,-2.0302,-2.0087,-1.9738,-1.9329,-1.8881,-1.837,-1.7732,-1.7294,-1.7225,-1.7467,-1.7656,-1.7717,-1.7823,-1.7978,-1.8199,-1.8062,-1.7963,-1.7963,-1.7963,-1.7963,-1.7963,-1.811,-1.8319,-1.8589,-1.8727,-1.8935,-1.9166,-1.9402,-1.9517,-1.0924,-1.1826,-1.2912,-1.3808,-1.404,-1.3899,-1.3326,-1.2286,-1.1062,-0.956,-0.8873,-0.8395,-0.7971,-0.8328,-0.8744,-0.9003,-0.9702,-1.0341,-1.0611,-1.105,-1.1396,-1.1533,-1.1606,-1.1584,-1.1584,-1.1584,-1.1677,-1.1783,-1.1955,-1.2326,-1.287,-1.3341,-1.3803,-1.4276,-1.4791,-1.5137,-1.5157,-1.5738,-1.6098,-1.6219,-1.7661,-1.8234,-1.8091,-1.8259,-1.82,-1.7895,-1.732,-1.7055,-1.7055,-1.7055,-1.7082,-1.712,-1.7152,-1.7396,-1.7721,-1.807,-1.8638,-1.9249,-1.9564,-1.9711,-1.9673,-1.9392,-1.9543,-2.0086,-2.1729,-2.2529,-2.3088,-2.4041,-2.4225,-2.3968,-2.3037,-2.2165,-2.1235,-2.0051,-1.9348,-1.8906,-1.8674,-1.9113,-1.9749,-2.0477,-2.0617,-2.0744,-2.1039,-2.0828,-2.0659,-2.0644,-2.0197,-1.9952,-2.0221,-1.9078,-1.8309,-1.8535,-1.8793,-1.9041,-1.9282,-1.9222,-1.9288,-1.955,-1.9206,-1.8968,-1.8968,-1.8921,-1.8897,-1.8897,-1.8897,-1.9035,-1.9279,-1.9351,-1.9499,-1.9777,-1.9943,-2.0026,-1.1043,-1.1615,-1.2236,-1.3084,-1.3286,-1.308,-1.226,-1.1158,-0.9963,-0.882,-0.8029,-0.7508,-0.7436,-0.7977,-0.8509,-0.867,-0.9355,-0.9995,-1.0333,-1.0744,-1.109,-1.1399,-1.1541,-1.1584,-1.1584,-1.1584,-1.1677,-1.1783,-1.182,-1.2175,-1.2867,-1.3072,-1.3332,-1.3649,-1.3904,-1.4018,-1.3921,-1.4782,-1.5541,-1.6219,-1.7409,-1.8165,-1.8485,-1.8515,-1.8399,-1.8122,-1.7581,-1.7346,-1.7346,-1.7346,-1.7505,-1.7785,-1.7978,-1.8295,-1.8644,-1.9084,-1.949,-1.9849,-1.9959,-2.0195,-2.0418,-2.0354,-2.0569,-2.1085,-2.2496,-2.336,-2.4055,-2.5051,-2.4938,-2.4417,-2.3947,-2.2532,-2.0995,-2.0225,-1.9079,-1.8183,-1.8137,-1.8694,-1.9411,-2.013,-2.0294,-2.033,-2.0435,-2.04,-2.0373,-2.0378,-2.0277,-2.0298,-2.0505,-1.987,-1.9411,-1.9401,-1.9639,-1.9789,-1.9794,-1.995,-2.0184,-2.0465,-2.0096,-1.986,-1.986,-1.962,-1.9464,-1.9464,-1.9464,-1.9579,-1.9791,-2.0107,-2.0414,-2.0687,-2.071,-2.0733,-1.0623,-1.1265,-1.2086,-1.2664,-1.2584,-1.2193,-1.1384,-1.0158,-0.8915,-0.7838,-0.7181,-0.6783,-0.6783,-0.7246,-0.7738,-0.8115,-0.8777,-0.9409,-0.9975,-1.0464,-1.0907,-1.1271,-1.1477,-1.1691,-1.1907,-1.1907,-1.2042,-1.2408,-1.2418,-1.2483,-1.2571,-1.2658,-1.2779,-1.3034,-1.3059,-1.33,-1.3746,-1.4588,-1.5394,-1.6219,-1.7374,-1.8019,-1.8256,-1.831,-1.8264,-1.8144,-1.7725,-1.7556,-1.7556,-1.7789,-1.8084,-1.8394,-1.8747,-1.9195,-1.9717,-1.9949,-2.0235,-2.052,-2.0554,-2.0701,-2.0887,-2.1046,-2.1235,-2.1576,-2.2762,-2.3704,-2.4518,-2.5357,-2.5234,-2.4734,-2.4232,-2.2748,-2.1139,-2.0297,-1.9022,-1.8001,-1.8001,-1.8443,-1.8963,-1.9336,-1.9447,-1.948,-1.9566,-1.9686,-1.984,-1.9996,-2.004,-2.0131,-2.0362,-1.9981,-1.9923,-2.0522,-2.069,-2.0887,-2.1123,-2.1063,-2.1131,-2.1373,-2.0995,-2.0784,-2.0784,-2.0624,-2.0532,-2.0532,-2.0532,-2.0578,-2.0687,-2.0865,-2.1021,-2.1156,-2.1156,-2.1156,-1.0315,-1.1111,-1.2075,-1.2327,-1.2024,-1.1442,-1.058,-0.9295,-0.8039,-0.7047,-0.651,-0.6239,-0.6293,-0.66,-0.7043,-0.7628,-0.8194,-0.8787,-0.9501,-1.0147,-1.07,-1.1063,-1.1435,-1.1833,-1.2158,-1.2338,-1.26,-1.3016,-1.3162,-1.3037,-1.2574,-1.2554,-1.2594,-1.2738,-1.2761,-1.3142,-1.3904,-1.4786,-1.5603,-1.632,-1.7374,-1.7966,-1.8137,-1.8245,-1.8337,-1.8424,-1.8144,-1.8029,-1.8063,-1.8429,-1.8805,-1.9154,-1.961,-2.02,-2.0791,-2.0801,-2.0937,-2.1078,-2.1117,-2.1132,-2.1141,-2.1425,-2.1544,-2.1765,-2.2707,-2.3573,-2.4425,-2.5173,-2.5203,-2.4857,-2.4324,-2.306,-2.1605,-2.0291,-1.9022,-1.8098,-1.8033,-1.8204,-1.8397,-1.8532,-1.8568,-1.8626,-1.876,-1.8907,-1.9158,-1.9606,-1.9696,-1.9821,-2.0175,-1.999,-2.0214,-2.1217,-2.136,-2.1632,-2.2156,-2.19,-2.1827,-2.2053,-2.1628,-2.1365,-2.1365,-2.1264,-2.127,-2.1309,-2.1309,-2.1341,-2.1413,-2.149,-2.1533,-2.1533,-2.1533,-2.1533,-1.0614,-1.1316,-1.2011,-1.2038,-1.16,-1.0902,-0.9923,-0.8649,-0.7483,-0.6776,-0.6308,-0.6076,-0.6272,-0.6535,-0.6875,-0.7359,-0.7797,-0.829,-0.8906,-0.9649,-1.0305,-1.0711,-1.1458,-1.2034,-1.218,-1.2796,-1.3225,-1.3277,-1.3705,-1.3836,-1.3397,-1.3377,-1.3303,-1.3148,-1.3646,-1.3942,-1.3904,-1.5363,-1.628,-1.6664,-1.751,-1.8247,-1.8918,-1.8896,-1.9129,-1.946,-1.9175,-1.9067,-1.9101,-1.9437,-1.9805,-2.0203,-2.08,-2.1311,-2.1692,-2.1742,-2.1598,-2.1378,-2.1514,-2.1356,-2.1109,-2.1141,-2.1362,-2.1734,-2.2425,-2.2918,-2.3448,-2.4417,-2.4672,-2.4641,-2.4579,-2.3752,-2.2414,-2.0176,-1.9042,-1.8381,-1.8066,-1.7797,-1.7712,-1.8077,-1.8012,-1.8002,-1.8309,-1.8161,-1.8344,-1.9207,-1.9361,-1.9572,-2.0199,-2.0265,-2.038,-2.0744,-2.0947,-2.1287,-2.1902,-2.1848,-2.1934,-2.2248,-2.1619,-2.1213,-2.1213,-2.0874,-2.0789,-2.1029,-2.1053,-2.1174,-2.1413,-2.1764,-2.1944,-2.1944,-2.1944,-2.1944,-1.0794,-1.1504,-1.2067,-1.1675,-1.1106,-1.0291,-0.9082,-0.7978,-0.6987,-0.6257,-0.5922,-0.581,-0.5974,-0.625,-0.6603,-0.7031,-0.7404,-0.7848,-0.8452,-0.9128,-0.9796,-1.0374,-1.1085,-1.1902,-1.2824,-1.3466,-1.4171,-1.4995,-1.5318,-1.5423,-1.5246,-1.4367,-1.3934,-1.409,-1.4456,-1.4864,-1.5292,-1.632,-1.7168,-1.7726,-1.8288,-1.8848,-1.9367,-1.9367,-1.9436,-1.9605,-1.9507,-1.9571,-1.9784,-2.0158,-2.0675,-2.1258,-2.1681,-2.2104,-2.2469,-2.2494,-2.219,-2.1773,-2.1818,-2.1503,-2.1109,-2.1109,-2.1204,-2.1393,-2.1859,-2.2355,-2.2918,-2.3518,-2.3984,-2.4355,-2.4548,-2.4007,-2.2997,-2.1479,-2.0252,-1.9246,-1.8477,-1.7878,-1.7457,-1.7302,-1.718,-1.7145,-1.714,-1.7398,-1.7778,-1.8376,-1.8794,-1.9236,-1.9707,-1.9764,-1.9844,-2.0126,-2.0735,-2.1258,-2.1626,-2.1626,-2.1663,-2.1754,-2.1296,-2.1022,-2.1022,-2.1028,-2.1146,-2.142,-2.1594,-2.1818,-2.2123,-2.2277,-2.2354,-2.2354,-2.2354,-2.2354,-1.0651,-1.1256,-1.1713,-1.1153,-1.0423,-0.9542,-0.8361,-0.7379,-0.6541,-0.587,-0.5657,-0.5637,-0.5722,-0.6005,-0.6345,0.0,0.0,-0.7474,-0.8073,-0.8672,-0.9347,-1.015,-1.0891,-1.1884,-1.3263,-1.4336,-1.5382,-1.6452,-1.6734,-1.6776,-1.6673,-1.5628,-1.5074,-1.5207,-1.5417,-1.578,-1.6355,-1.7092,-1.7801,-1.8398,-1.8918,-1.9401,-1.993,-2.0028,-2.0133,-2.0237,-2.0237,-2.0382,-2.0631,-2.1012,-2.149,-2.1973,-2.2345,-2.2654,-2.2893,-2.2893,-2.2525,-2.1984,-2.1984,-2.1603,-2.1109,-2.1109,-2.1109,-2.1141,-2.1393,-2.1859,-2.2386,-2.2832,-2.3642,-2.4518,-2.4941,-2.4602,-2.3914,-2.281,-2.1612,-2.0354,-1.9118,-1.8194,-1.7511,-1.7026,-1.6806,-1.6712,-1.6739,-1.7116,-1.7546,-1.8102,-1.8559,-1.9008,-1.9343,-1.9395,-1.9482,-1.9649,-2.0335,-2.0937,-2.1253,-2.1181,-2.1101,-2.1039,-2.0718,-2.0537,-2.0539,-2.0806,-2.1139,-2.1573,-2.1852,-2.2182,-2.2594,-2.2594,-2.2594,-2.2594,-2.2594,-2.2594,-1.012,-1.0489,-1.0721,-1.0409,-0.9565,-0.8599,-0.7794,-0.6936,-0.6173,-0.5702,-0.561,-0.5607,-0.561,-0.5815,-0.6113,-0.6447,-0.6732,-0.7117,-0.7709,-0.8333,-0.9047,-0.9983,-1.0979,-1.2057,-1.3285,-1.54,-1.684,-1.7273,-1.7655,-1.7696,-1.7314,-1.7278,-1.6984,-1.6395,-1.6593,-1.6694,-1.6694,-1.7474,-1.8077,-1.8398,-1.9157,-1.9924,-2.07,-2.1041,-2.1386,-2.1766,-2.1766,-2.1766,-2.18,-2.2138,-2.2276,-2.2345,-2.2756,-2.2893,-2.2893,-2.2893,-2.2525,-2.1984,-2.1984,-2.1603,-2.1109,-2.1109,-2.1109,-2.1109,-2.1109,-2.1324,-2.1765,-2.2418,-2.3798,-2.5226,-2.5923,-2.5839,-2.5234,-2.3891,-2.281,-2.1605,-1.9954,-1.874,-1.791,-1.7561,-1.7047,-1.6878,-1.7467,-1.7425,-1.7635,-1.8633,-1.8798,-1.894,-1.9347,-1.9395,-1.9395,-1.9395,-1.9649,-2.0068,-2.0658,-2.0408,-2.022,-2.0197,-1.9896,-1.9707,-1.9713,-1.9957,-2.0498,-2.1292,-2.1573,-2.2004,-2.2594,-2.2594,-2.2594,-2.2594,-2.2594,-2.2594,-0.938,-0.977,-0.997,-0.93,-0.8565,-0.7813,-0.7132,-0.6455,-0.5896,-0.5658,-0.5525,-0.5498,-0.5586,-0.5745,-0.6006,-0.6426,-0.6641,-0.6983,-0.7584,-0.7979,-0.8694,-1.0008,-1.1957,-1.3628,-1.4781,-1.6136,-1.7201,-1.8002,-1.8153,-1.8188,-1.8047,-1.8047,-1.7727,-1.705,-1.7339,-1.751,-1.751,-1.8007,-1.8568,-1.9233,-1.9471,-2.0098,-2.1041,-2.1144,-2.1421,-2.18,-2.18,-2.1938,-2.2138,-2.2276,-2.2448,-2.2722,-2.2866,-2.2893,-2.2873,-2.2632,-2.2318,-2.1957,-2.179,-2.1436,-2.1109,-2.1109,-2.1109,-2.1141,-2.1355,-2.1513,-2.1828,-2.2981,-2.4324,-2.5541,-2.5984,-2.6205,-2.6061,-2.5173,-2.4007,-2.2716,-2.1265,-1.9973,-1.8938,-1.8372,-1.7886,-1.7613,-1.7671,-1.8013,-1.8376,-1.874,-1.8985,-1.9272,-1.9643,-1.9522,-1.9395,-1.9395,-1.9482,-1.9678,-2.004,-1.999,-1.9935,-1.9919,-1.9828,-1.9776,-1.9783,-2.0406,-2.0965,-2.136,-2.1854,-2.2272,-2.2594,-2.2594,-2.2594,-2.2594,-2.2594,-2.2594,-0.7882,-0.8329,-0.8463,-0.7873,-0.7295,-0.6764,-0.6291,-0.584,-0.5481,-0.5326,-0.5292,-0.5306,-0.5399,-0.5632,-0.5928,-0.6348,-0.6614,-0.6997,-0.7597,-0.7984,-0.8811,-1.0456,-1.2392,-1.4172,-1.5582,-1.657,-1.7425,-1.8229,-1.8408,-1.8365,-1.8135,-1.8129,-1.7965,-1.7607,-1.793,-1.8077,-1.8077,-1.8293,-1.8749,-1.9367,-1.9651,-2.0208,-2.1006,-2.1317,-2.1559,-2.18,-2.18,-2.1938,0.0,-2.2104,-2.2345,-2.2654,-2.2654,-2.2756,-2.286,-2.2532,-2.2231,-2.1977,-2.1689,-2.1388,-2.1109,-2.1109,-2.1204,-2.1355,-2.1828,-2.208,-2.2418,-2.3642,-2.4764,-2.5694,-2.6175,-2.654,-2.6579,-2.5794,-2.4764,-2.3604,-2.2278,-2.0931,-1.9775,-1.911,-1.8559,-1.8218,-1.8221,-1.8578,-1.896,-1.9279,-1.9511,-1.9719,-1.9914,-1.9806,-1.9693,-1.9693,-1.9811,-1.9911,-1.9971,-1.9878,-1.9764,-1.9646,-1.9752,-1.9846,-1.9978,-2.0619,-2.1217,-2.178,-2.2248,-2.2656,-2.3023,-2.3023,-2.3023,-2.3023,-2.3023,-2.3023,0.0,-0.6277,-0.6433,-0.6234,-0.5898,-0.5556,-0.5307,-0.5144,0.0,-0.4822,-0.496,-0.5107,-0.5116,-0.5485,-0.5905,-0.6262,-0.6665,-0.7136,-0.775,-0.8296,-0.9321,-1.1159,-1.2403,-1.3811,-1.5646,-1.6678,-1.7446,-1.8001,-1.8342,-1.8295,-1.7733,-1.7683,-1.7825,-1.8062,-1.8237,-1.8366,-1.8398,-1.8398,-1.8608,-1.9023,-1.9692,-2.0255,-2.0665,-2.1368,-2.1678,-2.1731,-2.1706,-2.1712,-2.1731,-2.1766,-2.1932,-2.2207,-2.2242,-2.2482,-2.2792,-2.2438,-2.2151,-2.1911,-2.163,-2.1343,-2.1109,-2.1109,-2.1324,-2.1765,-2.2393,-2.2856,-2.3393,-2.4363,-2.5142,-2.5817,-2.6457,-2.6852,-2.6861,-2.5917,-2.5173,-2.4301,-2.2981,-2.167,-2.0539,-1.9833,-1.9168,-1.8828,-1.911,-1.9206,-1.9439,-2.0132,-2.0229,-2.0242,-2.024,-2.0217,-2.0204,-2.0234,-2.05,-2.0632,-2.041,-2.0079,-1.9748,-1.9504,-1.9766,-2.0053,-2.0408,-2.0721,-2.1379,-2.2446,-2.2735,-2.3153,-2.3692,-2.3692,-2.3692,-2.3692,-2.3692,-2.37,-0.2959,0.0,-0.5197,-0.5097,-0.4923,-0.4758,0.0,-0.4694,-0.4697,-0.465,-0.4891,-0.5139,-0.5232,-0.5554,-0.5939,-0.6372,-0.6871,-0.7441,-0.8084,-0.9287,-1.0402,-1.1241,-1.2378,-1.3612,-1.4923,-1.5861,-1.673,-1.7585,-1.7803,-1.7844,-1.7723,-1.7683,-1.7744,-1.7803,-1.7823,-1.8027,-1.8398,-1.8398,-1.8608,-1.8988,-1.9163,-1.9587,-2.0249,-2.0208,-2.046,-2.0965,-2.0745,-2.0775,-2.0977,-2.1248,-2.138,-2.149,-2.1794,-2.1973,-2.1977,-2.1441,-2.1382,-2.1483,-2.1011,-2.0947,-2.1109,-2.1109,-2.1513,-2.2048,-2.248,-2.3199,-2.4015,-2.4764,-2.5656,-2.6396,-2.6571,-2.6852,-2.6982,-2.6488,-2.5847,-2.508,-2.3984,-2.2887,-2.1859,-2.0912,-2.0412,-2.0068,-1.9915,-2.0068,-2.0303,-2.0486,-2.0541,-2.0593,-2.0581,-2.0374,-2.0295,-2.056,-2.0651,-2.0895,-2.1329,-2.0891,-2.0523,-2.0401,-2.068,-2.1114,-2.1654,-2.218,-2.266,-2.3092,-2.3349,-2.3551,-2.3692,-2.3709,-2.3699,-2.3699,-2.37,-2.3692,-0.173,-0.2816,-0.3861,-0.3985,-0.4025,-0.4069,-0.4151,-0.4254,-0.4328,-0.4328,-0.4739,-0.5143,-0.5272,-0.5701,-0.6216,-0.677,-0.7292,-0.8002,-0.9053,-1.0239,-1.121,-1.1749,-1.2647,-1.3703,-1.4927,-1.5753,-1.6558,-1.7302,-1.7494,-1.7513,-1.7394,-1.7389,-1.7443,-1.7561,-1.7561,-1.7739,-1.807,-1.807,-1.8174,-1.8409,-1.8581,-1.8895,-1.9267,-1.9299,-1.9481,-1.9826,-1.979,-1.9895,-2.0043,-2.0328,-2.0555,-2.0688,-2.0796,-2.0947,-2.1056,-2.0641,-2.0598,-2.0731,-2.0631,-2.0824,-2.1129,-2.1269,-2.1692,-2.2201,-2.2669,-2.3388,-2.4212,-2.4904,-2.5717,-2.6419,-2.6571,-2.6852,-2.7012,-2.667,-2.6092,-2.5426,-2.4703,-2.3642,-2.2606,-2.1922,-2.1267,-2.0767,-2.0577,-2.0577,-2.064,-2.0799,-2.085,-2.0875,-2.0875,-2.0859,-2.0968,-2.1307,-2.1614,-2.201,-2.2532,-2.2423,-2.2112,-2.1596,-2.1735,-2.2116,-2.2711,-2.305,-2.3403,-2.3817,-2.4081,-2.4196,-2.4196,-2.4213,-2.4186,-2.4213,-2.4205,-2.4196,-0.1221,-0.1919,-0.261,-0.3036,-0.3326,-0.3557,-0.3755,0.0,0.0,0.0,0.0,-0.5215,-0.5373,-0.5932,-0.6595,-0.7261,-0.7975,-0.898,-1.0427,-1.1256,-1.1917,-1.248,-1.3085,-1.3941,-1.5129,-1.5914,-1.6554,-1.7089,-1.7254,-1.726,-1.7082,-1.7071,-1.7169,-1.7412,-1.7423,-1.7482,-1.7576,-1.7646,-1.7683,-1.7683,-1.8048,-1.8217,-1.8217,-1.8457,-1.8597,-1.8642,-1.8851,-1.8965,-1.9056,-1.9329,-1.9594,-1.986,-1.9696,-1.9823,-2.0061,-1.9831,-1.9817,-2.0008,-2.0451,-2.0857,-2.1223,-2.1502,-2.1835,-2.2249,-2.2779,-2.3365,-2.3998,-2.4611,-2.5402,-2.6106,-2.6449,-2.6731,-2.6882,-2.6601,-2.6061,-2.5519,-2.5173,-2.4139,-2.3137,-2.2762,-2.1922,-2.1235,-2.1204,-2.0887,-2.0767,-2.1046,-2.1109,-2.1109,-2.1172,-2.1481,-2.1828,-2.2205,-2.2856,-2.3399,-2.3795,-2.4089,-2.3929,-2.316,-2.2991,-2.3181,-2.3776,-2.3811,-2.4031,-2.4544,-2.4716,-2.4793,-2.4793,-2.4793,-2.4793,-2.4793,-2.4793,-2.4793,-0.0562,-0.1166,-0.1876,-0.2662,-0.3182,-0.3558,-0.3754,-0.4076,-0.438,0.0,-0.504,-0.5523,-0.5832,-0.6311,-0.6885,-0.7604,-0.9297,-1.0909,-1.201,-1.2513,-1.2858,-1.3136,-1.3558,-1.4135,-1.4905,-1.5622,-1.6282,-1.6806,-1.6999,-1.7179,-1.7405,-1.7438,-1.7454,-1.7493,-1.7493,-1.7342,-1.7114,-1.7518,-1.7683,-1.7683,-1.7751,-1.7785,-1.7779,-1.7685,-1.7706,-1.7847,-1.7717,-1.7886,-1.83,-1.8603,-1.8786,-1.8855,-1.9153,-1.918,-1.8989,-1.8744,-1.9033,-1.9656,-2.0355,-2.1021,-2.1529,-2.1569,-2.1977,-2.2427,-2.2302,-2.2701,-2.3268,-2.3388,-2.451,-2.5755,-2.6075,-2.6197,-2.6228,-2.6197,-2.587,-2.5519,-2.5173,-2.4479,-2.3759,-2.3137,-2.2449,-2.1859,-2.1576,-2.1267,-2.1046,-2.1077,-2.1109,-2.1204,-2.1488,-2.1828,-2.2268,-2.2894,-2.3549,-2.4209,-2.4817,-2.4905,-2.5109,-2.5449,-2.4742,-2.4546,-2.5164,-2.5141,-2.5142,-2.5227,-2.4956,-2.4793,-2.4793,-2.4793,-2.4793,-2.4793,-2.4793,-2.4793,-0.041,-0.102,-0.1754,-0.2541,-0.3119,-0.3631,-0.4162,-0.4491,-0.4784,-0.516,-0.5642,-0.6081,-0.6426,-0.6875,-0.7589,-0.8829,-1.0741,-1.2328,-1.3,-1.3701,-1.4133,-1.4166,-1.4606,-1.5048,-1.5346,-1.6013,-1.6542,-1.6772,-1.6907,-1.7136,-1.7464,-1.7502,-1.7502,-1.7502,-1.7502,-1.7335,-1.7001,-1.7222,-1.7335,-1.7335,-1.7335,-1.7335,-1.733,-1.7227,-1.7233,-1.7335,-1.7367,-1.7502,-1.7751,-1.8005,-1.8122,-1.8111,-1.8188,-1.8134,-1.8039,-1.8138,-1.8762,-1.9641,-2.0316,-2.1025,-2.1636,-2.195,-2.221,-2.243,-2.2329,-2.2526,-2.2784,-2.2805,-2.3767,-2.4857,-2.5187,-2.5433,-2.5564,-2.5564,-2.5288,-2.5011,-2.4857,-2.4293,-2.3736,-2.3425,-2.2675,-2.2048,-2.1891,-2.145,-2.1109,-2.1109,-2.1267,-2.1481,-2.1828,-2.2324,-2.2981,-2.3829,-2.4355,-2.498,-2.5839,-2.5904,-2.5851,-2.5725,-2.5445,-2.544,-2.571,-2.5517,-2.5397,-2.5397,-2.5009,-2.4793,-2.4793,-2.4793,-2.4793,-2.4793,-2.4793,-2.4924,-0.041,-0.1026,-0.1757,-0.2512,-0.3189,-0.3888,-0.4701,-0.506,-0.5359,-0.5905,-0.6362,-0.6745,-0.7059,-0.7604,-0.8524,-1.0068,-1.1896,-1.3296,-1.3816,-1.4729,-1.5305,-1.5168,-1.5616,-1.5922,-1.5972,-1.6471,-1.6807,-1.6853,-1.6946,-1.7136,-1.7464,-1.7502,-1.7502,-1.7502,-1.7502,-1.7335,-1.7001,-1.7001,-1.7001,-1.7001,-1.7001,-1.7001,-1.7001,-1.7001,-1.7001,-1.7017,-1.7211,-1.7324,-1.7427,-1.7566,-1.7642,-1.762,-1.7448,-1.7412,-1.7467,-1.7952,-1.8778,-1.971,-2.0386,-2.1078,-2.177,-2.2251,-2.2385,-2.2398,-2.2401,-2.2331,-2.2291,-2.236,-2.2918,-2.3642,-2.4232,-2.4548,-2.4764,-2.4764,-2.4479,-2.4263,-2.4263,-2.3767,-2.3355,-2.3355,-2.2606,-2.1985,-2.1985,-2.1481,-2.1109,-2.1109,-2.1393,-2.1765,-2.2167,-2.2793,-2.3611,-2.461,-2.5103,-2.5717,-2.664,-2.6731,-2.6486,-2.5919,-2.6061,-2.6179,-2.6179,-2.584,-2.562,-2.5534,-2.5138,-2.4949,-2.4949,-2.4949,-2.4992,-2.5058,-2.5058,-2.5232,-0.041,-0.0994,-0.1698,-0.25,-0.3469,-0.4454,-0.5262,-0.5782,-0.6275,-0.6886,-0.723,-0.7479,-0.7688,-0.8578,-0.9667,-1.0826,-1.2387,-1.3763,-1.4612,-1.5457,-1.6004,-1.5944,-1.611,-1.6298,-1.6448,-1.6647,-1.6843,-1.6985,-1.698,-1.7136,-1.7464,-1.7502,-1.7502,-1.7502,-1.7502,-1.7335,-1.7001,-1.7001,-1.7001,-1.7001,-1.7001,-1.7001,-1.7001,-1.7001,-1.7001,-1.7001,-1.7023,-1.7163,-1.7411,-1.7427,-1.7405,-1.7433,-1.7416,-1.744,-1.7589,-1.8287,-1.9008,-1.9742,-2.0638,-2.1404,-2.2004,-2.2318,-2.2385,-2.2365,-2.2104,-2.1862,-2.1678,-2.1665,-2.1734,-2.208,-2.3324,-2.3704,-2.3704,-2.3704,-2.3456,-2.3206,-2.3206,-2.2926,-2.2668,-2.2668,-2.2111,-2.1639,-2.1639,-2.1324,-2.1109,-2.1109,-2.1393,-2.1828,-2.2487,-2.3137,-2.3953,-2.4957,-2.5647,-2.6327,-2.7012,-2.7073,-2.7056,-2.6996,-2.6996,-2.7017,-2.7017,-2.664,-2.6242,-2.5879,-2.5523,-2.5354,-2.5354,-2.5354,-2.5515,-2.5828,-2.5828,-2.5845,-0.041,-0.0993,-0.1717,-0.2605,-0.3506,-0.4421,-0.535,-0.5934,-0.6469,-0.7155,-0.7369,-0.7519,-0.7765,-0.8528,-0.9479,-1.0489,-1.2038,-1.3474,-1.4433,-1.5467,-1.6195,-1.6305,-1.6572,-1.6751,-1.6823,-1.6892,-1.6935,-1.7012,-1.7001,-1.7136,-1.7464,-1.7385,-1.7296,-1.7296,-1.7152,-1.6885,-1.6576,-1.6576,-1.6576,-1.6581,-1.6867,-1.7001,-1.7001,-1.7001,-1.7001,-1.7001,-1.7001,-1.706,-1.7147,-1.7147,-1.7147,-1.7179,-1.738,-1.7488,-1.7599,-1.8565,-1.92,-1.9742,-2.067,-2.145,-2.2004,-2.2111,-2.2271,-2.2331,-2.189,-2.1669,-2.1554,-2.1355,-2.145,-2.1765,-2.2487,-2.2668,-2.2668,-2.2668,-2.2574,-2.2487,-2.2487,-2.2393,-2.2292,-2.2292,-2.1922,-2.1607,-2.1607,-2.133,-2.1109,-2.1109,-2.1544,-2.208,-2.2543,-2.3206,-2.3984,-2.498,-2.59,-2.651,-2.6761,-2.6982,-2.7103,-2.7103,-2.7103,-2.7103,-2.7103,-2.6696,-2.6422,-2.6285,-2.5908,-2.57,-2.57,-2.57,-2.5768,-2.5905,-2.5905,-2.6033,-0.0562,-0.1056,-0.1689,-0.2637,0.0,-0.425,-0.5203,-0.5865,-0.6454,-0.7168,-0.7399,-0.7562,-0.774,-0.8484,-0.936,-1.026,-1.1706,-1.3055,-1.4006,-1.5138,-1.5951,-1.6078,-1.6544,-1.6845,-1.6845,-1.6942,-1.7001,-1.7001,-1.6937,-1.6995,-1.7226,-1.7027,-1.6921,-1.6921,-1.673,-1.6524,-1.6312,-1.6312,-1.6312,-1.6286,-1.6635,-1.6824,-1.6899,-1.6969,-1.7001,-1.7001,-1.7001,-1.7001,-1.7001,-1.7001,-1.7001,-1.7034,-1.7368,-1.7631,-1.7954,-1.8912,-1.9552,-2.0036,-2.1025,-2.1644,-2.206,-2.2246,-2.2322,-2.2236,-2.1865,-2.1619,-2.1402,-2.1162,-2.1267,-2.1481,-2.1734,-2.1859,-2.1954,-2.1954,-2.1859,-2.1765,-2.1765,-2.1765,-2.1765,-2.1765,-2.1607,-2.145,-2.145,-2.1267,-2.1109,-2.1109,-2.1576,-2.2041,-2.2393,-2.3019,-2.3829,-2.4826,-2.5747,-2.6275,-2.6275,-2.67,-2.6943,-2.6943,-2.7043,-2.7103,-2.7103,-2.6846,-2.664,-2.6491,-2.6242,-2.6085,-2.6085,-2.6085,-2.6145,-2.6273,-2.6273,-2.6431,-0.0896,-0.1198,-0.1639,-0.2565,-0.3296,-0.4021,-0.4813,-0.5624,-0.6362,-0.6974,-0.7421,-0.7701,-0.7701,-0.8527,-0.9461,-1.0249,-1.1436,-1.2574,-1.3469,-1.4507,-1.5189,-1.5194,-1.5966,-1.6494,-1.6494,-1.6812,-1.6996,-1.6996,-1.6818,-1.6694,-1.6694,-1.6441,-1.6312,-1.6312,-1.6276,-1.6276,-1.6276,-1.6276,-1.6276,-1.6276,-1.6307,-1.6436,-1.6705,-1.6899,-1.7001,-1.7001,-1.7001,-1.7001,-1.7001,-1.7001,-1.7001,-1.7039,-1.7368,-1.796,-1.8699,-1.936,-2.003,-2.0743,-2.1764,-2.2091,-2.221,-2.2793,-2.2591,-2.2098,-2.2091,-2.163,-2.1109,-2.1109,-2.1109,-2.1109,-2.1109,-2.1362,-2.1607,-2.1607,-2.1324,-2.1109,-2.1109,-2.1109,-2.1109,-2.1109,-2.1109,-2.1109,-2.1109,-2.1109,-2.1109,-2.1109,-2.1393,-2.1734,-2.2048,-2.2675,-2.3487,-2.4487,-2.5203,-2.558,-2.558,-2.6214,-2.6601,-2.6601,-2.6921,-2.7103,-2.7103,-2.7103,-2.6923,-2.6499,-2.652,-2.652,-2.652,-2.652,-2.6726,-2.7103,-2.7103,-2.7103,-0.138,-0.1717,-0.2147,-0.2886,-0.3481,-0.404,-0.4707,-0.5454,-0.6127,-0.6576,-0.6864,-0.7033,-0.719,-0.7841,-0.8604,-0.9422,-1.0439,-1.1443,-1.2418,-1.323,-1.3951,-1.4545,-1.5248,-1.5756,-1.5982,-1.6297,-1.6517,-1.6517,-1.6457,-1.642,-1.642,-1.6219,-1.609,-1.609,-1.5898,-1.5811,-1.5811,-1.5811,-1.5811,-1.5811,-1.6009,-1.63,-1.6699,-1.6764,-1.6882,-1.6996,-1.6866,-1.6856,-1.7001,-1.7001,-1.7136,-1.74,-1.7717,-1.8302,-1.9046,-1.9973,-2.057,-2.1059,-2.1837,-2.2264,-2.2424,-2.2394,-2.2244,-2.2057,-2.1813,-2.1429,-2.1109,-2.1109,-2.1109,-2.1109,-2.1109,-2.1172,-2.1267,-2.1267,-2.1172,-2.1109,-2.1109,-2.1109,-2.1109,-2.1109,-2.1109,-2.1109,-2.1109,-2.1109,-2.1109,-2.1109,-2.1393,-2.1734,-2.2048,-2.2487,-2.295,-2.3479,-2.4139,-2.4734,-2.5203,-2.5664,-2.6092,-2.6571,-2.6692,-2.6852,-2.7103,-2.7103,-2.7052,-2.6932,-2.6932,-2.6932,-2.6932,-2.6932,-2.6992,-2.7103,-2.6852,-2.6761,-0.1983,-0.2258,-0.2612,-0.3311,-0.3779,-0.427,-0.5015,-0.5485,-0.5807,-0.6085,-0.6425,-0.6701,-0.686,-0.7578,-0.8353,-0.8993,-0.9827,-1.0655,-1.1399,-1.2214,-1.2961,-1.3616,-1.4536,-1.5234,-1.5556,-1.6027,-1.6312,-1.6312,-1.6226,-1.6167,-1.6167,-1.5971,-1.5836,-1.5836,-1.558,-1.5475,-1.5601,-1.5475,-1.5475,-1.5601,-1.5771,-1.6041,-1.6413,-1.651,-1.6603,-1.6721,-1.6581,-1.6603,-1.6727,-1.6886,-1.7099,-1.7443,-1.805,-1.8784,-1.9609,-2.0475,-2.1172,-2.1765,-2.2299,-2.264,-2.28,-2.2701,-2.2426,-2.207,-2.1852,-2.1481,-2.1109,-2.1109,-2.1109,-2.1109,-2.1109,-2.1109,-2.1109,-2.1109,-2.1109,-2.1109,-2.1109,-2.1109,-2.1109,-2.1109,-2.1109,-2.1109,-2.1109,-2.1109,-2.1141,-2.1267,-2.1481,-2.1734,-2.2048,-2.2174,-2.2331,-2.2668,-2.3175,-2.3736,-2.4263,-2.4857,-2.548,-2.6153,-2.6449,-2.6761,-2.7073,-2.7103,-2.7103,-2.7103,-2.7103,-2.7103,-2.7103,-2.7103,-2.7043,-2.6882,-2.6692,-2.6457,-0.2632,-0.2823,-0.3051,-0.3748,-0.419,-0.4687,-0.5644,-0.5764,-0.5666,-0.5681,-0.617,-0.6639,-0.6737,-0.7645,-0.8471,-0.8845,-0.9552,-1.0151,-1.0506,-1.1349,-1.2106,-1.251,-1.3809,-1.4832,-1.521,-1.584,-1.6242,-1.619,-1.6041,-1.5906,-1.5915,-1.568,-1.5531,-1.5531,-1.5298,-1.5292,-1.5561,-1.5322,-1.5361,-1.5653,-1.5653,-1.5777,-1.6046,-1.6197,-1.628,-1.6316,-1.6363,-1.6394,-1.6373,-1.6698,-1.7029,-1.7441,-1.8397,-1.9373,-2.0335,-2.0976,-2.1859,-2.2769,-2.3082,-2.3206,-2.3269,-2.3518,-2.2957,-2.2174,-2.2111,-2.1639,-2.1141,-2.1109,-2.1109,-2.1109,-2.1109,-2.1109,-2.1109,-2.1109,-2.1109,-2.1109,-2.1109,-2.1109,-2.1109,-2.1109,-2.1109,-2.1109,-2.1109,-2.1109,-2.1204,-2.1544,-2.1607,-2.1702,-2.2017,-2.1765,-2.167,-2.2017,-2.2331,-2.2668,-2.3074,-2.3953,-2.4764,-2.5519,-2.6153,-2.667,-2.7043,-2.7073,-2.7103,-2.7103,-2.7103,-2.7103,-2.7103,-2.7103,-2.6921,-2.6601,-2.654,-2.6153,-0.3118,-0.3332,-0.3533,-0.4007,-0.4854,-0.5676,-0.6155,-0.6573,-0.6745,-0.6367,-0.6433,-0.6676,-0.7229,-0.7737,-0.8273,-0.8797,-0.9263,-0.9662,-1.0011,-1.0565,-1.1226,-1.2035,-1.3213,-1.4153,-1.4701,-1.5362,-1.5647,-1.5464,-1.54,-1.5287,-1.5151,-1.5092,-1.5036,-1.5036,-1.4988,-1.5102,-1.5356,-1.5307,-1.5515,-1.5985,-1.5985,-1.6143,-1.6391,-1.6156,-1.6179,-1.6403,-1.6879,-1.6973,-1.6793,-1.7094,-1.7663,-1.8429,-1.8899,-1.9996,-2.1355,-2.2041,-2.2918,-2.3798,-2.386,-2.4046,-2.4201,-2.3767,-2.3269,-2.2801,-2.2268,-2.1828,-2.145,-2.1172,-2.1109,-2.1109,-2.1109,-2.1109,-2.1109,-2.1109,-2.1109,-2.1109,-2.1109,-2.1109,-2.1109,-2.1109,-2.1109,-2.1109,-2.1109,-2.1109,-2.1204,-2.1544,-2.1607,-2.1639,-2.1702,-2.1418,-2.133,-2.167,-2.1765,-2.2167,-2.3019,-2.3293,-2.3922,-2.5142,-2.5602,-2.6092,-2.667,-2.6952,-2.7103,-2.7103,-2.7103,-2.7103,-2.7103,-2.7103,-2.6921,-2.6579,-2.6061,-2.5449,-0.3286,-0.3495,-0.3785,-0.4584,-0.5467,-0.6246,-0.6676,-0.711,-0.7321,-0.7066,-0.708,-0.7301,-0.7822,-0.8249,-0.8638,-0.8957,-0.9269,-0.9498,-0.9559,-1.0069,-1.0753,-1.1512,-1.2682,-1.3654,-1.4249,-1.4879,-1.5208,-1.5056,-1.5045,-1.502,-1.4919,-1.4914,-1.497,-1.5084,-1.5003,-1.5193,-1.5727,-1.5613,-1.5822,-1.6331,-1.6331,-1.6402,-1.6535,-1.632,-1.6403,-1.6707,-1.7025,-1.7182,-1.722,-1.7475,-1.7961,-1.8588,-1.9395,-2.0425,-2.1503,-2.2493,-2.3355,-2.4108,-2.4263,-2.4456,-2.4548,-2.4201,-2.3642,-2.3019,-2.2675,-2.2111,-2.1544,-2.1387,-2.1235,-2.1109,-2.1109,-2.1109,-2.1109,-2.1109,-2.1109,-2.1109,-2.1109,-2.1109,-2.1109,-2.1109,-2.1109,-2.1109,-2.1109,-2.1355,-2.1639,-2.1796,-2.1828,-2.1828,-2.1828,-2.1425,-2.1172,-2.1324,-2.1362,-2.1639,-2.2324,-2.2675,-2.3355,-2.4548,-2.508,-2.5725,-2.6579,-2.6761,-2.6952,-2.7103,-2.7103,-2.7012,-2.6852,-2.6852,-2.6518,-2.587,-2.551,-2.4826,-0.3251,-0.3542,-0.4024,-0.5146,-0.596,-0.6639,-0.7151,-0.7532,-0.7779,-0.7809,-0.7829,-0.7948,-0.834,-0.875,-0.9063,-0.9119,-0.937,-0.9489,-0.9269,-0.9859,-1.0545,-1.1175,-1.2298,-1.3269,-1.393,-1.4489,-1.4836,-1.4826,-1.4821,-1.4833,-1.4795,-1.4795,-1.4902,-1.5154,-1.5049,-1.5375,-1.6126,-1.5975,-1.6164,-1.6677,-1.6726,-1.6718,-1.6671,-1.6629,-1.6745,-1.7003,-1.7056,-1.7238,-1.7508,-1.7736,-1.8073,-1.8507,-1.9728,-2.0689,-2.1513,-2.2678,-2.3549,-2.4232,-2.4448,-2.4548,-2.4579,-2.4487,-2.3791,-2.2994,-2.2901,-2.219,-2.1438,-2.1375,-2.1164,-2.0951,-2.1014,-2.1014,-2.1014,-2.1077,-2.1109,-2.1109,-2.1109,-2.1109,-2.1109,-2.1109,-2.1109,-2.1109,-2.1109,-2.1607,-2.2017,-2.2017,-2.2017,-2.2017,-2.2017,-2.1488,-2.1109,-2.1109,-2.1109,-2.1235,-2.1576,-2.2111,-2.2885,-2.3943,-2.4634,-2.5445,-2.6397,-2.658,-2.6798,-2.7012,-2.7012,-2.6882,-2.6601,-2.6479,-2.597,-2.5111,-2.4919,-2.417,-0.303,-0.3754,-0.4552,-0.531,-0.6207,-0.7027,-0.7463,-0.7965,-0.8433,-0.8676,-0.8322,-0.8073,-0.8355,-0.863,-0.8938,-0.924,-0.9319,-0.9367,-0.9446,-0.994,-1.0576,-1.129,-1.2128,-1.3008,-1.3902,-1.4347,-1.4541,-1.4539,-1.4551,-1.447,-1.4299,-1.4288,-1.4418,-1.4706,-1.4888,-1.5292,-1.594,-1.6151,-1.6489,-1.7041,-1.728,-1.7266,-1.7039,-1.7026,-1.7016,-1.702,-1.7309,-1.7449,-1.7514,-1.7537,-1.805,-1.8896,-1.96,-2.0767,-2.2153,-2.2841,-2.3704,-2.4518,-2.4263,-2.4363,-2.4518,-2.3922,-2.3293,-2.2635,-2.2058,-2.1379,-2.0766,-2.0455,-2.0294,-2.0297,-2.0577,-2.0672,-2.0729,-2.1014,-2.1109,-2.1109,-2.1109,-2.1109,-2.1109,-2.1109,-2.1109,-2.1109,-2.1109,-2.1418,-2.167,-2.167,-2.167,-2.167,-2.167,-2.133,-2.1109,-2.1109,-2.1109,-2.1235,-2.1576,-2.167,-2.2286,-2.3579,-2.429,-2.4991,-2.5689,-2.6562,-2.6907,-2.667,-2.667,-2.6631,-2.6601,-2.6031,-2.5519,-2.508,-2.4201,-2.3386,-0.2886,-0.3708,-0.4567,-0.5265,-0.6116,-0.6894,-0.7375,-0.7798,-0.8184,-0.8442,-0.848,-0.8641,-0.9231,-0.9448,-0.9634,-0.9925,-0.9847,-0.9714,-0.9633,-0.9815,-1.016,-1.0667,-1.1542,-1.2398,-1.3143,-1.3725,-1.4061,-1.4099,-1.411,-1.4008,-1.383,-1.395,-1.4154,-1.443,-1.4853,-1.5321,-1.5885,-1.6175,-1.6581,-1.7147,-1.7247,-1.7303,-1.7374,-1.72,-1.7097,-1.713,-1.7267,-1.7496,-1.7782,-1.7782,-1.8119,-1.869,-1.933,-1.9993,-2.0772,-2.1892,-2.2595,-2.2995,-2.3203,-2.3362,-2.3393,-2.2918,-2.236,-2.1789,-2.1519,-2.0849,-2.0209,-2.0188,-2.0044,-1.9991,-2.0468,-2.0609,-2.0672,-2.1014,-2.1109,-2.1109,-2.1109,-2.1109,-2.1109,-2.1109,-2.1109,-2.1109,-2.1109,-2.1393,-2.1607,-2.1607,-2.1607,-2.1607,-2.1607,-2.1299,-2.1109,-2.1109,-2.1109,-2.1172,-2.1299,-2.167,-2.221,-2.2982,-2.3796,-2.467,-2.5548,-2.6195,-2.6647,-2.689,-2.671,-2.6427,-2.6031,-2.5357,-2.4672,-2.3953,-2.3331,-2.2675,-0.2729,-0.3551,-0.4408,-0.5137,-0.5895,-0.6594,-0.71,-0.7428,-0.7722,-0.8032,-0.8434,-0.8973,-0.9717,-0.9957,-1.0151,-1.0429,-1.0305,-1.009,-0.988,-0.9862,-0.9982,-1.0364,-1.1063,-1.1802,-1.2518,-1.31,-1.3529,-1.3802,-1.3838,-1.3788,-1.3685,-1.3859,-1.4114,-1.4384,-1.4923,-1.543,-1.591,-1.6237,-1.6625,-1.7066,-1.7022,-1.7088,-1.7257,-1.7022,-1.6902,-1.6866,-1.6938,-1.7197,-1.7565,-1.7548,-1.7697,-1.8025,-1.8642,-1.9043,-1.943,-2.0642,-2.12,-2.1412,-2.1758,-2.1904,-2.1842,-2.1524,-2.0978,-2.0475,-2.0475,-1.9879,-1.9258,-1.9508,-1.9449,-1.9481,-2.0176,-2.0418,-2.0577,-2.1014,-2.1109,-2.1109,-2.1109,-2.1109,-2.1109,-2.1109,-2.1109,-2.1109,-2.1109,-2.1299,-2.1481,-2.1481,-2.1481,-2.1481,-2.1481,-2.1267,-2.1109,-2.1109,-2.1109,-2.1077,-2.0982,-2.1479,-2.1964,-2.2298,-2.3207,-2.4196,-2.5147,-2.5794,-2.6307,-2.6699,-2.6549,-2.6182,-2.561,-2.4764,-2.3922,-2.3074,-2.2581,-2.208,-0.2468,-0.331,-0.4192,-0.4936,-0.5572,-0.6155,-0.6634,-0.6941,-0.7258,-0.7724,-0.8237,-0.8728,-0.9095,-0.961,-1.0098,-1.0369,-1.0394,-1.036,-1.0272,-1.0272,-1.0438,-1.0893,-1.0997,-1.1443,-1.2503,-1.2621,-1.2987,-1.3835,-1.3887,-1.3972,-1.4143,-1.4168,-1.4327,-1.4669,-1.519,-1.562,-1.591,-1.6406,-1.6688,-1.6727,-1.6715,-1.6591,-1.6372,-1.6343,-1.6211,-1.598,-1.6231,-1.6363,-1.6365,-1.6333,-1.6495,-1.6836,-1.7321,-1.8093,-1.8969,-1.9287,-1.9822,-2.0332,-2.0041,-1.9963,-1.9896,-1.9615,-1.9089,-1.8567,-1.8567,-1.8088,-1.7563,-1.7854,-1.8102,-1.8476,-1.9414,-1.9877,-2.0297,-2.0951,-2.1109,-2.1109,-2.1109,-2.1109,-2.1109,-2.1109,-2.1109,-2.1109,-2.1109,-2.1109,-2.1141,-2.1141,-2.1141,-2.1141,-2.1141,-2.1109,-2.1109,-2.1109,-2.1109,-2.0982,-2.064,-2.0902,-2.1215,-2.1556,-2.2504,-2.3369,-2.4035,-2.5393,-2.5972,-2.5675,-2.598,-2.5957,-2.561,-2.4293,-2.3456,-2.3082,-2.2111,-2.1639,-0.2373,-0.3193,-0.4003,-0.458,-0.5176,-0.5709,-0.6044,-0.643,-0.6836,-0.7268,-0.7744,-0.8232,-0.87,-0.9375,-0.9919,-1.0061,-0.9925,-0.9808,-0.9781,-0.9745,-0.9845,-1.02,-1.0721,-1.1355,-1.2066,-1.2736,-1.3252,-1.3607,-1.3953,-1.4098,-1.4018,-1.4159,-1.4312,-1.4435,-1.4955,-1.5418,-1.5831,-1.6025,-1.6239,-1.6451,-1.6451,-1.6477,-1.6545,-1.6214,-1.6074,-1.6109,-1.5482,-1.553,-1.6032,-1.5786,-1.596,-1.6391,-1.6547,-1.692,-1.7417,-1.7895,-1.8234,-1.8463,-1.8484,-1.8515,-1.8453,-1.8153,-1.7784,-1.7445,-1.7445,-1.7153,-1.6909,-1.7366,-1.77,-1.8206,-1.9301,-1.9845,-2.0265,-2.0951,-2.1109,-2.1109,-2.1109,-2.1109,-2.1109,-2.1109,-2.1109,-2.1109,-2.1109,-2.1109,-2.1109,-2.1109,-2.1109,-2.1109,-2.1109,-2.1109,-2.1109,-2.1109,-2.1109,-2.1024,-2.0863,-2.1104,-2.1199,-2.1053,-2.1997,-2.2733,-2.3201,-2.4423,-2.5202,-2.5527,-2.5905,-2.573,-2.4957,-2.4046,-2.3206,-2.2449,-2.1859,-2.1488,-0.2226,-0.3013,-0.3782,-0.4279,-0.4788,-0.5229,-0.5508,-0.5888,-0.6294,-0.6602,-0.715,-0.7658,-0.7934,-0.8598,-0.9223,-0.9615,-0.9581,-0.9465,-0.9368,-0.9472,-0.9668,-0.999,-1.0704,-1.144,-1.2133,-1.2861,-1.3438,-1.3741,-1.4098,-1.4296,-1.4304,-1.4472,-1.461,-1.4705,-1.5046,-1.541,-1.5808,-1.5808,-1.5901,-1.6126,-1.6126,-1.6226,-1.6388,-1.6049,-1.5947,-1.5973,-1.5041,-1.5009,-1.5571,-1.5241,-1.5361,-1.5801,-1.596,-1.624,-1.6587,-1.6965,-1.7183,-1.7272,-1.7231,-1.7228,-1.7167,-1.6838,-1.6599,-1.6453,-1.6453,-1.6341,-1.6319,-1.6823,-1.7302,-1.7907,-1.9124,-1.9934,-2.0545,-2.0982,-2.1109,-2.1109,-2.1109,-2.1109,-2.1109,-2.1109,-2.1109,-2.1109,-2.1109,-2.1109,-2.1109,-2.1109,-2.1109,-2.1109,-2.1109,-2.1109,-2.1109,-2.1109,-2.1109,-2.1038,-2.0844,-2.0965,-2.0847,-2.0459,-2.1127,-2.176,-2.2235,-2.3343,-2.4264,-2.4985,-2.5488,-2.5386,-2.4608,-2.4055,-2.3184,-2.208,-2.1868,-2.1628,0.0,0.0,0.0,-0.4059,-0.4437,-0.4762,-0.5019,-0.5352,-0.561,-0.5752,-0.6467,-0.6996,-0.6809,-0.7261,-0.7975,-0.8973,-0.9307,-0.9362,-0.9102,-0.9482,-0.9956,-1.0427,-1.0977,-1.1689,-1.2692,-1.298,-1.3438,-1.4226,-1.4304,-1.4556,-1.507,-1.51,-1.522,-1.5493,-1.5493,-1.5588,-1.5808,-1.5808,-1.5808,-1.5808,-1.5808,-1.5808,-1.5791,-1.5848,-1.5741,-1.546,-1.493,-1.4815,-1.4982,-1.4636,-1.469,-1.506,-1.5527,-1.6057,-1.6587,-1.6522,-1.6714,-1.6908,-1.6318,-1.6111,-1.6057,-1.572,-1.5601,-1.5601,-1.5601,-1.5601,-1.5698,-1.6172,-1.6771,-1.7572,-1.8774,-2.0094,-2.1077,-2.1077,-2.1077,-2.1077,-2.1077,-2.1077,-2.1077,-2.1109,-2.1109,-2.1109,-2.1109,-2.1109,-2.1109,-2.1109,-2.1109,-2.1109,-2.1109,-2.1109,-2.1109,-2.1109,-2.1116,-2.0956,-2.0539,-2.0391,-2.013,-1.9728,-1.994,-2.0422,-2.1144,-2.2201,-2.3127,-2.3945,-2.4676,-2.4883,-2.4555,-2.4252,-2.341,-2.2146,-2.2096,-2.2074,-0.224,0.0,0.0,0.0,0.0,0.0,-0.4739,-0.4962,-0.5129,-0.5271,-0.5758,-0.6149,-0.6089,-0.6411,-0.6802,-0.7191,-0.779,-0.8215,-0.8299,-0.8802,-0.9374,-0.999,-1.0791,-1.161,-1.2371,-1.3009,-1.3546,-1.3915,-1.4488,-1.4875,-1.5022,-1.527,-1.5428,-1.5493,-1.5493,-1.5588,-1.5808,-1.5808,-1.5808,-1.5808,-1.5808,-1.5808,-1.5808,-1.568,-1.5565,-1.5472,-1.4936,-1.4733,-1.4749,-1.4477,-1.4715,-1.5314,-1.565,-1.6123,-1.6592,-1.6582,-1.6617,-1.6602,-1.6454,-1.6395,-1.6336,-1.6052,-1.5963,-1.5933,-1.5661,-1.5601,-1.5661,-1.5998,-1.651,-1.7256,-1.8717,-1.9749,-2.0393,-2.0393,-2.0393,-2.0393,-2.0393,-2.0393,-2.0513,-2.1014,-2.1109,-2.1109,-2.1109,-2.1109,-2.1109,-2.1109,-2.1109,-2.1109,-2.1109,-2.1109,-2.1109,-2.1109,-2.1335,-2.1291,-2.0826,-2.0705,-2.0369,-1.9669,-1.9715,-1.993,-2.0388,-2.1214,-2.1996,-2.2773,-2.348,-2.3705,-2.3357,-2.38,-2.3605,-2.2744,-2.2248,-2.2116,0.0,0.0,0.0,-0.3827,0.0,0.0,-0.4363,-0.451,-0.4652,-0.4821,-0.5156,-0.5439,-0.5504,-0.5739,-0.5996,-0.6184,-0.6742,-0.7332,-0.781,-0.8556,-0.9279,-0.9865,-1.0681,-1.1477,-1.226,-1.2963,-1.3544,-1.3931,-1.4491,-1.4937,-1.5147,-1.5341,-1.5516,-1.5611,-1.5635,-1.5683,-1.5808,-1.5808,-1.5808,-1.5808,-1.5808,-1.5808,-1.5808,-1.5683,-1.5591,-1.5488,-1.5057,-1.4838,-1.4812,-1.4695,-1.496,-1.5492,-1.5987,-1.6422,-1.6835,-1.6939,-1.694,-1.6914,-1.6915,-1.6826,-1.6679,-1.6543,-1.6312,-1.6057,-1.5874,-1.572,-1.565,-1.5912,-1.6557,-1.7448,-1.8587,-1.9302,-1.9692,-1.9692,-1.9692,-1.9692,-1.9692,-1.9781,-2.01,-2.0761,-2.0887,-2.0957,-2.1077,-2.1109,-2.1109,-2.1109,-2.1109,-2.1141,-2.1292,-2.1299,-2.1362,-2.1513,-2.1581,-2.1472,-2.1126,-2.0778,-2.0323,-1.9622,-1.9436,-1.9442,-1.9622,-2.0202,-2.0855,-2.1575,-2.2338,-2.2806,-2.2903,-2.3504,-2.3513,-2.2953,-2.2397,-2.2325,0.0,0.0,0.0,-0.3755,-0.3901,0.0,-0.3973,-0.4071,-0.4204,-0.4386,-0.4648,-0.4898,-0.5018,-0.5206,-0.5438,-0.5705,-0.6099,-0.6683,-0.7539,-0.8546,-0.938,-0.9849,-1.0517,-1.1263,-1.2154,-1.274,-1.3348,-1.4015,-1.4394,-1.4805,-1.5331,-1.5351,-1.5464,-1.5701,-1.5741,-1.5761,-1.5761,-1.5788,-1.5808,-1.5808,-1.5808,-1.5808,-1.5808,-1.5808,-1.5689,-1.5493,-1.5244,-1.5096,-1.5016,-1.5152,-1.5337,-1.5646,-1.6421,-1.6894,-1.7178,-1.7406,-1.7521,-1.7498,-1.7544,-1.7372,-1.7108,-1.7103,-1.6714,-1.6264,-1.62,-1.5963,-1.5709,-1.5942,-1.6764,-1.7722,-1.83,-1.8702,-1.8976,-1.8976,-1.8976,-1.8976,-1.8976,-1.9194,-1.9609,-2.0284,-2.0513,-2.0704,-2.0982,-2.1077,-2.1109,-2.1141,-2.1172,-2.1267,-2.1607,-2.1702,-2.1796,-2.208,-2.1887,-2.1664,-2.147,-2.0826,-2.019,-1.9686,-1.9233,-1.8988,-1.8988,-1.9297,-1.9773,-2.0497,-2.127,-2.2007,-2.2722,-2.3241,-2.3305,-2.2902,-2.2633,-2.2639,0.0,0.0,-0.388,-0.388,-0.3865,0.0,-0.3776,-0.3821,-0.389,-0.3932,-0.4272,-0.458,-0.4609,-0.4825,-0.5106,-0.5429,-0.5907,-0.6527,-0.7348,-0.8103,-0.8775,-0.929,-0.9999,-1.0662,-1.1221,-1.1867,-1.2517,-1.318,-1.4034,-1.4692,-1.5053,-1.5073,-1.5099,-1.5153,-1.5357,-1.5478,-1.5478,-1.5688,-1.5808,-1.5808,-1.5808,-1.5808,-1.5808,-1.5808,-1.5689,-1.5493,-1.5452,-1.5293,-1.5106,-1.5559,-1.5914,-1.6174,-1.6554,-1.7033,-1.7508,-1.7563,-1.755,-1.7534,-1.7818,-1.7855,-1.78,-1.7744,-1.7502,-1.7191,-1.6915,-1.6454,-1.6012,-1.6002,-1.6458,-1.7049,-1.739,-1.7853,-1.8194,-1.8194,-1.8194,-1.8194,-1.8194,-1.8258,-1.8515,-1.9264,-2.0062,-2.0609,-2.0704,-2.0919,-2.1204,-2.1457,-2.1513,-2.1607,-2.1954,-2.223,-2.2331,-2.2111,-2.2525,-2.2532,-2.1845,-2.1364,-2.0798,-2.0057,-1.9378,-1.8988,-1.8988,-1.9052,-1.9332,-1.9785,-2.0521,-2.111,-2.1518,-2.2799,-2.3249,-2.2909,-2.3113,-2.3113,-0.3524,-0.3768,-0.3921,-0.3832,-0.3727,0.0,0.0,-0.3477,-0.3491,-0.366,-0.3879,-0.4111,-0.4309,-0.4456,-0.4688,-0.5129,-0.5544,-0.6041,-0.6697,-0.7644,-0.8392,-0.8758,-0.9306,-0.9843,-1.0319,-1.0834,-1.1517,-1.2388,-1.3219,-1.3827,-1.4139,-1.4399,-1.4618,-1.4758,-1.5046,-1.52,-1.52,-1.5471,-1.5588,-1.5595,-1.5735,-1.5808,-1.5808,-1.5808,-1.573,-1.5659,-1.5659,-1.5571,-1.5471,-1.5746,-1.6037,-1.6338,-1.6779,-1.7213,-1.7609,-1.774,-1.7783,-1.7809,-1.8123,-1.8136,-1.798,-1.7973,-1.774,-1.7454,-1.7099,-1.6675,-1.6333,-1.6419,-1.6635,-1.6878,-1.6976,-1.7194,-1.738,-1.7345,-1.7346,-1.7374,-1.7496,-1.7744,-1.8168,-1.8726,-1.9813,-2.0609,-2.0609,-2.1014,-2.1425,-2.1576,-2.1891,-2.2237,-2.255,-2.305,-2.3269,-2.3106,-2.3409,-2.3354,-2.275,-2.2376,-2.1713,-2.0705,-2.0098,-1.957,-1.9023,-1.8813,-1.8883,-1.9297,-1.986,-2.0486,-2.1214,-2.2516,-2.3065,-2.29,-2.3236,-2.3236,-0.3696,-0.3864,-0.3944,-0.3794,-0.3646,-0.3497,0.0,0.0,0.0,-0.3499,-0.3583,-0.3708,-0.4096,-0.4179,-0.4368,-0.4866,-0.5153,-0.5497,-0.5986,-0.6969,-0.7758,-0.811,-0.8488,-0.8875,-0.9276,-0.9833,-1.0602,-1.1607,-1.2279,-1.2784,-1.3131,-1.355,-1.3967,-1.4321,-1.4643,-1.4845,-1.4899,-1.5193,-1.5344,-1.5398,-1.5608,-1.5748,-1.5808,-1.5808,-1.5808,-1.5808,-1.5808,-1.5808,-1.5808,-1.5808,-1.6005,-1.6351,-1.6879,-1.7267,-1.7561,-1.7816,-1.7929,-1.7976,-1.8303,-1.8231,-1.801,-1.809,-1.7901,-1.7596,-1.7278,-1.6984,-1.6808,-1.6957,-1.7049,-1.7045,-1.6951,-1.6943,-1.694,-1.6764,-1.6718,-1.6783,-1.6984,-1.7516,-1.811,-1.8688,-1.9807,-2.0697,-2.0704,-2.1267,-2.1734,-2.1859,-2.2393,-2.2957,-2.3331,-2.3984,-2.4355,-2.4293,-2.4355,-2.4195,-2.3731,-2.3384,-2.2663,-2.1474,-2.0957,-2.0225,-1.9128,-1.8643,-1.8595,-1.9055,-1.9475,-2.0174,-2.1288,-2.2354,-2.2885,-2.29,-2.3304,-2.3304,-0.3887,-0.4108,-0.421,-0.4006,-0.3813,-0.3623,-0.343,0.0,-0.316,-0.3371,0.0,-0.368,-0.3968,0.0,0.0,-0.4671,-0.4912,-0.515,-0.5444,-0.5772,-0.6294,-0.7141,-0.7492,-0.7732,-0.7905,-0.904,-1.0095,-1.087,-1.1378,-1.1935,-1.2563,-1.2647,-1.2995,-1.368,-1.4028,-1.4315,-1.4547,-1.4885,-1.516,-1.5398,-1.5431,-1.5578,-1.5808,-1.5808,-1.5808,-1.5808,-1.5808,-1.5808,-1.5808,-1.5808,-1.6005,-1.633,-1.6633,-1.6966,-1.7286,-1.7555,-1.7662,-1.7675,-1.7962,-1.8042,-1.8055,-1.8348,-1.8391,-1.8233,-1.7898,-1.7764,-1.7707,-1.7486,-1.7571,-1.7637,-1.7407,-1.7455,-1.7445,-1.6923,-1.6779,-1.6871,-1.7115,-1.7455,-1.8062,-1.9247,-2.0329,-2.1057,-2.1039,-2.1607,-2.223,-2.2825,-2.3261,-2.3697,-2.4355,-2.5011,-2.5326,-2.5011,-2.5234,-2.5138,-2.4437,-2.4064,-2.3398,-2.2236,-2.1517,-2.0619,-1.95,-1.8778,-1.8706,-1.934,-1.9706,-2.0415,-2.1567,-2.2332,-2.2794,-2.2928,-2.3618,-2.355,-0.3439,-0.3761,-0.4011,-0.3995,-0.3905,-0.3781,-0.3615,-0.3414,-0.3299,-0.3385,0.0,0.0,0.0,0.0,0.0,0.0,-0.4654,-0.478,-0.4967,-0.5136,-0.5568,-0.647,-0.6751,-0.6954,-0.7218,-0.7995,-0.8641,-0.9031,-0.9788,-1.043,-1.0906,-1.1569,-1.217,-1.2705,-1.3332,-1.3742,-1.3987,-1.4454,-1.4856,-1.5173,-1.534,-1.5545,-1.5808,-1.5808,-1.5808,-1.5808,-1.5808,-1.5808,-1.5808,-1.5808,-1.5881,-1.6059,-1.6526,-1.6913,-1.7239,-1.7501,-1.7608,-1.7628,-1.7736,-1.7776,-1.7856,-1.8337,-1.8335,-1.8203,-1.8413,-1.835,-1.8175,-1.8035,-1.8087,-1.8085,-1.776,-1.7637,-1.7523,-1.7222,-1.7013,-1.7024,-1.7639,-1.8197,-1.8998,-2.0492,-2.1555,-2.2442,-2.3043,-2.3043,-2.3074,-2.3362,-2.4015,-2.4579,-2.4857,-2.5664,-2.6053,-2.5717,-2.5992,-2.5986,-2.5486,-2.5293,-2.475,-2.3662,-2.1861,-2.037,-1.9262,-1.8673,-1.8723,-1.9379,-1.9746,-2.0526,-2.1846,-2.2425,-2.285,-2.3126,-2.3495,-2.3372,-0.2998,-0.3338,-0.3635,-0.3891,-0.39,-0.3836,-0.3784,-0.3611,-0.3469,-0.3552,-0.351,0.0,0.0,0.0,-0.3882,-0.4298,0.0,-0.4367,-0.4539,-0.4646,-0.5004,-0.5804,-0.6067,-0.6334,-0.6733,-0.7075,-0.7374,-0.7614,-0.8345,-0.9006,-0.9527,-1.0421,-1.1239,-1.191,-1.2628,-1.3136,-1.3436,-1.393,-1.4368,-1.4665,-1.4949,-1.5216,-1.5493,-1.565,-1.5713,-1.5713,-1.5784,-1.5808,-1.5808,-1.5808,-1.5808,-1.5861,-1.6448,-1.684,-1.71,-1.7468,-1.7608,-1.7608,-1.7608,-1.7608,-1.7669,-1.8196,-1.8251,-1.823,-1.8728,-1.8793,-1.8655,-1.8655,-1.8655,-1.8596,-1.8256,-1.8029,-1.7821,-1.7607,-1.7344,-1.7426,-1.8321,-1.9026,-1.9997,-2.1662,-2.2817,-2.3821,-2.4849,-2.4448,-2.4046,-2.4139,-2.4857,-2.541,-2.5502,-2.6244,-2.6631,-2.6388,-2.6601,-2.663,-2.64,-2.6278,-2.5705,-2.4423,-2.2105,-2.0329,-1.9337,-1.8714,-1.8785,-1.9622,-1.9883,-2.0727,-2.2169,-2.2495,-2.285,-2.3193,-2.3344,-2.3236,-0.275,-0.2962,-0.3153,-0.3681,-0.3762,-0.376,-0.3954,-0.3783,-0.3666,-0.3927,-0.3774,-0.368,-0.3955,-0.3788,0.0,0.0,0.0,0.0,0.0,-0.4221,-0.4442,-0.5061,-0.5433,-0.5833,-0.6359,-0.6425,-0.6653,-0.7181,-0.737,-0.7889,-0.8881,-0.9266,-1.0095,-1.1477,-1.1986,-1.2483,-1.3019,-1.3306,-1.3572,-1.3846,-1.4104,-1.44,-1.4756,-1.5267,-1.5516,-1.5516,-1.5713,-1.5808,-1.5808,-1.5808,-1.5808,-1.5861,-1.6448,-1.6714,-1.6787,-1.7368,-1.7608,-1.7608,-1.7608,-1.7608,-1.7662,-1.7929,-1.8229,-1.8544,-1.8816,-1.911,-1.9366,-1.9366,-1.9366,-1.9278,-1.8939,-1.8845,-1.87,-1.8035,-1.7883,-1.8126,-1.9049,-1.9778,-2.0828,-2.2702,-2.386,-2.488,-2.5892,-2.5502,-2.5173,-2.5488,-2.5839,-2.6197,-2.651,-2.6852,-2.7073,-2.7073,-2.7073,-2.7075,-2.7069,-2.6769,-2.5806,-2.4032,-2.2194,-2.0833,-2.0116,-1.8993,-1.9008,-2.0241,-2.0289,-2.1054,-2.2582,-2.2612,-2.2708,-2.2914,-2.3242,-2.3236,-0.2381,-0.2747,-0.3135,-0.366,-0.382,-0.3861,-0.3975,-0.3863,-0.373,-0.3735,-0.3594,-0.3497,-0.358,-0.3341,0.0,0.0,0.0,0.0,0.0,-0.4093,-0.4359,-0.4784,-0.5014,-0.5213,-0.5393,-0.5415,-0.5552,-0.5919,-0.6238,-0.6782,-0.7665,-0.8365,-0.9242,-1.0331,-1.1177,-1.1814,-1.2275,-1.2718,-1.3074,-1.3345,-1.3431,-1.3638,-1.3977,-1.4162,-1.4404,-1.4726,-1.4978,-1.5269,-1.5611,-1.5761,-1.5808,-1.5861,-1.6448,-1.6707,-1.6774,-1.7394,-1.7608,-1.7608,-1.7608,-1.7608,-1.7629,-1.7922,-1.8223,-1.8544,-1.881,-1.9132,-1.9395,-1.9395,-1.9395,-1.9366,-1.9272,-1.9062,-1.8881,-1.8852,-1.87,-1.8855,-1.998,-2.0765,-2.1786,-2.3731,-2.4734,-2.5656,-2.6827,-2.6827,-2.6653,-2.654,-2.667,-2.6792,-2.6913,-2.7043,-2.7103,-2.7103,-2.7103,-2.7094,-2.71,-2.6787,-2.6033,-2.4701,-2.314,-2.1609,-2.015,-1.9648,-1.9673,-2.0295,-2.1007,-2.1861,-2.2855,-2.2959,-2.3066,-2.3166,-2.3331,-2.3338,-0.2222,-0.2553,-0.2898,-0.3391,-0.3546,-0.3615,-0.375,-0.3719,-0.3647,-0.361,-0.3399,-0.3216,-0.3216,-0.2866,0.0,0.0,0.0,0.0,0.0,-0.3999,-0.4276,-0.4498,-0.4701,-0.4846,-0.4897,-0.4897,-0.4969,-0.5142,-0.5478,-0.5997,-0.6709,-0.7568,-0.8495,-0.9456,-1.0413,-1.1167,-1.168,-1.212,-1.2464,-1.2703,-1.2726,-1.2861,-1.3077,-1.3165,-1.3469,-1.3935,-1.4296,-1.4803,-1.538,-1.5588,-1.582,-1.6039,-1.6513,-1.6767,-1.6946,-1.7428,-1.7608,-1.7608,-1.7608,-1.7608,-1.7642,-1.7789,-1.8156,-1.8524,-1.8718,-1.913,-1.9533,-1.9533,-1.962,-1.9707,-1.9707,-1.9555,-1.9432,-1.9613,-1.9606,-1.9815,-2.0855,-2.1739,-2.2842,-2.4467,-2.5422,-2.6266,-2.731,-2.7491,-2.7461,-2.7388,-2.7397,-2.7366,-2.7276,-2.7237,-2.7215,-2.7103,-2.7103,-2.7154,-2.7287,-2.7016,-2.6402,-2.545,-2.389,-2.2359,-2.0937,-2.0532,-2.0579,-2.112,-2.1928,-2.2707,-2.3451,-2.3562,-2.3583,-2.3541,-2.368,-2.3907]},{"header":{"parameterUnit":"m.s-1","parameterCategory":1,"la1":30.6,"la2":29.2853,"lo1":-89.7004,"lo2":-87.6739,"dy":0.0162,"dx":0.0183,"nx":112,"ny":82,"refTime":"2023-09-19T12:00:00:Z","depth":0,"parameterNumber":3,"parameterNumberName":"V-component_of_WINDS"},"data":[0.0,0.0,0.0,0.0,0.0,0.0,0.0,0.0,0.0,0.0,0.0,0.0,0.0,0.0,0.0,0.0,0.0,0.0,0.0,0.0,0.0,0.0,0.0,0.0,0.0,0.0,0.0,0.0,0.0,0.0,0.0,0.0,0.0,0.0,0.0,0.0,0.0,0.0,0.0,0.0,0.0,0.0,0.0,0.0,0.0,0.0,0.0,0.0,0.0,0.0,0.0,0.0,0.0,0.0,0.0,0.0,0.0,0.0,0.0,0.0,0.0,0.0,0.0,0.0,0.0,0.0,0.0,0.0,0.0,0.0,0.0,0.0,0.0,0.0,0.0,0.0,0.0,0.0,0.0,0.0,0.0,0.0,0.0,0.0,0.0,0.0,0.0,0.0,0.0,0.0,2.9883,3.1354,3.3607,3.4919,3.4713,3.3606,3.1506,2.8216,0.0,0.0,0.0,0.0,0.0,0.0,0.0,0.0,0.0,0.0,0.0,0.0,0.0,0.0,0.0,0.0,0.0,0.0,0.0,0.0,0.0,0.0,0.0,0.0,0.0,0.0,0.0,0.0,0.0,0.0,0.0,0.0,0.0,0.0,0.0,0.0,0.0,0.0,0.0,0.0,0.0,0.0,0.0,0.0,0.0,0.0,0.0,0.0,0.0,0.0,0.0,0.0,0.0,0.0,0.0,0.0,0.0,0.0,0.0,0.0,0.0,0.0,0.0,0.0,0.0,0.0,0.0,0.0,0.0,0.0,0.0,0.0,0.0,0.0,0.0,0.0,0.0,0.0,0.0,0.0,0.0,0.0,0.0,0.0,0.0,0.0,0.0,0.0,0.0,0.0,0.0,0.0,0.0,0.0,0.0,0.0,0.0,0.0,0.0,0.0,0.0,0.0,0.0,0.0,3.0916,3.4714,3.6139,3.6472,3.5661,3.3447,3.12,2.9121,0.0,0.0,0.0,0.0,0.0,0.0,0.0,0.0,0.0,0.0,0.0,0.0,0.0,0.0,0.0,0.0,0.0,0.0,0.0,0.0,0.0,0.0,0.0,0.0,0.0,0.0,0.0,0.0,0.0,0.0,0.0,0.0,0.0,0.0,0.0,0.0,0.0,0.0,0.0,0.0,0.0,0.0,0.0,0.0,0.0,0.0,0.0,0.0,0.0,0.0,0.0,0.0,0.0,0.0,0.0,0.0,0.0,0.0,0.0,0.0,0.0,0.0,0.0,0.0,0.0,0.0,0.0,0.0,0.0,0.0,0.0,0.0,0.0,0.0,0.0,0.0,0.0,0.0,0.0,0.0,0.0,0.0,0.0,0.0,0.0,0.0,0.0,0.0,0.0,0.0,0.0,0.0,0.0,0.0,0.0,0.0,0.0,0.0,0.0,0.0,0.0,0.0,0.0,3.1216,3.3429,3.631,3.6954,3.6646,3.527,3.3199,3.0979,2.8698,2.7605,0.0,0.0,0.0,0.0,0.0,0.0,0.0,0.0,0.0,0.0,0.0,0.0,0.0,0.0,0.0,0.0,0.0,0.0,0.0,0.0,0.0,0.0,0.0,0.0,0.0,0.0,0.0,0.0,0.0,0.0,0.0,0.0,0.0,0.0,0.0,0.0,0.0,0.0,0.0,0.0,0.0,0.0,0.0,0.0,0.0,0.0,0.0,0.0,0.0,0.0,0.0,0.0,0.0,0.0,0.0,0.0,0.0,0.0,0.0,0.0,0.0,0.0,0.0,0.0,0.0,0.0,0.0,0.0,0.0,0.0,0.0,0.0,0.0,0.0,0.0,0.0,0.0,0.0,0.0,0.0,0.0,0.0,0.0,0.0,0.0,0.0,0.0,0.0,0.0,0.0,0.0,0.0,0.0,0.0,0.0,0.0,0.0,0.0,0.0,0.0,0.0,0.0,3.3611,3.5344,3.7029,3.7201,3.6483,3.4745,3.2808,3.0632,2.8156,2.6884,0.0,0.0,0.0,0.0,0.0,0.0,0.0,0.0,0.0,0.0,0.0,0.0,0.0,0.0,0.0,0.0,0.0,0.0,0.0,0.0,0.0,0.0,0.0,0.0,0.0,0.0,0.0,0.0,0.0,0.0,0.0,0.0,0.0,0.0,0.0,0.0,0.0,0.0,0.0,0.0,0.0,0.0,0.0,0.0,0.0,0.0,0.0,0.0,0.0,0.0,0.0,0.0,0.0,0.0,0.0,0.0,0.0,0.0,0.0,0.0,0.0,0.0,0.0,0.0,0.0,0.0,0.0,0.0,0.0,0.0,0.0,0.0,0.0,0.0,0.0,0.0,0.0,0.0,0.0,0.0,0.0,0.0,0.0,0.0,0.0,0.0,0.0,0.0,0.0,0.0,0.0,0.0,0.0,0.0,0.0,0.0,0.0,0.0,0.0,0.0,0.0,0.0,3.3612,3.5341,3.7011,3.7208,3.6484,3.4746,3.2256,2.9981,2.8126,2.6357,0.0,0.0,0.0,0.0,0.0,0.0,0.0,0.0,0.0,0.0,0.0,0.0,0.0,0.0,0.0,0.0,0.0,0.0,0.0,0.0,0.0,0.0,0.0,0.0,0.0,0.0,0.0,0.0,0.0,0.0,0.0,0.0,0.0,0.0,0.0,0.0,0.0,0.0,0.0,0.0,0.0,0.0,0.0,0.0,0.0,0.0,0.0,0.0,0.0,0.0,0.0,0.0,0.0,0.0,0.0,0.0,0.0,0.0,0.0,0.0,0.0,0.0,0.0,0.0,0.0,0.0,0.0,0.0,0.0,0.0,0.0,0.0,0.0,0.0,0.0,0.0,0.0,0.0,0.0,0.0,0.0,0.0,0.0,0.0,0.0,0.0,0.0,0.0,0.0,0.0,0.0,0.0,0.0,0.0,0.0,0.0,0.0,0.0,0.0,0.0,0.0,0.0,3.4424,3.5749,3.6387,3.6454,3.5538,3.3244,3.1101,2.9115,2.7309,0.0,0.0,0.0,0.0,0.0,0.0,0.0,0.0,0.0,0.0,0.0,0.0,0.0,0.0,0.0,0.0,0.0,0.0,0.0,0.0,0.0,0.0,0.0,0.0,0.0,0.0,0.0,0.0,0.0,0.0,0.0,0.0,0.0,0.0,0.0,0.0,0.0,0.0,0.0,0.0,0.0,0.0,0.0,0.0,0.0,0.0,0.0,0.0,0.0,0.0,0.0,0.0,0.0,0.0,0.0,0.0,0.0,0.0,0.0,0.0,0.0,0.0,0.0,0.0,0.0,0.0,0.0,0.0,0.0,0.0,0.0,0.0,0.0,0.0,0.0,0.0,0.0,0.0,0.0,0.0,0.0,0.0,0.0,0.0,0.0,0.0,0.0,0.0,0.0,0.0,0.0,0.0,0.0,0.0,0.0,0.0,0.0,0.0,0.0,0.0,0.0,0.0,3.3064,3.443,3.5386,3.5931,3.5746,3.4637,3.2307,3.0432,2.8636,2.6831,0.0,0.0,0.0,0.0,0.0,0.0,0.0,0.0,0.0,0.0,0.0,0.0,0.0,0.0,0.0,0.0,0.0,0.0,0.0,0.0,0.0,0.0,0.0,0.0,0.0,0.0,0.0,0.0,0.0,0.0,0.0,0.0,0.0,0.0,0.0,0.0,0.0,0.0,0.0,0.0,0.0,0.0,0.0,0.0,0.0,0.0,0.0,0.0,0.0,0.0,0.0,0.0,0.0,0.0,0.0,0.0,0.0,0.0,0.0,0.0,0.0,0.0,0.0,0.0,0.0,0.0,0.0,0.0,0.0,0.0,0.0,0.0,0.0,0.0,0.0,0.0,0.0,0.0,0.0,0.0,0.0,0.0,0.0,0.0,0.0,0.0,0.0,0.0,0.0,0.0,0.0,0.0,0.0,0.0,0.0,0.0,0.0,0.0,0.0,0.0,0.0,0.0,3.3066,3.3417,3.4061,3.58,3.5205,3.3979,3.2228,3.0424,2.8641,0.0,0.0,0.0,0.0,0.0,0.0,0.0,0.0,0.0,0.0,0.0,0.0,0.0,0.0,0.0,0.0,0.0,0.0,0.0,0.0,0.0,0.0,0.0,0.0,0.0,0.0,0.0,0.0,0.0,0.0,0.0,0.0,0.0,0.0,0.0,0.0,0.0,0.0,0.0,0.0,0.0,0.0,0.0,0.0,0.0,0.0,0.0,0.0,0.0,0.0,0.0,0.0,0.0,0.0,0.0,0.0,0.0,0.0,0.0,0.0,0.0,0.0,0.0,0.0,0.0,0.0,0.0,0.0,0.0,0.0,0.0,0.0,0.0,0.0,0.0,0.0,0.0,0.0,0.0,0.0,0.0,0.0,0.0,0.0,0.0,0.0,0.0,0.0,0.0,0.0,0.0,0.0,0.0,0.0,0.0,0.0,0.0,0.0,0.0,0.0,0.0,0.0,0.0,3.3144,3.3945,3.4512,3.5039,3.4295,3.2824,3.0469,2.9209,2.7787,2.6,0.0,0.0,0.0,0.0,0.0,0.0,0.0,0.0,0.0,0.0,0.0,0.0,0.0,0.0,0.0,0.0,0.0,0.0,0.0,0.0,0.0,0.0,0.0,0.0,0.0,0.0,0.0,0.0,0.0,0.0,0.0,0.0,0.0,0.0,0.0,0.0,0.0,0.0,0.0,0.0,0.0,0.0,0.0,0.0,0.0,0.0,0.0,0.0,0.0,0.0,0.0,0.0,0.0,0.0,0.0,0.0,0.0,0.0,0.0,0.0,0.0,0.0,0.0,0.0,0.0,0.0,0.0,0.0,0.0,0.0,0.0,0.0,0.0,0.0,0.0,0.0,0.0,0.0,0.0,0.0,0.0,0.0,0.0,0.0,0.0,0.0,0.0,0.0,0.0,0.0,0.0,0.0,0.0,0.0,0.0,0.0,0.0,0.0,0.0,0.0,0.0,0.0,3.3184,3.3867,3.4316,3.4668,3.3925,3.2477,3.0204,2.8893,2.7579,2.611,0.0,0.0,0.0,0.0,0.0,0.0,0.0,0.0,0.0,0.0,0.0,0.0,0.0,0.0,0.0,0.0,0.0,0.0,0.0,0.0,0.0,0.0,0.0,0.0,0.0,0.0,0.0,0.0,0.0,0.0,0.0,0.0,0.0,0.0,0.0,0.0,0.0,0.0,0.0,0.0,0.0,0.0,0.0,0.0,0.0,0.0,0.0,0.0,0.0,0.0,0.0,0.0,0.0,0.0,0.0,0.0,0.0,0.0,0.0,0.0,0.0,0.0,0.0,0.0,0.0,0.0,0.0,0.0,0.0,0.0,0.0,0.0,0.0,0.0,0.0,0.0,0.0,0.0,0.0,0.0,0.0,0.0,0.0,0.0,0.0,0.0,0.0,0.0,0.0,0.0,0.0,0.0,0.0,0.0,0.0,0.0,0.0,0.0,0.0,0.0,0.0,0.0,3.3183,3.3476,3.3828,3.4629,3.3925,3.2693,3.0969,2.9271,2.7886,2.6865,0.0,0.0,0.0,0.0,0.0,0.0,0.0,0.0,0.0,0.0,0.0,0.0,0.0,0.0,0.0,0.0,0.0,0.0,0.0,0.0,0.0,0.0,0.0,0.0,0.0,0.0,0.0,0.0,0.0,0.0,0.0,0.0,0.0,0.0,0.0,0.0,0.0,0.0,0.0,0.0,0.0,0.0,0.0,0.0,0.0,0.0,0.0,0.0,0.0,0.0,0.0,0.0,0.0,0.0,0.0,0.0,0.0,0.0,0.0,0.0,3.0681,2.9839,0.0,0.0,0.0,0.0,0.0,0.0,0.0,0.0,0.0,0.0,0.0,0.0,0.0,0.0,0.0,0.0,0.0,0.0,0.0,0.0,0.0,0.0,0.0,0.0,0.0,0.0,0.0,0.0,0.0,0.0,0.0,0.0,0.0,0.0,0.0,0.0,0.0,0.0,0.0,0.0,3.3278,3.4001,3.449,3.4687,3.3925,3.2715,3.1011,2.9866,2.8549,2.6988,2.6634,0.0,0.0,0.0,0.0,0.0,0.0,0.0,0.0,0.0,0.0,0.0,0.0,0.0,0.0,0.0,0.0,0.0,0.0,0.0,0.0,0.0,0.0,0.0,0.0,0.0,0.0,0.0,0.0,0.0,0.0,0.0,0.0,0.0,0.0,0.0,0.0,0.0,0.0,0.0,0.0,0.0,0.0,0.0,0.0,0.0,0.0,0.0,0.0,0.0,0.0,0.0,0.0,0.0,0.0,0.0,0.0,0.0,0.0,0.0,3.4424,3.2495,0.0,0.0,0.0,0.0,0.0,0.0,0.0,0.0,0.0,0.0,0.0,0.0,0.0,0.0,0.0,0.0,0.0,0.0,0.0,0.0,0.0,0.0,0.0,0.0,0.0,0.0,0.0,0.0,0.0,0.0,0.0,0.0,0.0,0.0,0.0,0.0,0.0,0.0,0.0,0.0,3.3289,3.4151,3.47,3.4702,3.4294,3.334,3.1619,3.0653,2.938,2.7631,2.7072,0.0,0.0,0.0,0.0,0.0,0.0,0.0,0.0,0.0,0.0,0.0,0.0,0.0,0.0,0.0,0.0,0.0,0.0,0.0,0.0,0.0,0.0,0.0,0.0,0.0,0.0,0.0,0.0,0.0,0.0,0.0,0.0,0.0,0.0,0.0,0.0,0.0,0.0,0.0,0.0,0.0,0.0,0.0,0.0,0.0,0.0,0.0,0.0,0.0,0.0,0.0,0.0,0.0,4.3896,4.4245,4.4245,4.4245,4.4202,4.3885,3.945,3.6627,3.5178,3.4804,0.0,0.0,0.0,0.0,0.0,0.0,0.0,0.0,0.0,0.0,0.0,0.0,0.0,0.0,0.0,0.0,0.0,0.0,0.0,0.0,0.0,0.0,3.5683,3.6405,3.6694,3.6346,3.4685,0.0,0.0,0.0,0.0,0.0,0.0,0.0,0.0,0.0,0.0,0.0,3.3525,3.4371,3.4904,3.4905,3.4778,3.412,3.2675,3.1614,3.0344,2.8759,2.7642,2.6623,0.0,0.0,0.0,0.0,0.0,0.0,0.0,0.0,0.0,0.0,0.0,0.0,0.0,0.0,0.0,0.0,0.0,0.0,0.0,0.0,0.0,0.0,0.0,0.0,0.0,0.0,0.0,0.0,0.0,0.0,0.0,0.0,3.286,3.3737,0.0,0.0,0.0,0.0,0.0,0.0,0.0,0.0,0.0,0.0,0.0,0.0,0.0,4.3821,4.6325,4.6459,4.6943,4.7815,4.7929,4.7987,4.7987,4.7987,4.7959,4.786,4.7081,0.0,4.0634,3.9107,0.0,0.0,0.0,0.0,0.0,0.0,0.0,0.0,0.0,0.0,0.0,0.0,0.0,0.0,0.0,0.0,0.0,0.0,0.0,0.0,0.0,0.0,3.9135,3.9255,3.9825,4.0053,3.906,3.6518,3.4646,3.5403,3.4289,3.3434,0.0,0.0,0.0,0.0,0.0,0.0,3.4435,3.5208,3.5746,3.5736,3.5128,3.4618,3.4375,3.2867,3.1504,3.0513,2.8929,2.759,2.6657,2.5762,0.0,0.0,0.0,0.0,0.0,0.0,0.0,0.0,0.0,0.0,0.0,0.0,0.0,0.0,0.0,0.0,0.0,0.0,0.0,0.0,0.0,0.0,0.0,0.0,0.0,0.0,0.0,0.0,0.0,3.3895,3.5591,3.6414,3.6522,3.672,0.0,0.0,0.0,0.0,0.0,0.0,0.0,0.0,0.0,4.6504,4.7884,4.9639,5.1752,5.178,5.2213,5.3089,5.3079,5.3083,5.3083,5.3083,5.3077,5.3046,5.3001,5.1587,4.8952,4.4702,4.1615,3.9512,0.0,0.0,0.0,0.0,3.9161,3.9914,3.9815,4.033,4.0887,4.0058,0.0,0.0,0.0,0.0,0.0,0.0,0.0,3.8535,4.0247,4.0947,4.1323,4.1812,4.2195,4.2369,4.1965,4.0324,3.8627,3.7568,3.5971,3.4915,3.5278,3.4259,0.0,0.0,0.0,3.4774,3.5275,3.6087,3.6625,3.6632,3.6311,3.5714,3.4776,3.3555,3.2258,3.0892,2.9159,2.7808,2.6886,2.5929,2.5971,0.0,0.0,0.0,0.0,0.0,0.0,0.0,0.0,0.0,0.0,0.0,0.0,0.0,0.0,0.0,0.0,0.0,0.0,0.0,0.0,0.0,0.0,0.0,0.0,0.0,0.0,0.0,0.0,3.6434,3.8459,3.9531,3.9848,4.0319,0.0,0.0,0.0,0.0,0.0,0.0,4.7021,4.9401,5.1208,5.2287,5.3805,5.5335,5.6842,5.6867,5.7084,5.7495,5.7498,5.7382,5.7167,5.7167,5.7166,5.7163,5.7163,5.6635,5.536,4.9879,4.598,4.3512,4.3716,4.3036,4.1997,4.2453,4.3199,4.3806,4.2941,4.3211,4.3792,4.2915,4.2203,4.1518,4.0646,0.0,0.0,0.0,0.0,4.0786,4.2313,4.2824,4.3093,4.3759,4.4057,4.4163,4.3949,4.3404,4.2245,3.9912,3.8054,3.6863,3.6872,3.5646,0.0,3.4606,3.5165,3.5816,3.6467,3.7103,3.7424,3.7191,3.7197,3.6608,3.5124,3.4018,3.2851,3.1555,2.9403,2.7905,2.7268,2.6324,2.6461,2.7814,0.0,0.0,0.0,0.0,0.0,0.0,0.0,0.0,0.0,0.0,0.0,0.0,0.0,0.0,0.0,0.0,0.0,0.0,0.0,0.0,0.0,0.0,0.0,0.0,0.0,0.0,0.0,0.0,0.0,4.3144,4.4062,0.0,0.0,0.0,0.0,4.8203,4.9219,5.08,5.3318,5.5135,5.6894,5.8593,5.9531,6.0449,6.1367,6.1367,6.0976,6.0192,6.0192,5.976,5.8974,5.8974,5.8977,5.8962,5.8962,5.8474,5.738,5.3766,5.1672,5.0603,4.9002,4.831,4.8147,4.7371,4.7637,4.8245,4.7379,4.7646,4.8221,4.7363,4.5448,4.3319,4.2519,4.1655,0.0,0.0,4.2222,4.2393,4.3302,4.4102,4.4686,4.4727,4.5323,4.5674,4.4894,4.472,4.4169,4.2447,4.0699,3.9502,3.9505,0.0,3.8151,3.8134,3.8187,3.8218,3.8274,3.8309,3.8029,3.7191,3.7167,3.6838,3.5926,3.4337,3.3357,3.3261,3.0085,2.8189,2.8131,2.7234,2.7122,2.7978,2.8661,0.0,0.0,0.0,0.0,0.0,0.0,0.0,0.0,0.0,0.0,0.0,0.0,0.0,0.0,0.0,0.0,0.0,0.0,0.0,0.0,0.0,0.0,0.0,0.0,0.0,0.0,0.0,0.0,4.8288,4.9324,0.0,5.1019,5.0815,5.1477,5.3535,5.5018,5.6712,5.8751,6.0514,6.1746,6.2352,6.3225,6.3554,6.3301,6.3314,6.3147,6.2841,6.2286,6.1825,6.1457,6.0891,6.0667,6.0704,6.0704,6.0534,6.0111,5.8292,5.6076,5.3745,5.3072,5.215,5.1179,5.0801,5.0872,5.1014,5.0143,5.0387,5.0851,4.9466,4.7666,4.5996,4.5692,4.5042,4.4548,4.5377,4.5607,4.5655,4.5959,4.6256,4.6336,4.577,4.5825,4.5916,4.5626,4.5565,4.5395,4.4809,4.2861,4.131,4.1304,4.0616,4.0075,4.0068,3.9598,3.9414,3.9941,3.9554,3.8898,3.8026,3.7961,3.7408,3.6011,3.4842,3.3954,3.3424,3.1189,2.9629,2.9058,2.8179,2.8085,2.8896,2.9112,2.9627,0.0,0.0,0.0,0.0,0.0,0.0,0.0,0.0,0.0,0.0,0.0,0.0,0.0,0.0,0.0,0.0,0.0,0.0,0.0,0.0,0.0,0.0,0.0,0.0,0.0,4.718,5.038,5.2672,5.3986,5.5023,5.585,5.594,5.6643,5.8352,5.986,6.1452,6.3187,6.4652,6.558,6.5873,6.645,6.6347,6.5491,6.5478,6.5186,6.4597,6.4018,6.3551,6.3197,6.2612,6.2216,6.2006,6.2006,6.1842,6.1523,6.0928,5.9321,5.7195,5.659,5.5665,5.4583,5.3941,5.3716,5.3541,5.236,5.2274,5.2432,5.0739,4.9471,4.8472,4.7907,4.7371,4.7088,4.7659,4.7791,4.776,4.7765,4.7541,4.7198,4.6618,4.6216,4.5967,4.5966,4.596,4.596,4.596,4.4383,4.3056,4.3066,4.2397,4.1835,4.1841,4.1325,4.1043,4.1303,4.0845,4.0063,3.892,3.8805,3.8125,3.6412,3.5499,3.4539,3.3435,3.1737,3.0389,2.9503,2.9199,2.9295,2.9832,3.0376,3.0903,3.1443,0.0,0.0,0.0,0.0,0.0,0.0,0.0,0.0,0.0,0.0,0.0,0.0,0.0,0.0,0.0,0.0,0.0,0.0,0.0,0.0,0.0,0.0,0.0,4.7536,5.1202,5.453,5.6219,5.7967,5.9368,6.0206,6.0303,6.1001,6.2632,6.3628,6.4892,6.6618,6.7523,6.8377,6.9217,6.9237,6.885,6.8012,6.7993,6.7139,6.5436,6.5414,6.4913,6.4046,6.4007,6.3555,6.2783,6.278,6.2299,6.1481,6.1418,6.1345,6.1124,5.9511,5.8821,5.8517,5.6796,5.6124,5.5826,5.4074,5.3406,5.3069,5.1431,5.0906,5.0623,4.8996,4.8522,4.858,4.8651,4.8617,4.8557,4.8538,4.7895,4.7256,4.7236,4.66,4.5963,4.5941,4.5921,4.5925,4.5905,4.5267,4.4752,4.4823,4.4129,4.3563,4.3563,4.3499,0.0,4.2379,4.2194,4.1496,3.9807,3.9635,3.8932,3.7187,3.6293,3.5121,3.3472,3.1761,3.042,2.9544,3.0329,3.0774,3.0783,3.2435,3.3317,3.3335,0.0,0.0,0.0,0.0,0.0,0.0,0.0,0.0,0.0,0.0,0.0,0.0,0.0,0.0,0.0,0.0,0.0,0.0,0.0,0.0,0.0,4.9579,5.2674,5.2799,5.5916,5.9059,6.1357,6.3122,6.4266,6.4498,6.5045,6.5591,6.6106,6.7027,6.8062,6.9212,6.9607,6.9892,7.0149,7.0149,6.9429,6.7946,6.7927,6.7366,6.6264,6.5575,6.5116,6.4846,6.412,6.3336,6.2583,6.2529,6.2032,6.1263,6.1158,6.1104,6.1035,6.0635,6.0037,5.9282,5.811,5.6868,5.5679,5.5177,5.4512,5.3802,5.3404,5.2422,5.1347,5.0975,5.0475,5.0044,5.0093,5.0116,4.9954,4.9389,4.9049,4.8713,4.8087,4.7786,4.7476,4.6831,4.6692,4.654,4.5947,4.5649,4.5528,4.5591,4.5389,4.5234,4.5234,4.4681,4.4163,4.3905,4.3305,4.2243,4.0513,4.033,3.9637,3.7936,3.7066,3.6129,3.5047,3.397,3.2985,3.2128,3.2308,3.2454,3.2511,3.2983,3.3509,0.0,0.0,0.0,0.0,0.0,0.0,0.0,0.0,0.0,0.0,0.0,0.0,0.0,0.0,0.0,0.0,0.0,0.0,0.0,0.0,0.0,0.0,5.3538,5.6681,5.8216,6.0437,6.2577,6.4375,6.6102,6.7158,6.7158,6.7633,6.7977,6.8034,6.8917,6.9696,7.0267,7.072,7.0961,7.0961,7.0922,7.0254,6.8874,6.8835,6.8213,6.7009,6.6435,6.5965,6.5571,6.4963,6.4014,6.2825,6.279,6.207,6.094,6.085,6.082,6.0795,0.0,0.0,0.0,0.0,5.7183,5.5855,5.5516,5.4963,5.4382,5.4046,5.329,5.2372,5.1771,5.1289,5.0869,5.0566,5.049,5.0374,4.9903,4.9529,4.9159,4.8669,4.834,4.8043,4.7535,4.745,4.7326,4.6852,4.647,0.0,4.6278,4.6023,4.5822,4.5824,4.536,4.4876,4.4469,4.3956,4.3084,4.1701,4.1567,4.0904,3.9282,3.8711,0.0,0.0,0.0,3.4478,3.3598,3.355,0.0,0.0,0.0,3.5061,3.5879,3.6353,0.0,0.0,3.6506,3.7029,0.0,0.0,0.0,0.0,0.0,0.0,0.0,0.0,0.0,0.0,0.0,0.0,0.0,0.0,0.0,0.0,5.7041,5.9838,6.2951,6.4332,6.5287,6.5994,6.7648,6.8726,6.8758,6.8875,6.8974,6.906,6.9846,7.0355,7.0425,7.1167,0.0,0.0,0.0,7.1053,7.0172,7.0117,6.9274,6.7677,6.7524,6.7007,6.6193,6.6055,6.5009,6.3247,6.3229,6.2192,6.0537,6.0533,6.0476,6.0411,6.0564,6.0519,6.0176,5.8476,5.7175,5.6162,5.5344,0.0,0.0,5.3974,5.3688,5.3367,5.1881,5.1395,5.1186,5.0389,5.0178,5.0178,5.0178,4.9635,4.9096,4.9096,4.8643,4.8204,4.8109,4.8135,4.8159,4.8058,4.7439,4.6886,4.6766,4.6163,4.5688,4.5669,4.5605,4.5285,4.4506,4.4357,4.3975,4.3113,4.3022,0.0,4.085,4.0635,3.9286,3.6206,3.5865,3.5422,3.4648,3.4626,3.5315,3.6797,3.681,3.7166,3.7878,3.7897,3.7953,3.8045,3.8166,3.8218,0.0,0.0,0.0,0.0,0.0,0.0,0.0,0.0,0.0,0.0,0.0,0.0,0.0,0.0,0.0,5.6918,5.9971,6.2489,6.3701,6.5704,6.724,6.7751,6.9184,7.0186,7.0335,7.0424,7.053,7.0648,7.093,7.1118,7.1174,7.1407,7.1489,7.1445,7.1435,7.0944,6.9971,6.9941,6.9338,6.817,6.7435,0.0,6.6717,6.5845,6.452,6.2891,6.2782,6.1761,6.0187,6.0132,6.0011,5.9885,6.0125,5.9706,5.8867,5.7875,5.688,5.5947,5.5133,5.4722,5.4576,5.4516,5.399,5.3212,5.2362,5.1618,0.0,5.0174,4.9966,4.9966,4.9966,4.984,4.9732,4.9732,4.9664,4.9429,4.8712,4.865,4.8541,4.7829,4.7644,4.7365,4.6615,4.5961,4.5534,4.5544,4.5448,4.527,4.5043,4.5006,4.4664,4.3809,4.3754,4.3154,4.1611,4.0886,3.9965,3.8664,3.787,3.736,3.7187,3.718,3.7317,3.7584,3.7528,3.7562,3.7653,3.8308,3.8909,3.9474,3.9084,3.8939,0.0,0.0,0.0,0.0,0.0,0.0,0.0,0.0,0.0,0.0,0.0,5.1497,5.3455,0.0,5.8668,6.0554,6.2613,6.438,6.5494,6.6653,6.7557,6.7959,6.943,7.0464,7.0628,7.0824,7.1011,7.1142,7.1269,7.137,7.1395,7.1395,7.137,7.1297,7.1236,7.0942,7.0413,7.0311,6.9506,6.8047,6.7566,6.6857,6.5941,6.5396,6.4168,6.2509,6.242,6.1424,5.9858,5.9817,5.9717,5.9605,5.9742,5.9503,5.8942,5.7711,5.6935,5.6314,5.5088,5.4565,5.4466,5.4535,5.4236,5.3703,5.2964,5.214,5.1292,5.0515,5.002,4.9685,4.9611,4.9625,4.9647,4.9611,4.9672,4.9636,4.9188,4.9182,4.9123,4.8699,4.8352,4.7998,4.753,4.6511,4.5647,4.5291,4.5191,4.5132,4.5051,4.5084,4.4943,4.4546,4.4522,4.41,4.2991,4.1398,4.0085,3.9248,3.8309,3.7781,3.7757,3.7728,3.7842,3.8131,3.8125,3.8274,3.8591,3.9432,4.0064,4.0456,4.0593,4.0713,0.0,0.0,0.0,0.0,0.0,0.0,0.0,4.9132,5.0843,5.3797,5.5137,5.64,5.8417,6.006,6.174,6.3709,6.473,6.5678,6.6907,6.7137,6.7259,6.7367,6.8775,6.9809,6.9959,7.0261,7.0562,7.0872,7.1032,7.1174,7.1329,7.128,7.1224,7.1135,7.1043,7.0925,7.0796,7.0631,6.9666,6.7946,6.773,6.6738,6.5132,6.4773,6.3691,6.2058,6.1728,6.0796,5.9509,5.9509,5.9501,5.9466,5.9466,5.9492,5.9347,5.7678,5.7024,5.6738,5.5064,5.4458,5.4409,5.4409,5.4409,5.424,5.3441,5.2709,5.1987,5.1169,5.0458,4.9912,4.9776,4.9768,4.9749,4.9668,4.96,4.9556,4.9556,4.9487,4.9435,4.945,4.9016,4.8572,4.8435,4.7305,4.6144,4.5311,4.5069,4.4937,4.4883,4.4931,4.5016,4.5061,4.5085,4.481,4.4123,4.2092,4.0478,3.96,3.883,3.8294,3.8051,3.8134,3.8423,3.8942,3.9094,3.9473,4.004,4.0748,4.1211,4.1443,4.2103,4.244,3.7664,4.0072,4.2667,4.3699,4.6387,4.9249,0.0,5.3304,5.5504,5.7294,5.8885,6.022,6.1138,6.2567,6.3878,6.473,6.5597,6.617,6.6224,6.6786,6.6976,6.6347,6.7132,6.7818,6.8082,6.8311,6.8808,6.9707,6.9956,7.037,7.1098,7.1124,7.1068,7.0939,7.0919,7.076,7.0456,7.0378,6.9723,6.8497,6.7656,6.6673,6.5565,6.3962,6.2652,6.1578,6.0019,5.9317,5.9234,5.9234,5.9281,5.9327,5.9327,5.9337,5.9139,5.7524,5.6914,5.6661,5.4989,5.4417,5.4409,5.4409,5.4409,5.424,5.3441,5.313,5.2859,5.2006,5.1659,5.152,5.1379,5.1224,5.1063,5.0935,5.0315,4.9778,4.9778,4.9267,4.8844,4.8959,4.9007,4.8819,4.817,4.7992,4.7485,4.6094,4.5269,4.4815,4.4802,4.4864,4.4931,4.4997,4.5003,4.4726,4.3985,4.3007,4.2062,4.1202,4.099,4.0513,3.9678,4.0259,4.0591,4.0528,4.1242,4.1609,4.163,4.1744,4.2181,4.2957,4.3119,4.2881,4.0851,4.2869,4.5167,4.7484,5.0565,5.3728,5.634,5.8521,6.059,6.2713,6.3246,6.3561,6.4299,6.4532,6.4809,6.5527,6.5946,6.6336,6.6736,6.6217,6.5688,6.5373,6.4867,6.5395,6.7581,6.7986,6.8325,6.8859,6.9058,6.9493,7.0292,7.033,7.0497,7.0824,7.0724,7.0524,7.0222,6.9626,6.8735,6.7607,6.6747,6.578,6.4723,6.3431,6.2065,6.0664,5.9456,5.905,5.9205,5.9205,5.9244,5.929,5.929,5.929,5.9102,5.7488,5.6887,5.6671,5.4972,5.4409,5.4382,5.434,5.4342,5.4258,5.384,5.3416,5.2992,5.2606,5.2148,5.1723,5.1432,5.1296,5.1157,5.0831,5.0475,5.0186,5.0116,4.9486,4.8977,4.911,4.8882,4.8645,4.8485,4.818,4.7782,4.7233,4.6149,4.522,4.4742,4.4732,4.4802,4.487,4.4913,4.4614,4.3787,4.3371,4.2803,4.1989,4.183,4.1548,4.1023,4.1305,4.1368,4.1146,4.1471,4.1688,4.1732,4.2194,4.2654,4.3095,4.3624,4.3725,4.3756,4.5603,4.7876,5.102,5.4289,5.7538,6.0656,6.267,6.4397,6.6246,6.5894,6.5355,6.5675,6.4976,6.4656,6.565,6.5812,6.6021,6.6637,6.5678,6.4757,6.4299,6.3248,6.3592,6.621,6.6811,6.7189,6.7595,6.7981,6.8647,6.9727,6.9739,7.0012,7.0709,7.0543,7.0325,7.0048,6.9038,6.7968,6.6881,6.606,6.5093,6.4054,6.2863,6.1357,5.9688,5.914,5.8981,5.9148,5.9177,5.9244,5.929,5.929,5.929,5.9121,5.7732,5.7225,5.6981,5.531,5.4719,5.4673,5.439,5.4272,5.4236,5.4118,5.3697,5.3247,5.3222,5.2802,5.2265,5.1918,5.1736,5.1549,5.1151,5.0819,5.0591,5.0526,4.989,4.9299,4.9244,4.8905,4.8622,4.8652,4.8303,4.7975,4.7891,4.6809,4.5761,4.5002,4.4778,4.4718,4.4732,4.4796,4.4556,4.3907,4.38,4.3416,4.2549,4.2408,4.2156,4.171,4.1914,4.1947,4.1702,4.1943,4.2114,4.2205,4.2818,4.3155,4.326,4.3908,4.4195,4.6176,4.8862,5.1814,5.4262,5.7343,6.0424,6.2936,6.4855,6.6165,6.6373,6.5704,6.4892,6.4198,6.3305,6.3204,6.4851,6.5136,6.5161,6.5253,6.5231,6.4614,6.3046,6.2757,6.278,6.3023,6.3817,6.4707,6.5615,6.6582,6.7885,6.961,6.958,6.9812,7.0489,7.0386,7.0184,6.991,6.8847,6.7839,6.6881,6.596,6.5011,6.4036,6.2182,6.0393,5.8754,5.8848,5.8941,5.9023,5.9148,5.9244,5.929,5.929,5.929,5.9196,5.8361,5.8061,5.7817,5.6146,5.5555,5.5415,5.4578,5.4209,5.4109,5.41,5.399,5.3898,5.4035,5.3898,5.37,5.3477,5.3088,5.2707,5.2488,5.1649,5.092,5.1043,5.0434,4.9719,4.9207,4.9133,4.8985,4.8406,4.8449,4.8337,4.7631,4.6975,4.6365,4.5741,4.5102,4.4679,4.4612,4.4605,4.4578,4.4484,4.4477,4.4039,4.3048,4.2978,4.2496,4.146,4.2211,4.2617,4.2477,4.3297,4.373,4.373,4.382,4.386,4.3868,4.3905,4.3905,4.9155,5.1833,5.4428,5.6797,5.9861,6.2812,6.4743,6.6122,6.6866,6.6365,6.4794,6.3077,6.1671,6.0738,6.0589,6.1728,6.2879,6.3673,6.3728,6.3786,6.3382,6.2268,6.1654,6.1322,6.1368,6.2618,6.3788,6.4726,6.5205,6.6417,6.8651,6.8719,6.9246,7.0402,7.0266,7.0038,6.9776,6.8172,6.7182,6.6816,6.5212,6.3661,6.222,6.1445,6.0226,5.8698,5.8748,5.8921,5.9139,5.9167,5.9244,5.929,5.929,5.929,5.9271,5.9009,5.8896,5.8671,5.7037,5.6455,5.6297,5.5293,5.4894,5.4718,5.4046,5.3775,5.3709,5.3689,5.3649,5.3521,5.3235,5.2908,5.2586,5.2298,5.1958,5.1676,5.1646,5.1077,5.0557,5.0565,5.0188,4.9867,4.9898,4.9569,4.891,4.7617,4.6471,4.55,4.4849,4.4566,4.4437,4.439,4.4321,4.4258,4.4248,4.4143,4.3966,4.3626,4.3553,4.3328,4.2879,4.3137,4.3262,4.3169,4.3403,4.355,4.36,4.3521,4.3538,4.3624,4.3538,4.3504,5.1988,5.4572,5.6966,5.9352,6.1934,6.4179,6.5275,6.602,6.609,6.4768,6.2581,6.0398,5.8728,5.777,5.7645,5.8819,6.0721,6.2179,6.2589,6.3199,6.329,6.2439,6.1864,6.1525,6.1525,6.2464,6.332,6.3923,6.4911,6.6308,6.8187,6.8541,6.9176,7.0331,7.011,6.9711,6.9196,6.7658,6.6577,6.5923,6.46,6.3067,6.1365,6.1236,6.0309,5.8768,5.886,5.8992,5.9205,5.9225,5.9253,5.929,5.929,5.929,5.9309,5.9272,5.9262,5.9075,5.7779,5.7338,5.7152,5.6098,5.5482,5.4995,5.4279,5.3771,5.3442,5.3371,5.351,5.3561,5.3072,5.2906,5.2788,5.2347,5.2426,5.2528,5.221,5.2029,5.1833,5.1477,5.1006,5.0649,5.061,4.9998,4.9096,4.7831,4.664,4.5562,4.4693,4.4356,4.4177,4.4165,4.4044,4.3944,4.3921,4.3822,4.3742,4.3691,4.3651,4.3575,4.3462,4.3453,4.3436,4.3383,4.3358,4.334,4.3349,4.3268,4.325,4.3286,4.3124,4.3059,5.4638,5.7168,5.9474,6.1816,6.3516,6.4615,6.4585,6.4572,6.3889,6.156,5.9083,5.6838,5.5243,5.4338,5.4415,5.6167,5.8668,6.0743,6.1799,6.3374,6.4161,6.3385,6.3245,6.3207,6.3207,6.3246,6.3284,6.3322,6.5635,6.7403,6.8245,6.8945,6.9607,7.0286,6.991,6.9263,6.8333,6.7355,6.6024,6.4405,6.4205,6.3179,6.1506,6.1477,6.0548,5.8909,5.9109,5.9205,5.9206,5.9272,5.929,5.929,5.929,5.929,5.93,5.9225,5.9205,5.9102,5.839,5.8145,5.7987,5.6987,5.5957,5.5065,5.4816,5.4054,5.3287,5.3203,5.3588,5.3854,5.31,5.3184,5.3327,5.2764,5.3127,5.3441,5.2876,5.334,5.3465,5.2011,5.1643,5.1333,5.0586,4.9823,4.9052,4.8274,4.7472,4.6525,4.5304,4.4538,4.4053,4.3955,4.3829,4.3701,4.3589,4.3522,4.3427,4.3285,4.3276,4.3259,4.3196,4.3178,4.3178,4.3178,4.3169,4.3133,4.3077,4.3067,4.3002,4.2854,4.266,4.258,5.7436,5.9939,6.1915,6.2302,6.3613,6.4495,6.3263,6.2069,6.0394,5.7458,5.4441,5.1612,4.9278,4.9688,5.095,5.269,5.621,5.9261,6.0813,6.2515,6.3526,6.3308,6.3282,6.327,6.327,6.3872,6.4507,6.516,6.5833,6.6807,6.8148,6.8948,6.9651,7.0275,7.0101,6.9548,6.8621,6.7023,6.5662,6.4549,6.4245,6.3179,6.1506,6.1394,6.047,5.8974,5.9129,5.9225,5.9281,5.93,5.929,5.929,5.929,5.929,5.93,5.9225,5.9139,5.9024,5.8838,5.884,5.8756,5.7685,5.7068,5.6529,5.5583,5.4942,5.4524,5.4401,5.4411,5.4424,5.432,5.4357,5.4424,5.4385,5.4658,5.4875,5.4724,5.4845,5.4699,5.3734,5.2959,5.2215,5.1427,5.1128,5.0519,4.9135,4.8231,4.7224,4.5864,4.5523,4.5191,4.4566,4.4387,4.4033,4.3368,4.3233,4.3133,4.3004,4.3004,4.2995,4.2985,4.2985,4.2985,4.2985,4.2928,4.2833,4.2727,4.2639,4.2532,4.2442,4.23,4.2228,5.9818,6.1635,6.298,6.3082,6.3231,6.2818,6.076,5.8783,5.6363,5.2798,4.9754,4.7187,4.5362,4.607,4.777,5.024,5.4229,5.7877,6.0382,6.2546,6.4006,6.4397,6.4436,6.4436,6.4436,6.4878,6.5513,6.6365,6.6782,6.7518,6.8707,6.9534,7.0095,7.0383,6.9896,6.9003,6.7701,6.6224,6.5226,6.4726,6.4355,6.3469,6.2145,6.1657,6.0759,5.9605,5.9356,5.9262,5.929,5.929,5.929,5.929,5.929,5.9281,5.9234,5.9158,5.9003,5.8864,5.8794,5.8833,5.8799,5.8272,5.7699,5.704,5.6097,5.5351,5.4768,5.4521,5.4685,5.4903,5.4742,5.5118,5.5466,5.5334,5.5783,5.6142,5.5774,5.5933,5.5743,5.4385,5.3345,5.256,5.2079,5.1704,5.1158,5.0268,4.9148,4.8086,4.7237,4.6269,4.5496,4.502,4.4843,4.4538,4.3988,4.3565,4.3269,4.3134,4.2811,4.264,4.264,4.264,4.264,4.264,4.2599,4.251,4.2371,4.231,4.2218,4.2178,4.2026,4.1973,6.1756,6.2663,6.3286,6.3596,6.2365,6.0354,5.7579,5.4992,5.204,4.8062,4.5251,4.3315,4.262,4.3348,4.5117,4.8428,5.2509,5.6483,5.9987,6.2666,6.4628,6.5615,6.582,6.5904,6.5904,6.5904,6.6224,6.7039,6.7802,6.8589,6.9442,7.0268,7.0597,7.0363,6.9398,6.8103,6.6477,6.5398,6.4868,6.4898,6.4501,6.3854,6.296,6.2138,6.1321,6.0535,5.9788,5.9478,5.9478,5.9478,5.945,5.9459,5.9572,5.9562,5.9466,5.9218,5.9001,5.8805,5.8577,5.8486,5.8479,5.8593,5.7987,5.7118,5.6513,5.5673,5.4808,5.4397,5.4892,5.5452,5.502,5.5735,5.6513,5.6136,5.6795,5.7334,5.6629,5.6813,5.6553,5.4586,5.3447,5.2747,5.2567,5.1957,5.1457,5.1337,5.0148,4.9152,4.8894,4.6998,4.5602,4.5448,4.5299,4.5132,4.4881,4.4141,4.3642,4.3526,4.2824,4.2417,4.2417,4.231,4.2256,4.2256,4.2256,4.2194,4.2061,4.2157,4.2175,4.2111,4.1989,4.1927,6.2826,6.3636,6.3878,6.2393,6.0712,5.8397,5.4457,5.1121,4.79,4.4466,4.1794,4.0024,3.9879,4.1645,4.4029,4.6781,5.0786,5.4759,5.8231,6.0935,6.3095,6.4647,6.5455,6.5904,6.5904,6.5904,6.6224,6.7039,6.725,6.7961,6.9423,7.0318,7.0429,6.9612,6.8725,6.7764,6.6747,6.5661,6.5044,6.4898,6.4549,6.3873,6.2907,6.2755,6.224,6.1425,6.0688,6.037,6.037,6.037,6.0303,6.0283,6.0938,6.115,6.0983,6.0069,5.9651,5.9429,5.8691,5.8342,5.8264,5.8286,5.8086,5.7735,5.72,5.6747,5.6328,5.5936,5.6093,5.6407,5.6417,5.7018,5.7685,5.7814,5.8285,5.8673,5.8523,5.7856,5.6876,5.5589,5.455,5.3661,5.2889,5.263,5.2305,5.1569,5.1231,5.0718,4.9812,4.8193,4.6862,4.6125,4.5918,4.5513,4.4721,4.4417,4.4225,4.4139,4.3405,4.2955,4.2955,4.2377,4.2041,4.2041,4.2041,4.1987,4.1845,4.2452,4.2738,4.265,4.2639,4.2627,6.3057,6.3282,6.2912,6.1901,5.9364,5.6012,5.1751,4.7919,4.4188,4.0439,3.8397,3.7278,3.7278,3.9338,4.2008,4.5016,4.8688,5.2523,5.639,5.9536,6.2056,6.3718,6.5089,6.5885,6.5846,6.5846,6.6179,6.6946,6.7003,6.7766,6.9517,6.9997,6.9797,6.8855,6.7975,6.7053,6.6085,6.5464,6.5059,6.4898,6.4558,6.4158,6.3665,6.3202,6.2788,6.2376,6.1561,6.1224,6.1224,6.1156,6.105,6.0998,6.1319,6.1344,6.1137,6.061,6.0041,5.949,5.9065,5.8558,5.8077,5.802,5.795,5.7804,5.7326,5.6964,5.664,5.629,5.6346,5.6546,5.6742,5.729,5.7882,5.8224,5.8653,5.8994,5.8994,5.8161,5.7089,5.6056,5.5107,5.4162,5.3216,5.3005,5.2802,5.2346,5.1868,5.1351,5.0797,4.9688,4.8699,4.7983,4.7868,4.7399,4.6351,4.582,4.5315,4.4747,4.3954,4.3514,4.3514,4.3179,4.2985,4.2985,4.2985,4.2962,4.2889,4.3258,4.34,4.3377,4.3377,4.3377,6.2474,6.2417,6.176,6.1272,5.8125,5.3976,4.9507,4.5306,4.1235,3.7229,3.578,3.5273,3.5462,3.743,4.0069,4.3258,4.6471,4.9995,5.4054,5.7728,6.0685,6.2545,6.4442,6.5641,6.58,6.5767,6.5975,6.6571,6.6742,6.7662,6.9536,6.9639,6.9215,6.8315,6.7416,6.6447,6.5413,6.518,6.4989,6.4853,6.4558,6.4376,6.4308,6.3627,6.3296,6.3209,6.2376,6.1982,6.1972,6.1844,6.1751,6.1684,6.1725,6.1596,6.1358,6.1169,6.0483,5.9626,5.9426,5.8757,5.7985,5.7881,5.7815,5.7733,5.7369,5.6997,5.668,5.6373,5.6359,5.6492,5.6702,5.7165,5.7689,5.8205,5.8653,5.8965,5.8984,5.84,5.7581,5.6614,5.5697,5.4771,5.3816,5.3392,5.3178,5.3056,5.2418,5.189,5.1795,5.1239,5.0667,5.0213,4.9791,4.9162,4.8198,4.737,4.6542,4.5721,4.4777,4.4232,4.4232,4.4085,4.3974,4.3933,4.3933,4.3939,4.3904,4.4062,4.415,4.415,4.415,4.415,6.0779,6.1427,6.1434,5.9836,5.6856,5.2992,4.7969,4.3604,3.9652,3.6227,3.4883,3.4568,3.5346,3.6946,3.8988,4.16,4.422,4.7167,5.0668,5.4722,5.8256,6.0742,6.3168,6.4929,6.5717,6.5639,6.5554,6.5623,6.6253,6.7443,6.9323,6.9426,6.9042,6.8237,6.7262,6.6304,6.5413,6.5086,6.4843,6.4725,6.4501,6.4297,6.4123,6.4048,6.3938,6.3777,6.2965,6.261,6.26,6.2476,6.234,6.2294,6.2962,6.312,6.2887,6.2043,6.1203,6.0369,5.9512,5.8676,5.7997,5.7985,5.7904,5.7745,5.748,5.7264,5.7049,5.6662,5.6573,5.6586,5.6613,5.6902,5.7358,5.8183,5.8605,5.8857,5.8975,5.9015,5.8735,5.7662,5.6802,5.5924,5.4919,5.4083,5.3464,5.3222,5.3104,5.2964,5.2707,5.2619,5.2491,5.2327,5.0728,4.9546,4.9192,4.836,4.7784,4.7575,4.6165,4.5363,4.5363,4.4638,4.4203,4.4089,4.4078,4.402,4.3904,4.4624,4.4992,4.4992,4.4992,4.4992,5.914,5.9702,5.9312,5.8694,5.5202,5.0724,4.6186,4.1526,3.736,3.4496,3.3266,3.2949,3.3772,3.533,3.7331,3.9873,4.1989,4.4509,4.7932,5.1601,5.4855,5.737,6.0358,6.2689,6.3922,6.4388,6.4756,6.5112,6.5859,6.6637,6.7378,6.7591,6.7542,6.7191,6.6234,6.5523,6.5103,6.4853,6.4634,6.4463,6.4306,6.4143,6.3968,6.3968,6.3947,6.3875,6.3558,6.3395,6.335,6.3211,6.3044,6.285,6.3077,6.3075,6.2904,6.2543,6.1593,6.0436,6.0046,5.9079,5.7997,5.7997,5.7962,5.7892,5.7697,5.7486,5.7264,5.7041,5.6847,5.6689,5.6626,5.6816,5.719,5.7736,5.8198,5.8579,5.8826,5.9052,5.8934,5.8063,5.7651,5.6968,5.552,5.4866,5.4313,5.3556,5.3349,5.3212,5.306,5.3039,5.2988,5.2861,5.1973,5.1085,5.0336,4.9442,4.8657,4.8081,4.7002,4.6397,4.6397,4.6008,4.5739,4.5611,4.5529,4.5422,4.5296,4.5612,4.577,4.577,4.577,4.577,5.5769,5.6587,5.6314,5.591,5.255,4.8245,4.4037,3.9572,3.5615,3.3077,3.2083,3.1868,3.2449,3.3946,3.5869,0.0,0.0,4.2254,4.5639,4.9024,5.2177,5.4929,5.8228,6.0962,6.2734,6.3679,6.4379,6.4779,6.5292,6.5604,6.565,6.5887,6.6116,6.6366,6.5475,6.4946,6.4844,6.4634,6.4462,6.4294,6.4123,6.3958,6.3816,6.3764,6.3731,6.3698,6.3698,6.3673,6.3613,6.3488,6.3307,6.3141,6.299,6.288,6.2793,6.2793,6.1783,6.0401,6.0401,5.9355,5.7997,5.7997,5.7997,5.7985,5.7892,5.7697,5.7474,5.7319,5.699,5.664,5.6433,5.6582,5.6855,5.7265,5.7707,5.8183,5.8621,5.8935,5.8999,5.8531,5.8249,5.7687,5.6396,5.5875,5.5229,5.4102,5.3803,5.3584,5.3235,5.3196,5.3164,5.3082,5.2802,5.2313,5.1468,5.0588,4.9711,4.8824,4.8005,4.7445,4.7167,4.7007,4.6859,4.6661,4.653,4.6374,4.6196,4.6196,4.6196,4.6196,4.6196,4.6196,5.0022,5.17,5.255,5.088,4.8639,4.5702,4.1421,3.7886,3.4788,3.2234,3.1715,3.1695,3.1715,3.3086,3.4779,3.6446,3.818,4.0492,4.3859,4.7259,5.0663,5.4027,5.7317,6.0271,6.267,6.3993,6.4679,6.4606,6.4482,6.4491,6.4615,6.4624,6.5086,6.6062,6.5187,6.4697,6.4697,6.4511,6.4365,6.4294,6.4031,6.3797,6.359,6.3458,6.3342,6.3213,6.3213,6.3213,6.3201,6.3063,6.3014,6.299,6.2842,6.2793,6.2793,6.2793,6.1783,6.0401,6.0401,5.9355,5.7997,5.7997,5.7997,5.7997,5.7997,5.7897,5.7733,5.7461,5.6925,5.6328,5.5989,5.6049,5.6346,5.6886,5.7265,5.7689,5.8363,5.8764,5.9042,5.9167,5.8606,5.8025,5.7809,5.7107,5.6143,5.4892,5.4691,5.4332,5.3338,5.3196,5.3196,5.3196,5.3082,5.2883,5.2613,5.1893,5.1085,5.0148,4.9322,4.8471,4.7518,4.7374,4.7143,4.6789,4.6661,4.6459,4.6196,4.6196,4.6196,4.6196,4.6196,4.6196,4.5468,4.6843,4.754,4.7158,4.4714,4.1776,3.9319,3.6147,3.333,3.1984,3.1234,3.0981,3.158,3.2583,3.4064,3.633,3.7661,3.9604,4.3008,4.5398,4.8226,5.2094,5.6862,6.0536,6.2314,6.3247,6.3917,6.4366,6.4364,6.4354,6.4394,6.4394,6.4604,6.5049,6.4709,6.4501,6.4501,6.4385,6.4225,6.4029,6.3937,6.3742,6.3458,6.3424,6.3331,6.3201,6.3201,6.3153,6.3063,6.3014,6.2953,6.2855,6.2823,6.2793,6.2738,6.2181,6.1318,6.0327,5.9765,5.8896,5.7997,5.7997,5.7997,5.7985,5.7886,5.7827,5.7709,5.7239,5.6702,5.6207,5.5961,5.5879,5.5968,5.6373,5.6816,5.7302,5.7835,5.8315,5.8721,5.8941,5.8846,5.852,5.7911,5.7457,5.687,5.5805,5.504,5.4423,5.4061,5.3544,5.3196,5.3196,5.3164,5.3071,5.2893,5.2076,5.1428,5.114,5.0337,4.9727,4.943,4.9113,4.8579,4.7766,4.7542,4.7023,4.6196,4.6196,4.6196,4.6196,4.6196,4.6196,4.043,4.1875,4.2426,4.2221,4.0342,3.8115,3.6493,3.4212,3.2213,3.1407,3.0799,3.0578,3.1117,3.2147,3.3622,3.5888,3.7507,3.9681,4.3085,4.5278,4.8424,5.348,5.7987,6.1233,6.2642,6.3357,6.3776,6.3835,6.3804,6.3653,6.3374,6.3355,6.3565,6.403,6.4244,6.4365,6.4365,6.4324,6.4193,6.3968,6.3902,6.3728,6.347,6.3366,6.3284,6.3201,6.3201,6.3153,0.0,6.3075,6.299,6.288,6.288,6.2842,6.2701,6.1906,6.108,6.0279,5.949,5.8664,5.7997,5.7997,5.7962,5.7886,5.7709,5.7613,5.7461,5.699,5.6532,5.6137,5.5893,5.5721,5.5724,5.6113,5.6532,5.6984,5.7474,5.7999,5.8465,5.8706,5.8862,5.8785,5.8231,5.8036,5.7604,5.6591,5.5871,5.53,5.4898,5.4418,5.4106,5.4106,5.4063,5.388,5.3504,5.2641,5.1995,5.1685,5.1121,5.0624,5.0235,4.9934,4.9385,4.8562,4.8328,4.7835,4.7074,4.7074,4.7074,4.7074,4.7074,4.7074,0.0,3.6892,3.7439,3.6641,3.5846,3.4833,3.3271,3.2249,0.0,3.0658,3.0458,3.0414,3.0472,3.1816,3.3487,3.5288,3.7677,4.0469,4.3812,4.675,5.0911,5.7243,6.0121,6.2136,6.3491,6.4056,6.3992,6.3169,6.2928,6.2514,6.1844,6.1797,6.2163,6.2989,6.3731,6.4182,6.4294,6.4294,6.4234,6.4092,6.391,6.3754,6.3602,6.3287,6.3181,6.3225,6.3151,6.3169,6.3225,6.3213,6.3135,6.3039,6.3026,6.2941,6.2726,6.1857,6.1067,6.0303,5.9428,5.8639,5.7997,5.7997,5.7897,5.7733,5.7492,5.7289,5.7092,5.6707,5.6387,5.6081,5.5782,5.5593,5.561,5.6057,5.6373,5.6733,5.7239,5.7768,5.8201,5.8425,5.8667,5.8818,5.8706,5.8675,5.831,5.7247,5.7026,5.6669,5.5798,5.564,5.5603,5.5592,5.5474,5.5091,5.4319,5.3526,5.2732,5.1906,5.1744,5.1235,5.0274,5.0103,4.9762,4.9182,4.8964,4.8746,4.8508,4.8508,4.8508,4.8508,4.8508,4.8525,3.056,0.0,3.4138,3.3975,3.331,3.2564,0.0,3.1409,3.0737,3.0546,3.0449,3.0607,3.1264,3.222,3.368,3.6023,3.7997,4.0394,4.3751,4.9209,5.4146,5.7664,6.0166,6.22,6.3685,6.3176,6.285,6.3144,6.2474,6.1974,6.1806,6.1797,6.1881,6.2088,6.2285,6.2999,6.4294,6.4294,6.4234,6.4102,6.405,6.3942,6.3736,6.3011,6.297,6.3462,6.2795,6.2888,6.35,6.3389,6.3324,6.3307,6.3183,6.3141,6.2933,6.1506,6.0803,6.0353,5.8924,5.8242,5.7997,5.7997,5.7827,5.7625,5.7437,5.715,5.6834,5.6532,5.6134,5.5811,5.5706,5.5593,5.5552,5.5767,5.6067,5.6414,5.6847,5.7276,5.7697,5.8047,5.8246,5.8386,5.8459,5.8386,5.8242,5.795,5.7309,5.6771,5.6547,5.5978,5.557,5.5452,5.5418,5.5243,5.4846,5.4157,5.3378,5.2462,5.2332,5.2095,5.164,5.1394,5.0821,4.9875,4.902,4.8555,4.8508,4.8543,4.8591,4.8591,4.8525,4.8508,2.8541,3.0103,3.1443,3.1881,3.1639,3.1299,3.1269,3.088,3.0554,3.0554,3.079,3.1259,3.2149,3.3285,3.492,3.744,3.9588,4.2654,4.7544,5.2368,5.6357,5.8898,6.0968,6.262,6.3704,6.3183,6.2754,6.2655,6.177,6.1074,6.0661,6.0642,6.083,6.1243,6.1243,6.1862,6.3149,6.3149,6.3119,6.3031,6.298,6.2907,6.2774,6.2273,6.2258,6.264,6.2529,6.2741,6.3207,6.3505,6.3617,6.3553,6.3066,6.2831,6.2588,6.0914,6.0248,5.9996,5.8666,5.8099,5.8052,5.8437,5.8406,5.8215,5.8013,5.7706,5.7301,5.6599,5.6106,5.5779,5.5706,5.5593,5.5537,5.568,5.5954,5.6281,5.6559,5.699,5.7388,5.7673,5.7939,5.8141,5.8208,5.8208,5.8186,5.8129,5.7675,5.7354,5.7354,5.6923,5.655,5.6423,5.6306,5.5964,5.5334,5.4894,5.4134,5.2953,5.2473,5.2102,5.1845,5.1695,5.1279,5.0571,4.9925,4.9609,4.9609,4.9644,4.9657,4.9644,4.9627,4.9609,2.7962,2.8803,2.9651,3.0651,3.0994,3.1067,3.1004,0.0,0.0,0.0,0.0,3.2356,3.3221,3.4751,3.6697,3.9176,4.2003,4.6066,5.2271,5.5172,5.7608,6.0164,6.1893,6.3047,6.3476,6.3384,6.2877,6.1883,6.0924,6.0069,5.9328,5.929,5.9628,6.0351,6.0388,6.0717,6.1421,6.1665,6.1797,6.1797,6.1671,6.1621,6.1621,6.1448,6.1426,6.1576,6.2145,6.2519,6.2818,6.347,6.3715,6.3592,6.2825,6.2395,6.197,6.0361,5.9769,5.9582,5.8563,5.8191,5.8309,5.8976,5.9187,5.9115,5.8767,5.8473,5.8026,5.6855,5.6227,5.5904,5.5764,5.5651,5.5578,5.5692,5.5968,5.6239,5.6373,5.6781,5.7176,5.7326,5.7673,5.795,5.7962,5.8077,5.8141,5.802,5.7997,5.7997,5.7973,5.7839,5.7709,5.7565,5.7289,5.6752,5.5803,5.5484,5.4787,5.3503,5.264,5.2065,5.1796,5.1651,5.1462,5.1241,5.1028,5.0904,5.0904,5.0904,5.0904,5.0904,5.0904,5.0904,2.7846,2.8863,2.9863,3.1411,3.2305,3.2815,3.2794,3.2755,3.2716,0.0,3.3352,3.4146,3.4966,3.6489,3.8431,4.0901,4.5067,4.9335,5.3212,5.5301,5.7406,6.0025,6.1792,6.2784,6.2686,6.2511,6.1979,6.0988,6.0022,5.9422,5.9234,5.9224,5.9281,5.9412,5.9412,5.9497,5.9684,6.1093,6.1797,6.1797,6.1778,6.1768,6.1749,6.1045,6.112,6.173,6.1157,6.1739,6.3042,6.3055,6.3042,6.3021,6.2768,6.2249,6.151,6.0482,6.0023,5.9719,5.8596,5.8548,5.9049,5.9159,5.9571,5.9883,5.9158,5.8755,5.8323,5.7347,5.6622,5.6109,5.5918,5.5861,5.5847,5.5861,5.6035,5.6239,5.6373,5.6635,5.692,5.7176,5.7449,5.7697,5.7804,5.7939,5.802,5.8008,5.7997,5.7962,5.7857,5.7709,5.7541,5.7294,5.7028,5.6688,5.6317,5.553,5.4859,5.4421,5.3824,5.3398,5.3131,5.2341,5.1907,5.1866,5.1238,5.0904,5.0904,5.0904,5.0904,5.0904,5.0904,5.0904,2.7829,2.922,3.0594,3.2283,3.2958,3.3318,3.3748,3.3824,3.404,3.4914,3.5749,3.6707,3.8015,3.9623,4.1837,4.516,4.8953,5.2357,5.4807,5.6527,5.8171,5.987,6.1131,6.1788,6.1694,6.1504,6.1202,6.0734,5.9825,5.9272,5.9196,5.9205,5.9205,5.9205,5.9205,5.9234,5.929,6.006,6.0454,6.0454,6.0454,6.0454,6.0435,6.0079,6.0097,6.0454,6.0567,6.1036,6.1778,6.2151,6.23,6.2263,6.1772,6.1341,6.09,5.9912,5.9392,5.9128,5.9002,5.9065,5.9343,6.0205,6.0713,6.0799,5.992,5.9554,5.9163,5.7708,5.6938,5.6492,5.6324,5.6213,5.6175,5.6175,5.63,5.6424,5.6492,5.6715,5.6951,5.7079,5.7381,5.7625,5.7685,5.7851,5.7997,5.7997,5.7939,5.7839,5.7709,5.7498,5.7239,5.6912,5.6689,5.6437,5.6049,5.5632,5.4967,5.401,5.3647,5.3411,5.3303,5.2463,5.2,5.2,5.1277,5.0904,5.0904,5.0904,5.0904,5.0904,5.0904,5.1101,2.7829,2.9377,3.0946,3.2834,3.3697,3.4292,3.5116,3.5579,3.6266,3.7685,3.8798,3.9903,4.1216,4.2985,4.5438,4.9075,5.1916,5.4334,5.6197,5.76,5.8782,5.9725,6.0518,6.0882,6.0667,6.0675,6.0603,6.0387,5.9712,5.9272,5.9196,5.9205,5.9205,5.9205,5.9205,5.9234,5.929,5.929,5.929,5.929,5.929,5.929,5.929,5.929,5.929,5.9347,6.0022,6.0417,6.0651,6.1262,6.1524,6.1449,6.0848,6.0473,6.0172,5.9295,5.8772,5.859,5.9309,5.9523,5.971,6.1135,6.1606,6.1435,6.0518,6.0127,5.9621,5.7966,5.7264,5.699,5.6742,5.6626,5.6532,5.6532,5.6635,5.6728,5.6728,5.6938,5.7087,5.7087,5.7388,5.7649,5.7649,5.7839,5.7997,5.7997,5.7892,5.7733,5.7559,5.7313,5.7003,5.66,5.6383,5.6106,5.5695,5.5651,5.5141,5.3961,5.3806,5.3749,5.3749,5.298,5.2457,5.2281,5.154,5.1154,5.1154,5.1154,5.1242,5.1448,5.1448,5.1733,2.7829,2.8928,3.0187,3.2678,3.5024,3.6939,3.774,3.9126,4.0473,4.1285,4.2772,4.3958,4.4021,4.6004,4.8459,5.0932,5.2604,5.444,5.6884,5.7813,5.8576,5.9502,6.0388,6.056,5.9689,6.0283,6.035,5.9478,5.9337,5.9272,5.9196,5.9205,5.9205,5.9205,5.9205,5.9234,5.929,5.929,5.929,5.929,5.929,5.929,5.929,5.929,5.929,5.929,5.9365,5.9853,6.0595,6.0651,6.0698,6.067,6.0614,6.0078,5.9261,5.9008,5.8719,5.8579,5.9201,5.9821,6.0456,6.1318,6.1606,6.1447,6.0627,5.9863,5.9057,5.8041,5.7745,5.7613,5.71,5.6964,5.6964,5.6964,5.7067,5.7168,5.7168,5.7282,5.7363,5.7363,5.7601,5.778,5.778,5.7897,5.7997,5.7997,5.7892,5.7709,5.7455,5.7176,5.686,5.6469,5.6116,5.5822,5.5537,5.5507,5.5472,5.5349,5.5349,5.5317,5.5317,5.4545,5.3805,5.3134,5.233,5.1912,5.1912,5.1912,5.2312,5.3029,5.3029,5.3064,2.7829,2.8889,3.0244,3.3336,3.6001,3.8064,3.8832,4.0308,4.2183,4.4546,4.556,4.6327,4.7356,4.8673,5.0227,5.2139,5.3606,5.5195,5.709,5.7851,5.8523,5.9425,5.9756,5.9767,5.9402,5.9646,5.9675,5.9328,5.929,5.9272,5.9196,5.869,5.839,5.839,5.7904,5.7697,5.7807,5.7807,5.7807,5.7826,5.8821,5.929,5.929,5.929,5.929,5.929,5.929,5.9497,5.9797,5.9797,5.9797,5.9788,5.975,5.9515,5.9177,5.8881,5.8656,5.8579,5.919,5.9846,6.0456,6.075,6.119,6.1355,6.004,5.9435,5.9019,5.8177,5.7851,5.7733,5.7455,5.7363,5.7363,5.7363,5.74,5.7455,5.7455,5.7492,5.751,5.751,5.7673,5.7792,5.7792,5.7916,5.7997,5.7997,5.7815,5.7613,5.7412,5.7168,5.6847,5.6437,5.6021,5.5735,5.5637,5.5552,5.5493,5.5493,5.5493,5.5493,5.5493,5.4735,5.4173,5.3892,5.312,5.2765,5.2765,5.2765,5.2906,5.3187,5.3187,5.345,2.7826,2.8887,3.0324,3.3745,0.0,3.8811,4.0369,4.2231,4.4515,4.7608,4.8422,4.8951,5.0109,5.0701,5.144,5.2782,5.4199,5.5577,5.6835,5.7756,5.8509,5.9102,5.9278,5.9355,5.9355,5.9327,5.929,5.929,5.9065,5.8906,5.8859,5.8063,5.7585,5.7585,5.7051,5.6806,5.6887,5.6887,5.6887,5.6915,5.8014,5.8671,5.8933,5.9178,5.929,5.929,5.929,5.929,5.929,5.929,5.929,5.9281,5.9225,5.9167,5.907,5.875,5.854,5.85,5.9065,5.9568,5.9999,6.0201,6.0506,6.0579,5.9467,5.8996,5.8701,5.8143,5.7939,5.7839,5.7745,5.7697,5.7661,5.7661,5.7697,5.7733,5.7733,5.7733,5.7733,5.7733,5.7792,5.7851,5.7851,5.7939,5.7997,5.7997,5.7804,5.7607,5.7492,5.7244,5.6912,5.6505,5.6092,5.5868,5.5868,5.5666,5.5549,5.5549,5.5522,5.5493,5.5493,5.4966,5.4545,5.4314,5.3805,5.3556,5.3556,5.3556,5.3678,5.3942,5.3942,5.4191,2.7837,2.8881,3.0327,3.377,3.6531,3.9287,4.2659,4.5395,4.7919,5.0418,5.1578,5.211,5.211,5.2001,5.2157,5.2883,5.4237,5.5428,5.6101,5.7515,5.8469,5.8488,5.9072,5.9474,5.9474,5.9364,5.9271,5.9271,5.853,5.8098,5.8098,5.7338,5.6887,5.6887,5.6877,5.6877,5.6877,5.6877,5.6877,5.6877,5.6868,5.7319,5.8136,5.8933,5.929,5.929,5.929,5.929,5.929,5.929,5.929,5.93,5.9225,5.9089,5.8859,5.8604,5.8378,5.8274,5.8796,5.8987,5.9109,5.9766,5.9529,5.9005,5.8987,5.8533,5.7997,5.7997,5.7997,5.7997,5.7997,5.7904,5.7792,5.7792,5.7897,5.7997,5.7997,5.7997,5.7997,5.7997,5.7997,5.7997,5.7997,5.7997,5.7997,5.7997,5.7892,5.7745,5.7625,5.7381,5.7054,5.6653,5.6359,5.6211,5.6211,5.5897,5.5692,5.5692,5.5581,5.5493,5.5493,5.5493,5.5124,5.4331,5.4299,5.4299,5.4299,5.4299,5.472,5.5493,5.5493,5.5493,2.7778,2.8855,3.0471,3.4508,3.7436,4.0345,4.4321,4.6734,4.9013,5.2145,5.3487,5.3879,5.3267,5.3056,5.3195,5.3949,5.4338,5.5014,5.6303,5.674,5.715,5.7666,5.7788,5.7793,5.7751,5.7663,5.76,5.76,5.7394,5.7263,5.7263,5.6446,5.5996,5.5996,5.5441,5.5141,5.5141,5.5141,5.5141,5.5141,5.5714,5.6728,5.8117,5.8342,5.8755,5.9271,5.8699,5.8783,5.929,5.929,5.9272,5.9215,5.9101,5.8942,5.8727,5.8418,5.819,5.8056,5.8019,5.8379,5.8799,5.8434,5.8616,5.8896,5.8341,5.8087,5.7997,5.7997,5.7997,5.7997,5.7997,5.7973,5.7939,5.7939,5.7973,5.7997,5.7997,5.7997,5.7997,5.7997,5.7997,5.7997,5.7997,5.7997,5.7997,5.7997,5.7892,5.7745,5.7625,5.7455,5.7251,5.7036,5.6781,5.6546,5.6359,5.6151,5.5954,5.5706,5.5648,5.5593,5.5493,5.5493,5.5387,5.5142,5.5142,5.5142,5.5142,5.5142,5.5265,5.5493,5.5593,5.5637,2.7703,2.9308,3.1435,3.5392,3.8801,4.2403,4.6979,4.9089,5.0723,5.3149,5.4033,5.4334,5.4157,5.3706,5.3492,5.3923,5.4174,5.4655,5.5561,5.6108,5.6561,5.699,5.7105,5.7104,5.7058,5.6948,5.6887,5.6887,5.6587,5.638,5.638,5.5583,5.5114,5.5114,5.4334,5.4079,5.4409,5.4079,5.4079,5.4409,5.4888,5.5827,5.7122,5.746,5.7901,5.8314,5.7826,5.7901,5.8333,5.8287,5.8428,5.8652,5.8468,5.8462,5.85,5.8223,5.7973,5.7733,5.7528,5.7752,5.8067,5.7539,5.7856,5.8348,5.7867,5.7839,5.7997,5.7997,5.7997,5.7997,5.7997,5.7997,5.7997,5.7997,5.7997,5.7997,5.7997,5.7997,5.7997,5.7997,5.7997,5.7997,5.7997,5.7997,5.7985,5.7939,5.7839,5.7745,5.7625,5.7577,5.7516,5.7363,5.7181,5.6951,5.6728,5.6492,5.6235,5.5925,5.5764,5.5637,5.5507,5.5493,5.5493,5.5493,5.5493,5.5493,5.5493,5.5493,5.5522,5.5578,5.5648,5.5782,2.7648,3.0004,3.2808,3.6232,4.0506,4.5069,4.9779,5.1593,5.2527,5.3488,5.3631,5.383,5.4625,5.3973,5.3296,5.3215,5.3827,5.4274,5.4206,5.5472,5.6351,5.6283,5.6702,5.6968,5.6888,5.6757,5.6643,5.6577,5.5827,5.5358,5.5274,5.4569,5.4165,5.4165,5.346,5.3441,5.4156,5.3433,5.3462,5.4252,5.4252,5.4683,5.55,5.6371,5.6774,5.6784,5.6832,5.6823,5.6748,5.6714,5.7145,5.7837,5.7581,5.7796,5.8231,5.8024,5.7697,5.7344,5.7219,5.7168,5.7143,5.7041,5.7269,5.7577,5.7601,5.778,5.7985,5.7997,5.7997,5.7997,5.7997,5.7997,5.7997,5.7997,5.7997,5.7997,5.7997,5.7997,5.7997,5.7997,5.7997,5.7997,5.7997,5.7997,5.7962,5.7815,5.7792,5.7756,5.7637,5.7733,5.7768,5.7637,5.7516,5.7363,5.7201,5.686,5.6532,5.6239,5.5925,5.568,5.5522,5.5507,5.5493,5.5493,5.5493,5.5493,5.5493,5.5493,5.5581,5.5692,5.5721,5.5925,2.7637,2.9972,3.2759,3.6224,4.1789,4.6864,4.8596,5.0137,5.1671,5.3293,5.36,5.3649,5.3774,5.3565,5.3366,5.3282,5.3382,5.343,5.3366,5.4195,5.472,5.4567,5.5038,5.5348,5.5225,5.5045,5.468,5.4042,5.3816,5.3422,5.273,5.2523,5.2437,5.2437,5.2268,5.2236,5.2365,5.2196,5.2481,5.3217,5.3217,5.3639,5.4462,5.5428,5.5848,5.5823,5.6416,5.6285,5.5687,5.6351,5.6994,5.7571,5.7419,5.7563,5.7886,5.7607,5.7264,5.6925,5.6899,5.6821,5.6755,5.6938,5.7143,5.7332,5.7541,5.7709,5.7851,5.7973,5.7997,5.7997,5.7997,5.7997,5.7997,5.7997,5.7997,5.7997,5.7997,5.7997,5.7997,5.7997,5.7997,5.7997,5.7997,5.7997,5.7962,5.7815,5.7792,5.778,5.7756,5.7862,5.7916,5.7768,5.7733,5.7559,5.7244,5.7112,5.6873,5.6387,5.6179,5.5954,5.568,5.5566,5.5493,5.5493,5.5493,5.5493,5.5493,5.5493,5.5581,5.5724,5.5968,5.6249,2.7637,2.9953,3.3222,3.8733,4.3348,4.6851,4.8074,4.9038,4.9915,5.0879,5.202,5.2995,5.3336,5.3014,5.2675,5.2642,5.2568,5.2527,5.2536,5.3196,5.36,5.3442,5.3598,5.3641,5.3527,5.3314,5.3038,5.2615,5.2577,5.2381,5.1922,5.1904,5.1887,5.1855,5.1471,5.1395,5.1643,5.1269,5.145,5.2192,5.2192,5.262,5.3458,5.4442,5.4825,5.4754,5.5147,5.5016,5.4615,5.5006,5.5588,5.6267,5.6428,5.679,5.7226,5.7285,5.7087,5.6794,5.6728,5.6667,5.6626,5.6755,5.699,5.7244,5.7381,5.7601,5.7815,5.7874,5.795,5.7997,5.7997,5.7997,5.7997,5.7997,5.7997,5.7997,5.7997,5.7997,5.7997,5.7997,5.7997,5.7997,5.7997,5.7886,5.778,5.7721,5.7709,5.7709,5.7709,5.7881,5.7973,5.7897,5.7904,5.778,5.7498,5.7381,5.7087,5.6626,5.6414,5.6123,5.5724,5.5637,5.5566,5.5493,5.5493,5.5537,5.5593,5.5593,5.5753,5.6035,5.6221,5.6505,2.7464,3.0065,3.4001,4.0987,4.415,4.5968,4.7492,4.8066,4.8264,4.8279,4.9957,5.1638,5.2288,5.1766,5.1236,5.1226,5.118,5.1198,5.1417,5.2083,5.2566,5.2575,5.2485,5.2368,5.2217,5.2024,5.1845,5.1705,5.1686,5.1622,5.1491,5.1491,5.144,5.1366,5.0704,5.0586,5.1048,5.0379,5.0401,5.1138,5.1287,5.1741,5.2474,5.3245,5.372,5.3926,5.3889,5.3851,5.3784,5.3689,5.4112,5.4914,5.5421,5.5987,5.6596,5.7023,5.7028,5.6742,5.6649,5.6626,5.6613,5.6653,5.6822,5.7002,5.7039,5.734,5.7626,5.7649,5.7852,5.8054,5.8031,5.8031,5.8031,5.8008,5.7997,5.7997,5.7997,5.7997,5.7997,5.7997,5.7997,5.7997,5.7997,5.7792,5.7637,5.7637,5.7637,5.7637,5.7637,5.7857,5.7997,5.7997,5.7997,5.795,5.7804,5.7601,5.7361,5.7097,5.6824,5.6486,5.6048,5.5961,5.5792,5.5537,5.5537,5.5578,5.5692,5.575,5.6011,5.6401,5.6465,5.6768,2.6723,3.0433,3.5018,3.9015,4.2321,4.4843,4.5822,4.7124,4.8134,4.813,4.8431,4.873,4.8782,4.8635,4.8519,4.8523,4.8507,4.8757,4.9458,5.0257,5.0985,5.1591,5.2143,5.2414,5.2224,5.2063,5.1665,5.0914,5.085,5.0568,4.9865,4.9828,4.977,4.9645,4.9468,4.9345,4.9242,4.907,4.937,5.0111,5.0814,5.1231,5.1389,5.1538,5.2466,5.3982,5.387,5.3804,5.3803,5.3775,5.4141,5.4782,5.5446,5.5916,5.6328,5.6979,5.6964,5.664,5.6728,5.6707,5.664,5.6873,5.6584,5.6199,5.6449,5.6709,5.6957,5.707,5.7707,5.8327,5.8208,5.8174,5.8133,5.8031,5.7997,5.7997,5.7997,5.7997,5.7997,5.7997,5.7997,5.7997,5.7997,5.7862,5.7768,5.7768,5.7768,5.7768,5.7768,5.7916,5.7997,5.7997,5.7997,5.795,5.7804,5.7768,5.7869,5.8177,5.7926,5.7648,5.7362,5.6963,5.6411,5.568,5.568,5.5677,5.5692,5.5982,5.6239,5.6414,5.6755,5.7074,2.7171,3.0203,3.3696,3.6596,3.9451,4.1897,4.3203,4.4795,4.5976,4.5969,4.632,4.6906,4.7768,4.7905,4.7888,4.7849,4.7865,4.8012,4.8426,4.8788,4.9116,4.9388,4.9993,5.0311,5.0142,5.0451,5.0278,4.9374,4.931,4.8953,4.8131,4.8055,4.7975,4.7852,4.7743,4.7595,4.7389,4.7311,4.7647,4.8338,4.9214,4.9897,5.0369,5.0944,5.1658,5.2429,5.2363,5.2575,5.2953,5.2953,5.3376,5.4088,5.4775,5.5119,5.5373,5.6387,5.6635,5.6559,5.698,5.7105,5.7092,5.7264,5.6855,5.6302,5.6426,5.6324,5.6287,5.6813,5.7298,5.7751,5.8102,5.8197,5.8174,5.8031,5.7997,5.7997,5.7997,5.7997,5.7997,5.7997,5.7997,5.7997,5.7997,5.7892,5.7792,5.7792,5.7792,5.7792,5.7792,5.7927,5.7997,5.7997,5.7997,5.7973,5.7927,5.8248,5.8525,5.8625,5.8805,5.8741,5.8407,5.7562,5.6902,5.6376,5.5921,5.5796,5.5982,5.629,5.6573,5.686,5.7118,5.7381,2.7403,2.9317,3.149,3.3989,3.6322,3.8502,4.0396,4.2124,4.338,4.3602,4.4421,4.5371,4.6336,4.6844,4.7122,4.7041,4.7089,4.7215,4.7499,4.7543,4.7597,4.7735,4.816,4.8346,4.8186,4.8678,4.8682,4.7935,4.7864,4.7594,4.6952,4.6881,4.6805,4.6682,4.6533,4.6367,4.6205,4.6091,4.6305,4.681,4.7491,4.8172,4.8817,4.9788,5.0241,5.0315,5.0991,5.1584,5.2119,5.2352,5.2796,5.3387,5.4332,5.4627,5.4678,5.5859,5.6234,5.6237,5.6774,5.6969,5.6993,5.7093,5.6672,5.6065,5.6065,5.5845,5.5731,5.6554,5.6987,5.7389,5.808,5.8264,5.8208,5.8031,5.7997,5.7997,5.7997,5.7997,5.7997,5.7997,5.7997,5.7997,5.7997,5.7927,5.7839,5.7839,5.7839,5.7839,5.7839,5.7939,5.7997,5.7997,5.7997,5.8008,5.8042,5.8714,5.9139,5.9243,5.9774,5.9887,5.9514,5.8534,5.7726,5.7093,5.6451,5.6148,5.6197,5.6532,5.6873,5.7201,5.7418,5.7613,2.6703,2.7575,2.8798,3.1273,3.3188,3.5129,3.7623,3.9492,4.0904,4.1673,4.3127,4.4006,4.3134,4.4262,4.5314,4.5253,4.5247,4.5555,4.6456,4.6576,4.6839,4.7537,4.7634,4.7549,4.7281,4.731,4.7231,4.699,4.6975,4.6888,4.6715,4.6707,4.6679,4.6613,4.6405,4.6262,4.6205,4.601,4.5929,4.5957,4.6003,4.6131,4.6312,4.7212,4.767,4.7934,5.0421,5.1506,5.1608,5.2498,5.2816,5.2893,5.4522,5.497,5.4798,5.5618,5.5782,5.5577,5.5724,5.5794,5.5797,5.5876,5.5438,5.4894,5.4894,5.5054,5.5387,5.6197,5.6979,5.772,5.8339,5.8451,5.8327,5.8054,5.7997,5.7997,5.7997,5.7997,5.7997,5.7997,5.7997,5.7997,5.7997,5.7997,5.7985,5.7985,5.7985,5.7985,5.7985,5.7997,5.7997,5.7997,5.7997,5.8042,5.8186,5.8922,5.9702,6.0451,6.1001,6.1177,6.0918,6.028,5.9202,5.7582,5.7338,5.6876,5.6197,5.6715,5.7067,5.7219,5.7601,5.778,2.5986,2.6606,2.7503,2.8917,3.0521,3.2272,3.4276,3.6469,3.8281,3.9096,4.1033,4.2471,4.2059,4.3293,4.4173,4.358,4.3531,4.3678,4.4004,4.4532,4.499,4.5191,4.6094,4.6625,4.6446,4.6814,4.6792,4.6121,4.5997,4.5666,4.5057,4.4993,4.4965,4.4925,4.4776,4.4618,4.4473,4.4404,4.4617,4.5122,4.5122,4.5424,4.6002,4.643,4.6933,4.754,4.8732,4.9823,5.075,5.1134,5.1898,5.2889,5.3495,5.3972,5.4409,5.5178,5.5397,5.5382,5.5952,5.6147,5.6167,5.6286,5.5768,5.5118,5.5118,5.482,5.4773,5.6145,5.6675,5.7089,5.8212,5.8462,5.8338,5.8054,5.7997,5.7997,5.7997,5.7997,5.7997,5.7997,5.7997,5.7997,5.7997,5.7997,5.7997,5.7997,5.7997,5.7997,5.7997,5.7997,5.7997,5.7997,5.7997,5.8256,5.8915,5.97,6.0598,6.1579,6.2118,6.2352,6.2159,6.1121,6.0191,5.9416,5.8613,5.7622,5.6469,5.6821,5.7168,5.7449,5.7697,5.7857,2.5606,2.5939,2.6489,2.7303,2.8329,2.9561,3.1237,3.3391,3.5243,3.6061,3.8462,4.0334,4.0002,4.1222,4.2367,4.26,4.2668,4.2694,4.2695,4.3172,4.3609,4.3817,4.4693,4.5357,4.548,4.5888,4.5824,4.5122,4.4971,4.4662,4.4023,4.3968,4.3902,4.387,4.3775,4.3669,4.3506,4.3506,4.3763,4.4305,4.4305,4.458,4.5103,4.5557,4.6068,4.6637,4.7254,4.8431,4.9954,5.0341,5.1141,5.2192,5.2715,5.3222,5.3728,5.4531,5.4811,5.4885,5.5492,5.5697,5.5716,5.5837,5.548,5.4994,5.4994,5.4619,5.4545,5.6229,5.6594,5.6794,5.8208,5.8411,5.8219,5.8042,5.7997,5.7997,5.7997,5.7997,5.7997,5.7997,5.7997,5.7997,5.7997,5.7997,5.7997,5.7997,5.7997,5.7997,5.7997,5.7997,5.7997,5.7997,5.7997,5.8396,5.9377,6.0245,6.1195,6.2272,6.2914,6.3194,6.3008,6.2022,6.1206,6.0598,5.9773,5.8733,5.7536,5.7452,5.7473,5.7613,5.8007,5.843,0.0,0.0,0.0,2.6468,2.6605,2.7005,2.8646,3.0352,3.1814,3.2622,3.543,3.7517,3.6738,3.7905,3.9755,4.2101,4.2529,4.2557,4.2593,4.255,4.2803,4.3534,4.352,4.3718,4.4353,4.4351,4.4214,4.3946,4.3941,4.39,4.3767,4.3777,4.3736,4.3599,4.3599,4.3565,4.3506,4.3506,4.3506,4.3506,4.3506,4.3506,4.3533,4.4446,4.4919,4.5058,4.612,4.753,4.9195,5.0215,5.0606,5.0742,5.2315,5.2828,5.2808,5.3728,5.4036,5.4037,5.4219,5.4281,5.4317,5.4375,5.4409,5.4409,5.4409,5.4409,5.4747,5.6399,5.6733,5.692,5.8322,5.8356,5.8008,5.8008,5.8008,5.8008,5.8008,5.8008,5.8008,5.7997,5.7997,5.7997,5.7997,5.7997,5.7997,5.7997,5.7997,5.7997,5.7997,5.7997,5.7997,5.7997,5.8015,5.8467,5.9545,6.0504,6.1496,6.2569,6.3362,6.368,6.3424,6.302,6.227,6.108,6.0788,6.026,5.9465,5.864,5.8034,5.7692,5.861,5.9535,2.5605,0.0,0.0,0.0,0.0,0.0,2.7049,2.814,2.9182,2.9989,3.2343,3.4217,3.399,3.5341,3.6699,3.7321,3.8397,3.9387,4.0008,4.054,4.1113,4.1811,4.2297,4.2586,4.2616,4.2466,4.2318,4.2198,4.2604,4.2822,4.2791,4.3346,4.3642,4.3599,4.3599,4.3565,4.3506,4.3506,4.3506,4.3506,4.3506,4.3506,4.3506,4.3822,4.4339,4.5013,4.5461,4.6286,4.7407,4.8388,4.9479,5.0482,5.089,5.1725,5.2724,5.2994,5.3515,5.4091,5.4137,5.4154,5.4172,5.4298,5.4324,5.4333,5.4392,5.4409,5.4615,5.5677,5.6301,5.6996,5.8361,5.8494,5.8294,5.8294,5.8294,5.8294,5.8294,5.8294,5.8231,5.8031,5.7997,5.7997,5.7997,5.7997,5.7997,5.7997,5.7997,5.7997,5.7997,5.7997,5.7997,5.7997,5.8517,5.9301,6.0376,6.1325,6.2343,6.3467,6.3739,6.3816,6.3691,6.34,6.2988,6.2462,6.2179,6.1654,6.0847,5.9751,5.9261,5.9346,5.9804,6.0456,0.0,0.0,0.0,2.5417,0.0,0.0,2.5984,2.6771,2.752,2.7966,2.9811,3.1348,3.1317,3.2445,3.3471,3.3774,3.4583,3.584,3.7755,3.8594,3.931,4.0033,4.0389,4.0779,4.1305,4.1192,4.1149,4.1411,4.1715,4.2034,4.2333,4.2802,4.3217,4.3556,4.3548,4.3531,4.3506,4.3506,4.3506,4.3506,4.3506,4.3506,4.3506,4.3531,4.3875,4.4428,4.4597,4.5164,4.6014,4.6605,4.7812,4.9323,4.9945,5.0728,5.1621,5.2326,5.2921,5.3442,5.3851,5.3981,5.4027,5.411,5.42,5.4317,5.435,5.4375,5.4578,5.5376,5.6348,5.7407,5.8505,5.8643,5.8534,5.8534,5.8534,5.8534,5.8534,5.8483,5.8375,5.8122,5.8077,5.8072,5.8008,5.7997,5.7997,5.7997,5.7997,5.7985,5.7909,5.7927,5.7904,5.7827,5.8302,5.9195,6.0603,6.1321,6.2317,6.3809,6.3947,6.3966,6.3931,6.3709,6.3478,6.3217,6.2972,6.2554,6.1978,6.0832,6.0367,6.0583,6.0811,6.1337,0.0,0.0,0.0,2.5704,2.5623,0.0,2.5533,2.6071,2.6544,2.6475,2.7778,2.8884,2.8824,2.9525,3.0357,3.1062,3.1286,3.2484,3.5757,3.6653,3.7275,3.8083,3.8086,3.8565,3.9909,3.9951,4.0185,4.0846,4.1004,4.1376,4.2121,4.2176,4.2488,4.3212,4.3322,4.3378,4.3378,4.3451,4.3506,4.3506,4.3506,4.3506,4.3506,4.3506,4.3549,4.3599,4.3728,4.4233,4.4961,4.5039,4.6089,4.7797,4.9166,4.9769,5.0065,5.1555,5.2176,5.2389,5.33,5.3664,5.3749,5.3833,5.4036,5.4255,5.4254,5.4324,5.4561,5.5368,5.6593,5.7854,5.8596,5.8755,5.8729,5.8729,5.8729,5.8729,5.8729,5.8638,5.85,5.829,5.8231,5.8163,5.8042,5.8008,5.7997,5.7985,5.7973,5.7939,5.7792,5.7756,5.7721,5.7613,5.777,5.8625,6.042,6.0913,6.1908,6.3769,6.4029,6.4102,6.4102,6.399,6.3803,6.3554,6.334,6.3129,6.2855,6.1852,6.141,6.1561,6.1661,6.2095,0.0,0.0,2.7501,2.7501,2.697,0.0,2.645,2.6049,2.5644,2.5638,2.6414,2.7096,2.7091,2.7807,2.8412,2.8511,2.9612,3.1379,3.402,3.441,3.4709,3.5443,3.598,3.6359,3.6559,3.7073,3.7682,3.8345,3.9495,4.0503,4.1287,4.1342,4.1415,4.1562,4.2194,4.2525,4.2525,4.3176,4.3506,4.3506,4.3506,4.3506,4.3506,4.3506,4.3549,4.3599,4.3634,4.3793,4.4106,4.4631,4.5893,4.7477,4.7738,4.8606,4.9785,5.0117,5.0701,5.147,5.2302,5.2599,5.2721,5.3419,5.3766,5.3907,5.3954,5.4137,5.4493,5.535,5.6235,5.7099,5.7894,5.8509,5.8935,5.8935,5.8935,5.8935,5.8935,5.8915,5.8835,5.8635,5.8367,5.8197,5.8163,5.8065,5.7962,5.7869,5.7827,5.7792,5.7661,5.7534,5.7516,5.7601,5.8111,5.8987,6.0327,6.1285,6.2386,6.3735,6.4006,6.4102,6.4102,6.4063,6.3979,6.384,6.3628,6.3435,6.3277,6.264,6.2391,6.2517,6.2441,6.2546,2.7943,2.8029,2.8008,2.804,2.7384,0.0,0.0,2.6078,2.5445,2.5441,2.5764,2.6045,2.6013,2.6364,2.676,2.7097,2.7792,2.8887,3.0524,3.207,3.3194,3.3564,3.3841,3.4116,3.4424,3.4757,3.538,3.6428,3.7525,3.8511,3.9312,3.9696,4.0094,4.0479,4.1268,4.169,4.169,4.2506,4.29,4.2919,4.3304,4.3506,4.3506,4.3506,4.3513,4.3539,4.3539,4.3592,4.3689,4.4006,4.4898,4.6138,4.6893,4.7941,4.9044,4.9495,4.9957,5.0465,5.1266,5.1572,5.1668,5.2104,5.2638,5.3124,5.3219,5.3701,5.4377,5.5208,5.5714,5.6192,5.708,5.7585,5.7978,5.8437,5.8559,5.8653,5.9065,5.9072,5.8964,5.883,5.8473,5.8197,5.8197,5.8031,5.7881,5.7804,5.7685,5.7553,5.7431,5.7232,5.7143,5.7188,5.7487,5.8352,5.9949,6.0652,6.1743,6.3486,6.3742,6.3886,6.4092,6.4154,6.4133,6.399,6.3837,6.3639,6.34,6.2929,6.273,6.2811,6.2667,6.2667,2.8433,2.8509,2.8517,2.8577,2.7809,2.7021,0.0,0.0,0.0,2.5503,2.5492,2.5474,2.5414,2.5401,2.5587,2.6173,2.6356,2.6646,2.7281,2.9741,3.148,3.1431,3.1473,3.1732,3.2349,3.2735,3.3499,3.4753,3.5536,3.629,3.708,3.7676,3.8439,3.9412,4.023,4.0718,4.0865,4.1672,4.2158,4.2304,4.2955,4.3341,4.3506,4.3506,4.3506,4.3506,4.3506,4.3506,4.3506,4.3506,4.3975,4.4847,4.6296,4.7361,4.8168,4.9031,4.9344,4.9472,5.0288,5.0605,5.0684,5.0821,5.153,5.2398,5.2688,5.3358,5.413,5.482,5.5119,5.5427,5.6211,5.6519,5.6846,5.7631,5.7827,5.8052,5.8868,5.8896,5.8777,5.8821,5.8454,5.8145,5.8163,5.7939,5.7745,5.7697,5.7492,5.7269,5.7118,5.6847,5.6689,5.6715,5.6689,5.7436,5.9294,5.9747,6.0817,6.2921,6.3321,6.3661,6.4061,6.4224,6.4319,6.4327,6.4201,6.3985,6.3623,6.3235,6.2983,6.2811,6.2641,6.2641,2.9905,3.0309,3.0314,3.0303,2.9087,2.7871,2.7935,0.0,2.5508,2.5501,0.0,2.5478,2.5415,0.0,0.0,2.5434,2.6025,2.6496,2.6537,2.7526,2.8173,2.799,2.8585,2.9047,2.9122,3.0953,3.245,3.3208,3.3944,3.4663,3.5354,3.5469,3.6195,3.7713,3.8542,3.9331,4.0037,4.0828,4.158,4.2304,4.2396,4.28,4.3506,4.3506,4.3506,4.3506,4.3506,4.3506,4.3506,4.3506,4.3975,4.4792,4.57,4.6535,4.7333,4.815,4.8443,4.8563,4.9435,4.9739,4.9859,5.0583,5.1399,5.2304,5.3203,5.3577,5.3699,5.3915,5.4483,5.5097,5.5314,5.5892,5.6509,5.679,5.6873,5.707,5.7894,5.7997,5.8056,5.8476,5.8213,5.7953,5.8001,5.7792,5.7534,5.7301,5.7125,5.6946,5.6689,5.6424,5.6304,5.6424,5.6346,5.6795,5.8097,5.9097,6.0265,6.1722,6.2823,6.3576,6.3907,6.4164,6.4571,6.5159,6.509,6.4871,6.4456,6.4174,6.3597,6.278,6.2545,6.257,3.0333,3.0629,3.0597,3.06,2.9292,2.8008,2.8049,2.6716,2.549,2.5499,0.0,0.0,0.0,0.0,0.0,0.0,2.5576,2.5791,2.5776,2.6041,2.6551,2.7411,2.7785,2.7957,2.791,2.9199,3.0133,3.0365,3.1462,3.2221,3.2476,3.3777,3.4788,3.5386,3.7132,3.8209,3.8495,3.978,4.0818,4.1617,4.2076,4.2708,4.3506,4.3506,4.3506,4.3506,4.3506,4.3506,4.3506,4.3506,4.3708,4.4121,4.5406,4.6388,4.7204,4.8003,4.8296,4.8351,4.8728,4.8838,4.9058,5.038,5.1066,5.1672,5.3006,5.3482,5.3542,5.361,5.3861,5.4149,5.4257,5.4585,5.5052,5.5678,5.5865,5.6229,5.7471,5.7604,5.7612,5.7969,5.7749,5.7431,5.7213,5.7213,5.7201,5.7105,5.6834,5.6613,5.6492,5.6151,5.595,5.6106,5.5979,5.6369,5.7495,5.8518,5.966,6.1043,6.2601,6.3636,6.4,6.4195,6.4628,6.529,6.5221,6.5225,6.529,6.4556,6.3971,6.3539,6.2841,6.2616,3.0105,3.0482,3.0566,3.0318,2.9135,2.7961,2.7692,2.6533,2.5488,2.5476,2.5482,0.0,0.0,0.0,2.5408,2.5341,0.0,2.5329,2.5339,2.53,2.5669,2.6801,2.6882,2.6901,2.7066,2.7604,2.801,2.8169,2.9162,2.9924,3.0274,3.1895,3.3167,3.3927,3.5911,3.716,3.7551,3.8931,4.0018,4.0845,4.1636,4.2453,4.3225,4.3439,4.354,4.354,4.3515,4.3506,4.3506,4.3506,4.3506,4.3653,4.5268,4.6269,4.6902,4.7911,4.8296,4.8296,4.8296,4.8296,4.8545,4.9994,5.066,5.1124,5.2522,5.3163,5.3418,5.3418,5.3418,5.3439,5.3494,5.3591,5.3846,5.4594,5.4801,5.5267,5.6806,5.6965,5.6963,5.7459,5.7283,5.6894,5.6474,5.6649,5.6821,5.6781,5.6492,5.6245,5.6203,5.5882,5.5677,5.5793,5.5692,5.6067,5.7103,5.8082,5.9382,6.1121,6.264,6.3628,6.3998,6.4203,6.4711,6.5585,6.5547,6.5612,6.5779,6.4986,6.4303,6.3723,6.296,6.2667,2.9226,3.0069,3.0482,2.9576,2.87,2.7853,2.6958,2.6094,2.548,2.5421,2.5444,2.5478,2.5417,2.5442,0.0,0.0,0.0,0.0,0.0,2.5394,2.5356,2.5299,2.5222,2.5454,2.6172,2.6257,2.6562,2.7274,2.7385,2.8032,2.9452,2.9558,3.0954,3.3994,3.4934,3.6127,3.7677,3.8508,3.9346,4.014,4.096,4.1746,4.2553,4.3264,4.359,4.359,4.354,4.3506,4.3506,4.3506,4.3506,4.3653,4.5268,4.592,4.6122,4.7719,4.8296,4.8296,4.8296,4.8296,4.8443,4.9344,5.017,5.0949,5.1785,5.2593,5.3206,5.3206,5.3206,5.3238,5.3297,5.331,5.3361,5.361,5.364,5.4074,5.5617,5.5756,5.5894,5.6993,5.6899,5.646,5.6003,5.6203,5.6373,5.6253,5.6049,5.5861,5.5735,5.5593,5.5507,5.5507,5.5507,5.5897,5.6832,5.79,5.9615,6.2198,6.3002,6.3527,6.3798,6.4121,6.4951,6.6336,6.6362,6.6144,6.57,6.5669,6.4685,6.2848,6.2685,6.2667,2.9239,3.007,3.0464,2.954,2.8653,2.78,2.6895,2.6043,2.5431,2.547,2.547,2.5484,2.5472,2.5485,0.0,0.0,0.0,0.0,0.0,2.5395,2.537,2.5274,2.5209,2.5269,2.551,2.5546,2.5636,2.5895,2.6362,2.7074,2.8054,2.9054,3.0526,3.2581,3.4463,3.596,3.7022,3.8357,3.9432,4.0248,4.0507,4.1056,4.1849,4.2096,4.2509,4.2997,4.289,4.3118,4.3556,4.3523,4.3506,4.3653,4.5268,4.5902,4.6085,4.7709,4.8296,4.8296,4.8296,4.8296,4.8434,4.9325,5.0151,5.0949,5.1767,5.2564,5.3196,5.3196,5.3196,5.3206,5.322,5.3274,5.3318,5.3328,5.3361,5.3803,5.5269,5.5354,5.5485,5.6593,5.6546,5.6134,5.554,5.554,5.5645,5.5721,5.568,5.5622,5.5563,5.5522,5.5493,5.5493,5.5493,5.5628,5.595,5.7526,5.9516,6.1914,6.2619,6.3205,6.3787,6.4516,6.5365,6.6381,6.6753,6.6786,6.6494,6.5859,6.491,6.3649,6.2923,6.2629,2.8429,2.9185,2.9585,2.8648,2.7999,2.734,2.6474,2.5847,2.5443,2.5488,2.5497,2.5501,2.5501,2.5523,0.0,0.0,0.0,0.0,0.0,2.543,2.5384,2.5346,2.5289,2.5222,2.5192,2.5192,2.5198,2.5203,2.5632,2.6237,2.6971,2.8181,2.9687,3.1482,3.3599,3.5348,3.6763,3.8078,3.9158,3.9984,4.0284,4.0712,4.1238,4.1517,4.2076,4.2808,4.2648,4.2991,4.3659,4.3565,4.3689,4.4066,4.5369,4.6067,4.648,4.7801,4.8296,4.8296,4.8296,4.8296,4.8388,4.8958,4.9884,5.0894,5.1426,5.2294,5.3124,5.3124,5.3092,5.306,5.306,5.3095,5.312,5.3074,5.3056,5.3353,5.4506,5.4748,5.4975,5.5853,5.6025,5.585,5.5304,5.5214,5.5229,5.5309,5.5326,5.5341,5.5386,5.5383,5.5416,5.5493,5.5493,5.575,5.6337,5.7936,5.9738,6.1632,6.2337,6.2923,6.3492,6.4506,6.5393,6.6102,6.6744,6.6772,6.6224,6.5625,6.4683,6.3491,6.3126,6.2895]}]]